Wetterdaten: Sonntag, 08.01.2023
Datum Zeit Temp. I. Temp. A. Feuchte I. Feuchte A. Luftdruck Regen Wind Richtung Richtung Sonnenschein Solar Taupunkt Windchill Windböen
08.01.2023 00:00 21,4 °C 7,1 °C 54 % 85 % 1009,9 hPa 0,0 l/m² 6,3 km/h (2 Bft) O-SO 112 ° 0 min 0 W/m² 4,8 °C 7,1 °C 9,7 km/h (2 Bft)
08.01.2023 00:02 21,3 °C 7,0 °C 54 % 85 % 1009,9 hPa 0,0 l/m² 7,8 km/h (2 Bft) O-SO 103 ° 0 min 0 W/m² 4,7 °C 5,9 °C 11,3 km/h (2 Bft)
08.01.2023 00:03 21,3 °C 6,9 °C 54 % 85 % 1009,9 hPa 0,0 l/m² 6,8 km/h (2 Bft) O-SO 112 ° 0 min 0 W/m² 4,6 °C 6,6 °C 11,3 km/h (2 Bft)
08.01.2023 00:05 21,4 °C 6,9 °C 54 % 85 % 1009,9 hPa 0,0 l/m² 7,4 km/h (2 Bft) O-SO 114 ° 0 min 0 W/m² 4,6 °C 6,1 °C 11,3 km/h (2 Bft)
08.01.2023 00:06 21,4 °C 6,9 °C 54 % 85 % 1009,9 hPa 0,0 l/m² 8,2 km/h (2 Bft) O-SO 122 ° 0 min 0 W/m² 4,6 °C 5,4 °C 11,3 km/h (2 Bft)
08.01.2023 00:08 21,3 °C 6,9 °C 54 % 86 % 1009,8 hPa 0,0 l/m² 6,7 km/h (2 Bft) O-SO 119 ° 0 min 0 W/m² 4,7 °C 6,7 °C 11,3 km/h (2 Bft)
08.01.2023 00:09 21,3 °C 6,9 °C 54 % 86 % 1009,8 hPa 0,0 l/m² 7,2 km/h (2 Bft) O-SO 116 ° 0 min 0 W/m² 4,7 °C 6,2 °C 12,9 km/h (3 Bft)
08.01.2023 00:10 21,4 °C 6,9 °C 54 % 86 % 1009,9 hPa 0,0 l/m² 7,3 km/h (2 Bft) O-SO 123 ° 0 min 0 W/m² 4,7 °C 6,2 °C 9,7 km/h (2 Bft)
08.01.2023 00:12 21,3 °C 6,9 °C 54 % 86 % 1009,8 hPa 0,0 l/m² 7,0 km/h (2 Bft) O-SO 109 ° 0 min 0 W/m² 4,7 °C 6,4 °C 11,3 km/h (2 Bft)
08.01.2023 00:13 21,3 °C 6,9 °C 54 % 86 % 1009,8 hPa 0,0 l/m² 6,9 km/h (2 Bft) O-SO 117 ° 0 min 0 W/m² 4,7 °C 6,5 °C 11,3 km/h (2 Bft)
08.01.2023 00:15 21,4 °C 6,9 °C 54 % 86 % 1009,8 hPa 0,0 l/m² 11,4 km/h (2 Bft) O 95 ° 0 min 0 W/m² 4,7 °C 3,3 °C 14,5 km/h (3 Bft)
08.01.2023 00:17 21,4 °C 6,9 °C 54 % 86 % 1009,8 hPa 0,0 l/m² 12,0 km/h (2 Bft) O-SO 103 ° 0 min 0 W/m² 4,7 °C 2,9 °C 14,5 km/h (3 Bft)
08.01.2023 00:19 21,4 °C 6,9 °C 54 % 86 % 1009,8 hPa 0,0 l/m² 11,9 km/h (2 Bft) O-SO 110 ° 0 min 0 W/m² 4,7 °C 3,0 °C 16,1 km/h (3 Bft)
08.01.2023 00:21 21,3 °C 6,9 °C 54 % 86 % 1009,7 hPa 0,0 l/m² 9,9 km/h (2 Bft) O-SO 112 ° 0 min 0 W/m² 4,7 °C 4,2 °C 12,9 km/h (3 Bft)
08.01.2023 00:23 21,4 °C 6,9 °C 54 % 86 % 1009,7 hPa 0,0 l/m² 9,7 km/h (2 Bft) O-SO 114 ° 0 min 0 W/m² 4,7 °C 4,4 °C 12,9 km/h (3 Bft)
08.01.2023 00:24 21,4 °C 6,9 °C 54 % 86 % 1009,7 hPa 0,0 l/m² 9,9 km/h (2 Bft) O 88 ° 0 min 0 W/m² 4,7 °C 4,2 °C 12,9 km/h (3 Bft)
08.01.2023 00:25 21,4 °C 6,9 °C 54 % 86 % 1009,7 hPa 0,0 l/m² 11,2 km/h (2 Bft) O-SO 104 ° 0 min 0 W/m² 4,7 °C 3,4 °C 14,5 km/h (3 Bft)
08.01.2023 00:27 21,3 °C 6,9 °C 54 % 86 % 1009,7 hPa 0,0 l/m² 10,5 km/h (2 Bft) O 97 ° 0 min 0 W/m² 4,7 °C 3,8 °C 12,9 km/h (3 Bft)
08.01.2023 00:29 21,3 °C 6,9 °C 54 % 86 % 1009,5 hPa 0,0 l/m² 12,1 km/h (2 Bft) O-SO 107 ° 0 min 0 W/m² 4,7 °C 2,9 °C 16,1 km/h (3 Bft)
08.01.2023 00:31 21,3 °C 6,9 °C 54 % 86 % 1009,5 hPa 0,0 l/m² 11,0 km/h (2 Bft) O-SO 106 ° 0 min 0 W/m² 4,7 °C 3,5 °C 14,5 km/h (3 Bft)
08.01.2023 00:32 21,3 °C 6,9 °C 54 % 86 % 1009,4 hPa 0,0 l/m² 11,3 km/h (2 Bft) O 92 ° 0 min 0 W/m² 4,7 °C 3,4 °C 12,9 km/h (3 Bft)
08.01.2023 00:34 21,3 °C 6,9 °C 54 % 86 % 1009,4 hPa 0,0 l/m² 10,8 km/h (2 Bft) O 100 ° 0 min 0 W/m² 4,7 °C 3,7 °C 12,9 km/h (3 Bft)
08.01.2023 00:36 21,3 °C 6,9 °C 54 % 86 % 1009,4 hPa 0,0 l/m² 9,4 km/h (2 Bft) O-SO 116 ° 0 min 0 W/m² 4,7 °C 4,6 °C 11,3 km/h (2 Bft)
08.01.2023 00:38 21,3 °C 6,9 °C 54 % 86 % 1009,3 hPa 0,0 l/m² 9,1 km/h (2 Bft) O-SO 103 ° 0 min 0 W/m² 4,7 °C 4,8 °C 12,9 km/h (3 Bft)
08.01.2023 00:40 21,3 °C 6,9 °C 54 % 86 % 1009,2 hPa 0,0 l/m² 11,1 km/h (2 Bft) O-SO 109 ° 0 min 0 W/m² 4,7 °C 3,5 °C 14,5 km/h (3 Bft)
08.01.2023 00:42 21,3 °C 6,9 °C 54 % 86 % 1009,3 hPa 0,0 l/m² 9,3 km/h (2 Bft) O-SO 104 ° 0 min 0 W/m² 4,7 °C 4,6 °C 12,9 km/h (3 Bft)
08.01.2023 00:43 21,3 °C 6,9 °C 54 % 86 % 1009,3 hPa 0,0 l/m² 9,2 km/h (2 Bft) O 92 ° 0 min 0 W/m² 4,7 °C 4,7 °C 11,3 km/h (2 Bft)
08.01.2023 00:45 21,3 °C 6,9 °C 54 % 86 % 1009,1 hPa 0,0 l/m² 9,6 km/h (2 Bft) SO 124 ° 0 min 0 W/m² 4,7 °C 4,4 °C 12,9 km/h (3 Bft)
08.01.2023 00:47 21,3 °C 6,9 °C 54 % 86 % 1009,1 hPa 0,0 l/m² 8,7 km/h (2 Bft) O-SO 109 ° 0 min 0 W/m² 4,7 °C 5,1 °C 12,9 km/h (3 Bft)
08.01.2023 00:49 21,3 °C 6,9 °C 54 % 86 % 1009,2 hPa 0,0 l/m² 8,6 km/h (2 Bft) O-SO 108 ° 0 min 0 W/m² 4,7 °C 5,1 °C 12,9 km/h (3 Bft)
08.01.2023 00:51 21,3 °C 6,9 °C 54 % 86 % 1009,1 hPa 0,0 l/m² 9,6 km/h (2 Bft) O-SO 109 ° 0 min 0 W/m² 4,7 °C 4,4 °C 12,9 km/h (3 Bft)
08.01.2023 00:53 21,3 °C 6,9 °C 54 % 86 % 1009,1 hPa 0,0 l/m² 10,7 km/h (2 Bft) O 97 ° 0 min 0 W/m² 4,7 °C 3,7 °C 14,5 km/h (3 Bft)
08.01.2023 00:54 21,3 °C 6,9 °C 54 % 86 % 1009,1 hPa 0,0 l/m² 10,7 km/h (2 Bft) SO 130 ° 0 min 0 W/m² 4,7 °C 3,7 °C 14,5 km/h (3 Bft)
08.01.2023 00:55 21,3 °C 6,9 °C 54 % 86 % 1009,1 hPa 0,0 l/m² 7,5 km/h (2 Bft) O-SO 106 ° 0 min 0 W/m² 4,7 °C 6,0 °C 11,3 km/h (2 Bft)
08.01.2023 00:57 21,3 °C 7,0 °C 54 % 86 % 1009,0 hPa 0,0 l/m² 6,5 km/h (2 Bft) O-SO 112 ° 0 min 0 W/m² 4,8 °C 6,9 °C 11,3 km/h (2 Bft)
08.01.2023 00:59 21,3 °C 7,0 °C 54 % 86 % 1009,0 hPa 0,0 l/m² 6,8 km/h (2 Bft) O 94 ° 0 min 0 W/m² 4,8 °C 6,7 °C 11,3 km/h (2 Bft)
08.01.2023 01:01 21,3 °C 7,0 °C 54 % 86 % 1009,0 hPa 0,0 l/m² 9,3 km/h (2 Bft) O 96 ° 0 min 0 W/m² 4,8 °C 4,8 °C 12,9 km/h (3 Bft)
08.01.2023 01:02 21,3 °C 7,0 °C 54 % 86 % 1009,0 hPa 0,0 l/m² 7,2 km/h (2 Bft) O 90 ° 0 min 0 W/m² 4,8 °C 6,3 °C 9,7 km/h (2 Bft)
08.01.2023 01:03 21,3 °C 7,0 °C 54 % 86 % 1009,0 hPa 0,0 l/m² 7,3 km/h (2 Bft) O-NO 75 ° 0 min 0 W/m² 4,8 °C 6,3 °C 9,7 km/h (2 Bft)
08.01.2023 01:05 21,4 °C 7,0 °C 54 % 86 % 1009,0 hPa 0,0 l/m² 7,1 km/h (2 Bft) O 82 ° 0 min 0 W/m² 4,8 °C 6,4 °C 9,7 km/h (2 Bft)
08.01.2023 01:07 21,3 °C 7,0 °C 54 % 86 % 1009,0 hPa 0,0 l/m² 7,1 km/h (2 Bft) O 84 ° 0 min 0 W/m² 4,8 °C 6,4 °C 8,0 km/h (2 Bft)
08.01.2023 01:09 21,3 °C 6,9 °C 54 % 86 % 1009,1 hPa 0,0 l/m² 5,4 km/h (2 Bft) O 83 ° 0 min 0 W/m² 4,7 °C 6,9 °C 8,0 km/h (2 Bft)
08.01.2023 01:11 21,3 °C 7,0 °C 54 % 86 % 1009,1 hPa 0,0 l/m² 6,2 km/h (2 Bft) O 87 ° 0 min 0 W/m² 4,8 °C 7,0 °C 8,0 km/h (2 Bft)
08.01.2023 01:12 21,3 °C 6,9 °C 54 % 86 % 1009,1 hPa 0,0 l/m² 6,0 km/h (2 Bft) O 87 ° 0 min 0 W/m² 4,7 °C 6,9 °C 8,0 km/h (2 Bft)
08.01.2023 01:13 21,3 °C 6,9 °C 54 % 86 % 1009,1 hPa 0,0 l/m² 5,5 km/h (2 Bft) O 88 ° 0 min 0 W/m² 4,7 °C 6,9 °C 6,4 km/h (2 Bft)
08.01.2023 01:15 21,3 °C 6,9 °C 54 % 86 % 1009,1 hPa 0,0 l/m² 5,5 km/h (2 Bft) O 95 ° 0 min 0 W/m² 4,7 °C 6,9 °C 6,4 km/h (2 Bft)
08.01.2023 01:17 21,3 °C 6,8 °C 54 % 86 % 1009,0 hPa 0,0 l/m² 7,6 km/h (2 Bft) O 92 ° 0 min 0 W/m² 4,6 °C 5,8 °C 12,9 km/h (3 Bft)
08.01.2023 01:19 21,3 °C 6,8 °C 54 % 86 % 1009,0 hPa 0,0 l/m² 8,3 km/h (2 Bft) O 90 ° 0 min 0 W/m² 4,6 °C 5,3 °C 11,3 km/h (2 Bft)
08.01.2023 01:21 21,3 °C 6,8 °C 54 % 86 % 1009,0 hPa 0,0 l/m² 8,9 km/h (2 Bft) O 92 ° 0 min 0 W/m² 4,6 °C 4,8 °C 9,7 km/h (2 Bft)
08.01.2023 01:23 21,3 °C 6,8 °C 54 % 87 % 1009,0 hPa 0,0 l/m² 6,5 km/h (2 Bft) O 86 ° 0 min 0 W/m² 4,8 °C 6,7 °C 9,7 km/h (2 Bft)
08.01.2023 01:24 21,3 °C 6,8 °C 54 % 87 % 1009,0 hPa 0,0 l/m² 4,3 km/h (1 Bft) O 86 ° 0 min 0 W/m² 4,8 °C 6,8 °C 4,8 km/h (1 Bft)
08.01.2023 01:25 21,3 °C 6,7 °C 54 % 87 % 1009,0 hPa 0,0 l/m² 4,8 km/h (1 Bft) O 82 ° 0 min 0 W/m² 4,7 °C 6,7 °C 6,4 km/h (2 Bft)
08.01.2023 01:27 21,3 °C 6,7 °C 54 % 87 % 1009,0 hPa 0,0 l/m² 5,2 km/h (1 Bft) O-NO 78 ° 0 min 0 W/m² 4,7 °C 6,7 °C 8,0 km/h (2 Bft)
08.01.2023 01:29 21,3 °C 6,7 °C 54 % 86 % 1008,8 hPa 0,0 l/m² 6,4 km/h (2 Bft) O 80 ° 0 min 0 W/m² 4,5 °C 6,7 °C 8,0 km/h (2 Bft)
08.01.2023 01:31 21,4 °C 6,6 °C 54 % 86 % 1008,8 hPa 0,0 l/m² 8,0 km/h (2 Bft) O 88 ° 0 min 0 W/m² 4,4 °C 5,3 °C 11,3 km/h (2 Bft)
08.01.2023 01:32 21,3 °C 6,6 °C 54 % 86 % 1008,9 hPa 0,0 l/m² 8,9 km/h (2 Bft) O 90 ° 0 min 0 W/m² 4,4 °C 4,6 °C 9,7 km/h (2 Bft)
08.01.2023 01:33 21,4 °C 6,6 °C 54 % 87 % 1008,9 hPa 0,0 l/m² 7,1 km/h (2 Bft) O 92 ° 0 min 0 W/m² 4,6 °C 6,0 °C 9,7 km/h (2 Bft)
08.01.2023 01:35 21,3 °C 6,4 °C 54 % 87 % 1008,9 hPa 0,0 l/m² 7,1 km/h (2 Bft) O 91 ° 0 min 0 W/m² 4,4 °C 5,8 °C 9,7 km/h (2 Bft)
08.01.2023 01:37 21,4 °C 6,4 °C 54 % 87 % 1008,9 hPa 0,0 l/m² 5,8 km/h (2 Bft) O 90 ° 0 min 0 W/m² 4,4 °C 6,4 °C 9,7 km/h (2 Bft)
08.01.2023 01:39 21,3 °C 6,4 °C 54 % 87 % 1008,8 hPa 0,0 l/m² 5,3 km/h (1 Bft) O-NO 78 ° 0 min 0 W/m² 4,4 °C 6,4 °C 6,4 km/h (2 Bft)
08.01.2023 01:41 21,3 °C 6,4 °C 54 % 87 % 1008,8 hPa 0,0 l/m² 5,0 km/h (1 Bft) O-NO 76 ° 0 min 0 W/m² 4,4 °C 6,4 °C 8,0 km/h (2 Bft)
08.01.2023 01:43 21,3 °C 6,4 °C 54 % 87 % 1008,7 hPa 0,0 l/m² 3,5 km/h (1 Bft) O 83 ° 0 min 0 W/m² 4,4 °C 6,4 °C 6,4 km/h (2 Bft)
08.01.2023 01:44 21,4 °C 6,4 °C 54 % 87 % 1008,6 hPa 0,0 l/m² 5,5 km/h (2 Bft) O 83 ° 0 min 0 W/m² 4,4 °C 6,4 °C 6,4 km/h (2 Bft)
08.01.2023 01:45 21,4 °C 6,4 °C 54 % 87 % 1008,7 hPa 0,0 l/m² 4,6 km/h (1 Bft) O 93 ° 0 min 0 W/m² 4,4 °C 6,4 °C 6,4 km/h (2 Bft)
08.01.2023 01:47 21,4 °C 6,4 °C 54 % 87 % 1008,6 hPa 0,0 l/m² 3,7 km/h (1 Bft) O 87 ° 0 min 0 W/m² 4,4 °C 6,4 °C 6,4 km/h (2 Bft)
08.01.2023 01:49 21,3 °C 6,3 °C 54 % 88 % 1008,6 hPa 0,0 l/m² 2,9 km/h (1 Bft) O 88 ° 0 min 0 W/m² 4,5 °C 6,3 °C 6,4 km/h (2 Bft)
08.01.2023 01:51 21,3 °C 6,3 °C 54 % 88 % 1008,6 hPa 0,0 l/m² 2,4 km/h (1 Bft) O 88 ° 0 min 0 W/m² 4,5 °C 6,3 °C 4,8 km/h (1 Bft)
08.01.2023 01:52 21,4 °C 6,3 °C 54 % 88 % 1008,6 hPa 0,0 l/m² 4,0 km/h (1 Bft) O 88 ° 0 min 0 W/m² 4,5 °C 6,3 °C 4,8 km/h (1 Bft)
08.01.2023 01:54 21,4 °C 6,3 °C 54 % 88 % 1008,6 hPa 0,0 l/m² 4,1 km/h (1 Bft) O 88 ° 0 min 0 W/m² 4,5 °C 6,3 °C 4,8 km/h (1 Bft)
08.01.2023 01:56 21,4 °C 6,3 °C 54 % 88 % 1008,5 hPa 0,0 l/m² 4,3 km/h (1 Bft) O 88 ° 0 min 0 W/m² 4,5 °C 6,3 °C 6,4 km/h (2 Bft)
08.01.2023 01:58 21,4 °C 6,3 °C 54 % 88 % 1008,4 hPa 0,0 l/m² 4,6 km/h (1 Bft) O 88 ° 0 min 0 W/m² 4,5 °C 6,3 °C 6,4 km/h (2 Bft)
08.01.2023 02:00 21,4 °C 6,2 °C 54 % 88 % 1008,3 hPa 0,0 l/m² 4,0 km/h (1 Bft) O 88 ° 0 min 0 W/m² 4,4 °C 6,2 °C 4,8 km/h (1 Bft)
08.01.2023 02:02 21,4 °C 6,2 °C 54 % 88 % 1008,4 hPa 0,0 l/m² 3,3 km/h (1 Bft) O 88 ° 0 min 0 W/m² 4,4 °C 6,2 °C 6,4 km/h (2 Bft)
08.01.2023 02:03 21,4 °C 6,2 °C 54 % 88 % 1008,3 hPa 0,0 l/m² 3,5 km/h (1 Bft) O 92 ° 0 min 0 W/m² 4,4 °C 6,2 °C 4,8 km/h (1 Bft)
08.01.2023 02:04 21,4 °C 6,2 °C 54 % 88 % 1008,4 hPa 0,0 l/m² 3,4 km/h (1 Bft) O 93 ° 0 min 0 W/m² 4,4 °C 6,2 °C 4,8 km/h (1 Bft)
08.01.2023 02:06 21,4 °C 6,2 °C 54 % 88 % 1008,3 hPa 0,0 l/m² 3,7 km/h (1 Bft) O 94 ° 0 min 0 W/m² 4,4 °C 6,2 °C 4,8 km/h (1 Bft)
08.01.2023 02:08 21,4 °C 6,2 °C 54 % 88 % 1008,3 hPa 0,0 l/m² 3,7 km/h (1 Bft) O-SO 102 ° 0 min 0 W/m² 4,4 °C 6,2 °C 6,4 km/h (2 Bft)
08.01.2023 02:10 21,4 °C 6,2 °C 54 % 88 % 1008,4 hPa 0,0 l/m² 4,4 km/h (1 Bft) O-SO 110 ° 0 min 0 W/m² 4,4 °C 6,2 °C 6,4 km/h (2 Bft)
08.01.2023 02:12 21,4 °C 6,2 °C 54 % 88 % 1008,4 hPa 0,0 l/m² 4,7 km/h (1 Bft) O 96 ° 0 min 0 W/m² 4,4 °C 6,2 °C 6,4 km/h (2 Bft)
08.01.2023 02:13 21,4 °C 6,2 °C 54 % 88 % 1008,3 hPa 0,0 l/m² 3,5 km/h (1 Bft) O 95 ° 0 min 0 W/m² 4,4 °C 6,2 °C 4,8 km/h (1 Bft)
08.01.2023 02:14 21,4 °C 6,2 °C 54 % 88 % 1008,3 hPa 0,0 l/m² 3,1 km/h (1 Bft) O 95 ° 0 min 0 W/m² 4,4 °C 6,2 °C 4,8 km/h (1 Bft)
08.01.2023 02:16 21,4 °C 6,2 °C 54 % 88 % 1008,3 hPa 0,0 l/m² 3,9 km/h (1 Bft) O 84 ° 0 min 0 W/m² 4,4 °C 6,2 °C 4,8 km/h (1 Bft)
08.01.2023 02:18 21,4 °C 6,2 °C 54 % 88 % 1008,3 hPa 0,0 l/m² 3,6 km/h (1 Bft) O-NO 63 ° 0 min 0 W/m² 4,4 °C 6,2 °C 6,4 km/h (2 Bft)
08.01.2023 02:20 21,4 °C 6,2 °C 54 % 88 % 1008,3 hPa 0,0 l/m² 4,0 km/h (1 Bft) N-NO 31 ° 0 min 0 W/m² 4,4 °C 6,2 °C 6,4 km/h (2 Bft)
08.01.2023 02:22 21,4 °C 6,1 °C 54 % 88 % 1008,2 hPa 0,0 l/m² 5,2 km/h (1 Bft) NO 46 ° 0 min 0 W/m² 4,3 °C 6,1 °C 8,0 km/h (2 Bft)
08.01.2023 02:23 21,4 °C 6,1 °C 54 % 88 % 1008,2 hPa 0,0 l/m² 5,8 km/h (2 Bft) NO 45 ° 0 min 0 W/m² 4,3 °C 6,1 °C 8,0 km/h (2 Bft)
08.01.2023 02:24 21,4 °C 6,1 °C 54 % 88 % 1008,2 hPa 0,0 l/m² 4,8 km/h (1 Bft) NO 55 ° 0 min 0 W/m² 4,3 °C 6,1 °C 6,4 km/h (2 Bft)
08.01.2023 02:26 21,4 °C 6,1 °C 54 % 88 % 1008,2 hPa 0,0 l/m² 3,9 km/h (1 Bft) NO 55 ° 0 min 0 W/m² 4,3 °C 6,1 °C 8,0 km/h (2 Bft)
08.01.2023 02:28 21,4 °C 6,1 °C 54 % 88 % 1008,2 hPa 0,0 l/m² 3,5 km/h (1 Bft) NO 55 ° 0 min 0 W/m² 4,3 °C 6,1 °C 4,8 km/h (1 Bft)
08.01.2023 02:30 21,4 °C 6,1 °C 54 % 88 % 1008,2 hPa 0,0 l/m² 1,9 km/h (1 Bft) NO 55 ° 0 min 0 W/m² 4,3 °C 6,1 °C 4,8 km/h (1 Bft)
08.01.2023 02:32 21,4 °C 6,1 °C 54 % 88 % 1008,3 hPa 0,0 l/m² 1,4 km/h (1 Bft) NO 55 ° 0 min 0 W/m² 4,3 °C 6,1 °C 3,2 km/h (1 Bft)
08.01.2023 02:33 21,4 °C 6,1 °C 54 % 88 % 1008,3 hPa 0,0 l/m² 2,4 km/h (1 Bft) NO 55 ° 0 min 0 W/m² 4,3 °C 6,1 °C 3,2 km/h (1 Bft)
08.01.2023 02:34 21,4 °C 6,0 °C 54 % 88 % 1008,3 hPa 0,0 l/m² 4,2 km/h (1 Bft) NO 55 ° 0 min 0 W/m² 4,2 °C 6,0 °C 4,8 km/h (1 Bft)
08.01.2023 02:36 21,4 °C 5,9 °C 54 % 88 % 1008,2 hPa 0,0 l/m² 4,2 km/h (1 Bft) O-NO 61 ° 0 min 0 W/m² 4,1 °C 5,9 °C 6,4 km/h (2 Bft)
08.01.2023 02:38 21,4 °C 5,9 °C 54 % 88 % 1008,2 hPa 0,0 l/m² 3,7 km/h (1 Bft) O-NO 78 ° 0 min 0 W/m² 4,1 °C 5,9 °C 4,8 km/h (1 Bft)
08.01.2023 02:40 21,4 °C 5,9 °C 54 % 88 % 1008,2 hPa 0,0 l/m² 3,2 km/h (1 Bft) O-NO 68 ° 0 min 0 W/m² 4,1 °C 5,9 °C 6,4 km/h (2 Bft)
08.01.2023 02:42 21,4 °C 5,8 °C 54 % 88 % 1008,2 hPa 0,0 l/m² 3,8 km/h (1 Bft) O-NO 63 ° 0 min 0 W/m² 4,0 °C 5,8 °C 6,4 km/h (2 Bft)
08.01.2023 02:43 21,4 °C 5,8 °C 54 % 88 % 1008,1 hPa 0,0 l/m² 2,7 km/h (1 Bft) O-NO 63 ° 0 min 0 W/m² 4,0 °C 5,8 °C 3,2 km/h (1 Bft)
08.01.2023 02:44 21,4 °C 5,8 °C 54 % 88 % 1008,1 hPa 0,0 l/m² 3,7 km/h (1 Bft) O-NO 65 ° 0 min 0 W/m² 4,0 °C 5,8 °C 4,8 km/h (1 Bft)
08.01.2023 02:46 21,4 °C 5,8 °C 54 % 88 % 1008,1 hPa 0,0 l/m² 2,2 km/h (1 Bft) O-NO 65 ° 0 min 0 W/m² 4,0 °C 5,8 °C 4,8 km/h (1 Bft)
08.01.2023 02:48 21,4 °C 5,8 °C 54 % 88 % 1008,1 hPa 0,0 l/m² 3,1 km/h (1 Bft) O-NO 65 ° 0 min 0 W/m² 4,0 °C 5,8 °C 4,8 km/h (1 Bft)
08.01.2023 02:50 21,4 °C 5,8 °C 54 % 88 % 1008,1 hPa 0,0 l/m² 3,6 km/h (1 Bft) O-NO 63 ° 0 min 0 W/m² 4,0 °C 5,8 °C 4,8 km/h (1 Bft)
08.01.2023 02:52 21,4 °C 5,7 °C 54 % 88 % 1008,1 hPa 0,0 l/m² 3,4 km/h (1 Bft) NO 48 ° 0 min 0 W/m² 3,9 °C 5,7 °C 6,4 km/h (2 Bft)
08.01.2023 02:53 21,4 °C 5,7 °C 54 % 88 % 1008,1 hPa 0,0 l/m² 4,4 km/h (1 Bft) NO 48 ° 0 min 0 W/m² 3,9 °C 5,7 °C 6,4 km/h (2 Bft)
08.01.2023 02:54 21,4 °C 5,7 °C 54 % 88 % 1008,2 hPa 0,0 l/m² 3,5 km/h (1 Bft) NO 48 ° 0 min 0 W/m² 3,9 °C 5,7 °C 4,8 km/h (1 Bft)
08.01.2023 02:56 21,4 °C 5,7 °C 54 % 88 % 1008,2 hPa 0,0 l/m² 4,7 km/h (1 Bft) NO 39 ° 0 min 0 W/m² 3,9 °C 5,7 °C 6,4 km/h (2 Bft)
08.01.2023 02:58 21,4 °C 5,7 °C 54 % 88 % 1008,2 hPa 0,0 l/m² 4,6 km/h (1 Bft) NO 38 ° 0 min 0 W/m² 3,9 °C 5,7 °C 6,4 km/h (2 Bft)
08.01.2023 03:00 21,4 °C 5,7 °C 54 % 89 % 1008,3 hPa 0,0 l/m² 4,5 km/h (1 Bft) N-NO 28 ° 0 min 0 W/m² 4,0 °C 5,7 °C 8,0 km/h (2 Bft)
08.01.2023 03:01 21,4 °C 5,7 °C 54 % 88 % 1008,3 hPa 0,0 l/m² 4,8 km/h (1 Bft) N-NO 22 ° 0 min 0 W/m² 3,9 °C 5,7 °C 6,4 km/h (2 Bft)
08.01.2023 03:06 21,4 °C 5,7 °C 54 % 89 % 1008,1 hPa 0,0 l/m² 2,8 km/h (1 Bft) NO 55 ° 0 min 0 W/m² 4,0 °C 5,7 °C 3,2 km/h (1 Bft)
08.01.2023 03:08 21,4 °C 5,7 °C 54 % 89 % 1007,9 hPa 0,0 l/m² 3,9 km/h (1 Bft) O-NO 78 ° 0 min 0 W/m² 4,0 °C 5,7 °C 6,4 km/h (2 Bft)
08.01.2023 03:09 21,4 °C 5,7 °C 54 % 88 % 1008,0 hPa 0,0 l/m² 3,7 km/h (1 Bft) O-NO 78 ° 0 min 0 W/m² 3,9 °C 5,7 °C 4,8 km/h (1 Bft)
08.01.2023 03:11 21,4 °C 5,7 °C 54 % 88 % 1008,0 hPa 0,0 l/m² 2,8 km/h (1 Bft) O 79 ° 0 min 0 W/m² 3,9 °C 5,7 °C 4,8 km/h (1 Bft)
08.01.2023 03:12 21,4 °C 5,7 °C 54 % 88 % 1008,0 hPa 0,0 l/m² 4,6 km/h (1 Bft) O 98 ° 0 min 0 W/m² 3,9 °C 5,7 °C 6,4 km/h (2 Bft)
08.01.2023 03:14 21,4 °C 5,7 °C 54 % 89 % 1007,9 hPa 0,0 l/m² 4,0 km/h (1 Bft) O-SO 114 ° 0 min 0 W/m² 4,0 °C 5,7 °C 4,8 km/h (1 Bft)
08.01.2023 03:15 21,4 °C 5,6 °C 54 % 89 % 1007,9 hPa 0,0 l/m² 4,2 km/h (1 Bft) O-SO 118 ° 0 min 0 W/m² 3,9 °C 5,6 °C 6,4 km/h (2 Bft)
08.01.2023 03:17 21,4 °C 5,7 °C 54 % 89 % 1007,8 hPa 0,0 l/m² 5,0 km/h (1 Bft) SO 144 ° 0 min 0 W/m² 4,0 °C 5,7 °C 11,3 km/h (2 Bft)
08.01.2023 03:18 21,4 °C 5,7 °C 54 % 89 % 1007,8 hPa 0,0 l/m² 5,2 km/h (1 Bft) S-SO 153 ° 0 min 0 W/m² 4,0 °C 5,7 °C 6,4 km/h (2 Bft)
08.01.2023 03:19 21,4 °C 5,7 °C 54 % 89 % 1007,8 hPa 0,0 l/m² 5,2 km/h (1 Bft) SO 144 ° 0 min 0 W/m² 4,0 °C 5,7 °C 8,0 km/h (2 Bft)
08.01.2023 03:21 21,4 °C 5,7 °C 54 % 89 % 1007,8 hPa 0,0 l/m² 5,4 km/h (2 Bft) SO 145 ° 0 min 0 W/m² 4,0 °C 5,7 °C 9,7 km/h (2 Bft)
08.01.2023 03:22 21,4 °C 5,7 °C 54 % 89 % 1007,8 hPa 0,0 l/m² 5,1 km/h (1 Bft) S-SO 147 ° 0 min 0 W/m² 4,0 °C 5,7 °C 8,0 km/h (2 Bft)
08.01.2023 03:24 21,4 °C 5,7 °C 54 % 89 % 1007,9 hPa 0,0 l/m² 3,0 km/h (1 Bft) S-SO 161 ° 0 min 0 W/m² 4,0 °C 5,7 °C 6,4 km/h (2 Bft)
08.01.2023 03:26 21,4 °C 5,7 °C 54 % 89 % 1007,8 hPa 0,0 l/m² 1,5 km/h (1 Bft) O-NO 61 ° 0 min 0 W/m² 4,0 °C 5,7 °C 4,8 km/h (1 Bft)
08.01.2023 03:28 21,4 °C 5,7 °C 54 % 89 % 1007,7 hPa 0,0 l/m² 2,2 km/h (1 Bft) NO 51 ° 0 min 0 W/m² 4,0 °C 5,7 °C 4,8 km/h (1 Bft)
08.01.2023 03:30 21,4 °C 5,8 °C 54 % 89 % 1007,8 hPa 0,0 l/m² 6,0 km/h (2 Bft) N-NO 24 ° 0 min 0 W/m² 4,1 °C 5,8 °C 8,0 km/h (2 Bft)
08.01.2023 03:31 21,4 °C 5,8 °C 54 % 89 % 1007,7 hPa 0,0 l/m² 5,2 km/h (1 Bft) N 5 ° 0 min 0 W/m² 4,1 °C 5,8 °C 8,0 km/h (2 Bft)
08.01.2023 03:33 21,4 °C 5,8 °C 54 % 89 % 1007,8 hPa 0,0 l/m² 5,8 km/h (2 Bft) N-NO 30 ° 0 min 0 W/m² 4,1 °C 5,8 °C 8,0 km/h (2 Bft)
08.01.2023 03:34 21,4 °C 5,8 °C 54 % 89 % 1007,8 hPa 0,0 l/m² 5,4 km/h (2 Bft) NO 48 ° 0 min 0 W/m² 4,1 °C 5,8 °C 8,0 km/h (2 Bft)
08.01.2023 03:36 21,4 °C 5,8 °C 54 % 88 % 1007,7 hPa 0,0 l/m² 6,8 km/h (2 Bft) O-NO 59 ° 0 min 0 W/m² 4,0 °C 5,5 °C 8,0 km/h (2 Bft)
08.01.2023 03:38 21,4 °C 5,8 °C 54 % 88 % 1007,6 hPa 0,0 l/m² 4,5 km/h (1 Bft) O-NO 65 ° 0 min 0 W/m² 4,0 °C 5,8 °C 6,4 km/h (2 Bft)
08.01.2023 03:40 21,4 °C 5,8 °C 54 % 88 % 1007,7 hPa 0,0 l/m² 4,3 km/h (1 Bft) O-NO 65 ° 0 min 0 W/m² 4,0 °C 5,8 °C 6,4 km/h (2 Bft)
08.01.2023 03:41 21,4 °C 5,8 °C 54 % 88 % 1007,6 hPa 0,0 l/m² 3,3 km/h (1 Bft) O-NO 65 ° 0 min 0 W/m² 4,0 °C 5,8 °C 4,8 km/h (1 Bft)
08.01.2023 03:43 21,4 °C 5,8 °C 54 % 88 % 1007,6 hPa 0,0 l/m² 2,5 km/h (1 Bft) O-NO 65 ° 0 min 0 W/m² 4,0 °C 5,8 °C 3,2 km/h (1 Bft)
08.01.2023 03:44 21,4 °C 5,8 °C 54 % 88 % 1007,6 hPa 0,0 l/m² 4,6 km/h (1 Bft) O-NO 76 ° 0 min 0 W/m² 4,0 °C 5,8 °C 6,4 km/h (2 Bft)
08.01.2023 03:46 21,4 °C 5,8 °C 54 % 88 % 1007,7 hPa 0,0 l/m² 4,1 km/h (1 Bft) O-NO 76 ° 0 min 0 W/m² 4,0 °C 5,8 °C 6,4 km/h (2 Bft)
08.01.2023 03:48 21,4 °C 5,8 °C 54 % 88 % 1007,7 hPa 0,0 l/m² 3,0 km/h (1 Bft) O-NO 76 ° 0 min 0 W/m² 4,0 °C 5,8 °C 4,8 km/h (1 Bft)
08.01.2023 03:50 21,4 °C 5,8 °C 54 % 88 % 1007,8 hPa 0,0 l/m² 3,8 km/h (1 Bft) O-NO 76 ° 0 min 0 W/m² 4,0 °C 5,8 °C 4,8 km/h (1 Bft)
08.01.2023 03:51 21,4 °C 5,8 °C 54 % 88 % 1007,7 hPa 0,0 l/m² 3,8 km/h (1 Bft) O-NO 76 ° 0 min 0 W/m² 4,0 °C 5,8 °C 4,8 km/h (1 Bft)
08.01.2023 03:53 21,4 °C 5,8 °C 54 % 88 % 1007,7 hPa 0,0 l/m² 3,4 km/h (1 Bft) O-SO 109 ° 0 min 0 W/m² 4,0 °C 5,8 °C 6,4 km/h (2 Bft)
08.01.2023 03:54 21,4 °C 5,8 °C 54 % 88 % 1007,8 hPa 0,0 l/m² 3,8 km/h (1 Bft) O-SO 109 ° 0 min 0 W/m² 4,0 °C 5,8 °C 4,8 km/h (1 Bft)
08.01.2023 03:56 21,4 °C 5,7 °C 54 % 88 % 1007,8 hPa 0,0 l/m² 5,8 km/h (2 Bft) O-SO 105 ° 0 min 0 W/m² 3,9 °C 5,7 °C 9,7 km/h (2 Bft)
08.01.2023 03:58 21,4 °C 5,8 °C 54 % 89 % 1007,8 hPa 0,0 l/m² 4,6 km/h (1 Bft) O-SO 102 ° 0 min 0 W/m² 4,1 °C 5,8 °C 6,4 km/h (2 Bft)
08.01.2023 04:00 21,4 °C 5,8 °C 54 % 89 % 1007,8 hPa 0,0 l/m² 4,9 km/h (1 Bft) O-SO 103 ° 0 min 0 W/m² 4,1 °C 5,8 °C 9,7 km/h (2 Bft)
08.01.2023 04:01 21,4 °C 5,8 °C 54 % 89 % 1007,8 hPa 0,0 l/m² 4,5 km/h (1 Bft) O 99 ° 0 min 0 W/m² 4,1 °C 5,8 °C 6,4 km/h (2 Bft)
08.01.2023 04:02 21,4 °C 5,8 °C 54 % 89 % 1007,8 hPa 0,0 l/m² 5,7 km/h (2 Bft) O 92 ° 0 min 0 W/m² 4,1 °C 5,8 °C 6,4 km/h (2 Bft)
08.01.2023 04:03 21,4 °C 5,8 °C 54 % 89 % 1007,8 hPa 0,0 l/m² 5,5 km/h (2 Bft) O 90 ° 0 min 0 W/m² 4,1 °C 5,8 °C 6,4 km/h (2 Bft)
08.01.2023 04:04 21,4 °C 5,8 °C 54 % 89 % 1007,7 hPa 0,0 l/m² 4,7 km/h (1 Bft) O 90 ° 0 min 0 W/m² 4,1 °C 5,8 °C 6,4 km/h (2 Bft)
08.01.2023 04:06 21,4 °C 5,9 °C 54 % 89 % 1007,8 hPa 0,0 l/m² 3,8 km/h (1 Bft) O 90 ° 0 min 0 W/m² 4,2 °C 5,9 °C 4,8 km/h (1 Bft)
08.01.2023 04:08 21,4 °C 5,9 °C 54 % 89 % 1007,8 hPa 0,0 l/m² 3,3 km/h (1 Bft) O 90 ° 0 min 0 W/m² 4,2 °C 5,9 °C 4,8 km/h (1 Bft)
08.01.2023 04:10 21,4 °C 5,9 °C 54 % 89 % 1007,8 hPa 0,0 l/m² 3,3 km/h (1 Bft) O 90 ° 0 min 0 W/m² 4,2 °C 5,9 °C 4,8 km/h (1 Bft)
08.01.2023 04:11 21,4 °C 5,9 °C 54 % 89 % 1007,8 hPa 0,0 l/m² 2,2 km/h (1 Bft) O 90 ° 0 min 0 W/m² 4,2 °C 5,9 °C 4,8 km/h (1 Bft)
08.01.2023 04:13 21,4 °C 5,9 °C 54 % 89 % 1007,8 hPa 0,0 l/m² 3,4 km/h (1 Bft) O 90 ° 0 min 0 W/m² 4,2 °C 5,9 °C 4,8 km/h (1 Bft)
08.01.2023 04:14 21,4 °C 5,9 °C 54 % 89 % 1007,6 hPa 0,0 l/m² 3,2 km/h (1 Bft) O 90 ° 0 min 0 W/m² 4,2 °C 5,9 °C 4,8 km/h (1 Bft)
08.01.2023 04:16 21,4 °C 6,0 °C 54 % 89 % 1007,7 hPa 0,0 l/m² 2,6 km/h (1 Bft) O 90 ° 0 min 0 W/m² 4,3 °C 6,0 °C 3,2 km/h (1 Bft)
08.01.2023 04:18 21,4 °C 6,0 °C 54 % 89 % 1007,6 hPa 0,0 l/m² 3,3 km/h (1 Bft) O 90 ° 0 min 0 W/m² 4,3 °C 6,0 °C 4,8 km/h (1 Bft)
08.01.2023 04:19 21,4 °C 6,0 °C 54 % 89 % 1007,6 hPa 0,0 l/m² 3,9 km/h (1 Bft) O 90 ° 0 min 0 W/m² 4,3 °C 6,0 °C 4,8 km/h (1 Bft)
08.01.2023 04:21 21,4 °C 6,0 °C 54 % 89 % 1007,7 hPa 0,0 l/m² 3,3 km/h (1 Bft) O 90 ° 0 min 0 W/m² 4,3 °C 6,0 °C 4,8 km/h (1 Bft)
08.01.2023 04:22 21,4 °C 6,0 °C 54 % 89 % 1007,8 hPa 0,0 l/m² 3,5 km/h (1 Bft) O 90 ° 0 min 0 W/m² 4,3 °C 6,0 °C 4,8 km/h (1 Bft)
08.01.2023 04:23 21,4 °C 6,0 °C 54 % 89 % 1007,7 hPa 0,0 l/m² 2,8 km/h (1 Bft) O 90 ° 0 min 0 W/m² 4,3 °C 6,0 °C 4,8 km/h (1 Bft)
08.01.2023 04:25 21,4 °C 6,1 °C 54 % 89 % 1007,7 hPa 0,0 l/m² 3,7 km/h (1 Bft) O 90 ° 0 min 0 W/m² 4,4 °C 6,1 °C 4,8 km/h (1 Bft)
08.01.2023 04:26 21,3 °C 6,1 °C 54 % 89 % 1007,8 hPa 0,0 l/m² 3,6 km/h (1 Bft) O 90 ° 0 min 0 W/m² 4,4 °C 6,1 °C 4,8 km/h (1 Bft)
08.01.2023 04:28 21,4 °C 6,1 °C 54 % 89 % 1007,7 hPa 0,0 l/m² 4,6 km/h (1 Bft) O 90 ° 0 min 0 W/m² 4,4 °C 6,1 °C 6,4 km/h (2 Bft)
08.01.2023 04:30 21,3 °C 6,1 °C 54 % 89 % 1007,7 hPa 0,0 l/m² 4,2 km/h (1 Bft) O 90 ° 0 min 0 W/m² 4,4 °C 6,1 °C 6,4 km/h (2 Bft)
08.01.2023 04:31 21,4 °C 6,1 °C 54 % 89 % 1007,6 hPa 0,0 l/m² 3,9 km/h (1 Bft) O 90 ° 0 min 0 W/m² 4,4 °C 6,1 °C 4,8 km/h (1 Bft)
08.01.2023 04:33 21,4 °C 6,2 °C 54 % 89 % 1007,6 hPa 0,0 l/m² 4,8 km/h (1 Bft) O 90 ° 0 min 0 W/m² 4,5 °C 6,2 °C 6,4 km/h (2 Bft)
08.01.2023 04:34 21,4 °C 6,2 °C 54 % 89 % 1007,5 hPa 0,0 l/m² 6,8 km/h (2 Bft) O 84 ° 0 min 0 W/m² 4,5 °C 5,9 °C 9,7 km/h (2 Bft)
08.01.2023 04:36 21,3 °C 6,2 °C 54 % 89 % 1007,4 hPa 0,0 l/m² 8,5 km/h (2 Bft) O 94 ° 0 min 0 W/m² 4,5 °C 4,5 °C 11,3 km/h (2 Bft)
08.01.2023 04:38 21,3 °C 6,3 °C 54 % 89 % 1007,5 hPa 0,0 l/m² 7,1 km/h (2 Bft) O-SO 105 ° 0 min 0 W/m² 4,6 °C 5,7 °C 9,7 km/h (2 Bft)
08.01.2023 04:39 21,3 °C 6,2 °C 54 % 89 % 1007,6 hPa 0,0 l/m² 9,4 km/h (2 Bft) O-SO 119 ° 0 min 0 W/m² 4,5 °C 3,8 °C 11,3 km/h (2 Bft)
08.01.2023 04:41 21,3 °C 6,3 °C 54 % 89 % 1007,5 hPa 0,0 l/m² 6,8 km/h (2 Bft) O-SO 113 ° 0 min 0 W/m² 4,6 °C 6,0 °C 11,3 km/h (2 Bft)
08.01.2023 04:42 21,4 °C 6,3 °C 54 % 88 % 1007,4 hPa 0,0 l/m² 7,9 km/h (2 Bft) O-SO 109 ° 0 min 0 W/m² 4,5 °C 5,0 °C 11,3 km/h (2 Bft)
08.01.2023 04:43 21,3 °C 6,3 °C 54 % 88 % 1007,5 hPa 0,0 l/m² 10,0 km/h (2 Bft) O-SO 107 ° 0 min 0 W/m² 4,5 °C 3,5 °C 12,9 km/h (3 Bft)
08.01.2023 04:45 21,3 °C 6,4 °C 54 % 88 % 1007,5 hPa 0,0 l/m² 7,3 km/h (2 Bft) O-SO 110 ° 0 min 0 W/m² 4,6 °C 5,6 °C 11,3 km/h (2 Bft)
08.01.2023 04:47 21,3 °C 6,5 °C 54 % 88 % 1007,5 hPa 0,0 l/m² 6,4 km/h (2 Bft) O-SO 102 ° 0 min 0 W/m² 4,7 °C 6,5 °C 9,7 km/h (2 Bft)
08.01.2023 04:48 21,4 °C 6,6 °C 54 % 88 % 1007,4 hPa 0,0 l/m² 7,4 km/h (2 Bft) O-SO 104 ° 0 min 0 W/m² 4,8 °C 5,8 °C 9,7 km/h (2 Bft)
08.01.2023 04:50 21,3 °C 6,6 °C 54 % 88 % 1007,4 hPa 0,0 l/m² 4,1 km/h (1 Bft) O-SO 109 ° 0 min 0 W/m² 4,8 °C 6,6 °C 6,4 km/h (2 Bft)
08.01.2023 04:51 21,3 °C 6,6 °C 54 % 88 % 1007,5 hPa 0,0 l/m² 4,8 km/h (1 Bft) O-SO 107 ° 0 min 0 W/m² 4,8 °C 6,6 °C 6,4 km/h (2 Bft)
08.01.2023 04:53 21,3 °C 6,7 °C 54 % 88 % 1007,4 hPa 0,0 l/m² 4,9 km/h (1 Bft) O-SO 111 ° 0 min 0 W/m² 4,9 °C 6,7 °C 6,4 km/h (2 Bft)
08.01.2023 04:54 21,3 °C 6,7 °C 54 % 88 % 1007,4 hPa 0,0 l/m² 6,6 km/h (2 Bft) O-SO 111 ° 0 min 0 W/m² 4,9 °C 6,6 °C 11,3 km/h (2 Bft)
08.01.2023 04:56 21,4 °C 6,8 °C 54 % 87 % 1007,4 hPa 0,0 l/m² 9,2 km/h (2 Bft) O-SO 106 ° 0 min 0 W/m² 4,8 °C 4,6 °C 12,9 km/h (3 Bft)
08.01.2023 04:58 21,3 °C 6,8 °C 54 % 87 % 1007,4 hPa 0,0 l/m² 7,5 km/h (2 Bft) O-SO 105 ° 0 min 0 W/m² 4,8 °C 5,9 °C 11,3 km/h (2 Bft)
08.01.2023 05:00 21,3 °C 6,9 °C 54 % 87 % 1007,4 hPa 0,0 l/m² 7,0 km/h (2 Bft) O-SO 110 ° 0 min 0 W/m² 4,9 °C 6,4 °C 9,7 km/h (2 Bft)
08.01.2023 05:01 21,4 °C 6,9 °C 54 % 87 % 1007,4 hPa 0,0 l/m² 7,1 km/h (2 Bft) O-SO 110 ° 0 min 0 W/m² 4,9 °C 6,3 °C 9,7 km/h (2 Bft)
08.01.2023 05:03 21,3 °C 6,9 °C 54 % 87 % 1007,4 hPa 0,0 l/m² 8,5 km/h (2 Bft) O-SO 106 ° 0 min 0 W/m² 4,9 °C 5,2 °C 12,9 km/h (3 Bft)
08.01.2023 05:04 21,3 °C 6,9 °C 54 % 87 % 1007,4 hPa 0,0 l/m² 5,9 km/h (2 Bft) O-SO 105 ° 0 min 0 W/m² 4,9 °C 6,9 °C 6,4 km/h (2 Bft)
08.01.2023 05:05 21,3 °C 6,9 °C 54 % 86 % 1007,4 hPa 0,0 l/m² 8,6 km/h (2 Bft) O-SO 115 ° 0 min 0 W/m² 4,7 °C 5,1 °C 11,3 km/h (2 Bft)
08.01.2023 05:07 21,3 °C 6,9 °C 54 % 86 % 1007,3 hPa 0,0 l/m² 6,0 km/h (2 Bft) O-SO 113 ° 0 min 0 W/m² 4,7 °C 6,9 °C 9,7 km/h (2 Bft)
08.01.2023 05:08 21,4 °C 6,9 °C 54 % 86 % 1007,3 hPa 0,0 l/m² 7,2 km/h (2 Bft) O 101 ° 0 min 0 W/m² 4,7 °C 6,2 °C 9,7 km/h (2 Bft)
08.01.2023 05:10 21,4 °C 6,9 °C 54 % 86 % 1007,3 hPa 0,0 l/m² 5,3 km/h (1 Bft) O-SO 108 ° 0 min 0 W/m² 4,7 °C 6,9 °C 9,7 km/h (2 Bft)
08.01.2023 05:11 21,3 °C 7,0 °C 54 % 86 % 1007,3 hPa 0,0 l/m² 6,1 km/h (2 Bft) O-SO 117 ° 0 min 0 W/m² 4,8 °C 7,0 °C 9,7 km/h (2 Bft)
08.01.2023 05:13 21,4 °C 7,0 °C 54 % 86 % 1007,2 hPa 0,0 l/m² 5,9 km/h (2 Bft) O-SO 112 ° 0 min 0 W/m² 4,8 °C 7,0 °C 9,7 km/h (2 Bft)
08.01.2023 05:14 21,3 °C 7,1 °C 54 % 86 % 1007,2 hPa 0,0 l/m² 7,6 km/h (2 Bft) O-SO 119 ° 0 min 0 W/m² 4,9 °C 6,1 °C 12,9 km/h (3 Bft)
08.01.2023 05:16 21,4 °C 7,1 °C 54 % 86 % 1007,3 hPa 0,0 l/m² 8,6 km/h (2 Bft) O-SO 114 ° 0 min 0 W/m² 4,9 °C 5,4 °C 12,9 km/h (3 Bft)
08.01.2023 05:18 21,4 °C 7,1 °C 54 % 86 % 1007,3 hPa 0,0 l/m² 9,2 km/h (2 Bft) SO 132 ° 0 min 0 W/m² 4,9 °C 4,9 °C 12,9 km/h (3 Bft)
08.01.2023 05:20 21,4 °C 7,1 °C 54 % 86 % 1007,3 hPa 0,0 l/m² 9,1 km/h (2 Bft) SO 130 ° 0 min 0 W/m² 4,9 °C 5,0 °C 14,5 km/h (3 Bft)
08.01.2023 05:21 21,4 °C 7,1 °C 54 % 86 % 1007,2 hPa 0,0 l/m² 10,1 km/h (2 Bft) SO 126 ° 0 min 0 W/m² 4,9 °C 4,3 °C 14,5 km/h (3 Bft)
08.01.2023 05:23 21,4 °C 7,2 °C 53 % 86 % 1007,2 hPa 0,0 l/m² 11,0 km/h (2 Bft) SO 128 ° 0 min 0 W/m² 5,0 °C 3,9 °C 16,1 km/h (3 Bft)
08.01.2023 05:24 21,4 °C 7,2 °C 54 % 86 % 1007,2 hPa 0,0 l/m² 9,3 km/h (2 Bft) SO 136 ° 0 min 0 W/m² 5,0 °C 5,0 °C 14,5 km/h (3 Bft)
08.01.2023 05:26 21,4 °C 7,3 °C 53 % 86 % 1007,3 hPa 0,0 l/m² 10,5 km/h (2 Bft) SO 146 ° 0 min 0 W/m² 5,1 °C 4,3 °C 14,5 km/h (3 Bft)
08.01.2023 05:28 21,4 °C 7,4 °C 53 % 86 % 1007,3 hPa 0,0 l/m² 9,9 km/h (2 Bft) SO 125 ° 0 min 0 W/m² 5,2 °C 4,8 °C 14,5 km/h (3 Bft)
08.01.2023 05:30 21,4 °C 7,4 °C 53 % 85 % 1007,1 hPa 0,0 l/m² 5,2 km/h (1 Bft) SO 134 ° 0 min 0 W/m² 5,0 °C 7,4 °C 8,0 km/h (2 Bft)
08.01.2023 05:31 21,4 °C 7,5 °C 53 % 85 % 1007,2 hPa 0,0 l/m² 8,4 km/h (2 Bft) SO 136 ° 0 min 0 W/m² 5,1 °C 5,9 °C 12,9 km/h (3 Bft)
08.01.2023 05:33 21,4 °C 7,6 °C 53 % 85 % 1007,2 hPa 0,0 l/m² 6,0 km/h (2 Bft) O-SO 121 ° 0 min 0 W/m² 5,2 °C 7,6 °C 11,3 km/h (2 Bft)
08.01.2023 05:34 21,4 °C 7,6 °C 53 % 85 % 1007,1 hPa 0,0 l/m² 7,2 km/h (2 Bft) SO 126 ° 0 min 0 W/m² 5,2 °C 7,0 °C 9,7 km/h (2 Bft)
08.01.2023 05:36 21,4 °C 7,6 °C 53 % 85 % 1007,1 hPa 0,0 l/m² 7,4 km/h (2 Bft) SO 128 ° 0 min 0 W/m² 5,2 °C 6,8 °C 14,5 km/h (3 Bft)
08.01.2023 05:38 21,4 °C 7,6 °C 53 % 84 % 1007,1 hPa 0,0 l/m² 5,7 km/h (2 Bft) O-SO 111 ° 0 min 0 W/m² 5,1 °C 7,6 °C 8,0 km/h (2 Bft)
08.01.2023 05:40 21,4 °C 7,7 °C 53 % 84 % 1007,1 hPa 0,0 l/m² 5,8 km/h (2 Bft) SO 130 ° 0 min 0 W/m² 5,2 °C 7,7 °C 8,0 km/h (2 Bft)
08.01.2023 05:41 21,4 °C 7,7 °C 53 % 84 % 1007,1 hPa 0,0 l/m² 4,1 km/h (1 Bft) SO 130 ° 0 min 0 W/m² 5,2 °C 7,7 °C 6,4 km/h (2 Bft)
08.01.2023 05:43 21,4 °C 7,7 °C 53 % 84 % 1007,1 hPa 0,0 l/m² 5,4 km/h (2 Bft) SO 141 ° 0 min 0 W/m² 5,2 °C 7,7 °C 8,0 km/h (2 Bft)
08.01.2023 05:44 21,4 °C 7,7 °C 53 % 84 % 1007,1 hPa 0,0 l/m² 4,0 km/h (1 Bft) SO 142 ° 0 min 0 W/m² 5,2 °C 7,7 °C 6,4 km/h (2 Bft)
08.01.2023 05:46 21,4 °C 7,7 °C 53 % 84 % 1007,0 hPa 0,0 l/m² 6,4 km/h (2 Bft) SO 140 ° 0 min 0 W/m² 5,2 °C 7,7 °C 11,3 km/h (2 Bft)
08.01.2023 05:48 21,4 °C 7,8 °C 53 % 84 % 1007,0 hPa 0,0 l/m² 5,5 km/h (2 Bft) O-SO 117 ° 0 min 0 W/m² 5,3 °C 7,8 °C 9,7 km/h (2 Bft)
08.01.2023 05:50 21,4 °C 7,8 °C 53 % 84 % 1007,0 hPa 0,0 l/m² 5,2 km/h (1 Bft) SO 128 ° 0 min 0 W/m² 5,3 °C 7,8 °C 8,0 km/h (2 Bft)
08.01.2023 05:51 21,4 °C 7,8 °C 53 % 84 % 1007,0 hPa 0,0 l/m² 3,6 km/h (1 Bft) SO 136 ° 0 min 0 W/m² 5,3 °C 7,8 °C 4,8 km/h (1 Bft)
08.01.2023 05:53 21,4 °C 7,8 °C 53 % 84 % 1007,0 hPa 0,0 l/m² 4,5 km/h (1 Bft) SO 138 ° 0 min 0 W/m² 5,3 °C 7,8 °C 6,4 km/h (2 Bft)
08.01.2023 05:54 21,4 °C 7,8 °C 53 % 84 % 1007,0 hPa 0,0 l/m² 5,0 km/h (1 Bft) SO 142 ° 0 min 0 W/m² 5,3 °C 7,8 °C 8,0 km/h (2 Bft)
08.01.2023 05:55 21,4 °C 7,8 °C 53 % 84 % 1007,0 hPa 0,0 l/m² 2,8 km/h (1 Bft) SO 142 ° 0 min 0 W/m² 5,3 °C 7,8 °C 4,8 km/h (1 Bft)
08.01.2023 05:57 21,4 °C 7,8 °C 53 % 84 % 1007,0 hPa 0,0 l/m² 3,6 km/h (1 Bft) SO 144 ° 0 min 0 W/m² 5,3 °C 7,8 °C 6,4 km/h (2 Bft)
08.01.2023 05:59 21,4 °C 7,8 °C 53 % 84 % 1007,0 hPa 0,0 l/m² 3,3 km/h (1 Bft) S-SO 158 ° 0 min 0 W/m² 5,3 °C 7,8 °C 8,0 km/h (2 Bft)
08.01.2023 06:01 21,4 °C 7,8 °C 53 % 84 % 1007,0 hPa 0,0 l/m² 3,2 km/h (1 Bft) S-SO 158 ° 0 min 0 W/m² 5,3 °C 7,8 °C 4,8 km/h (1 Bft)
08.01.2023 06:02 21,4 °C 7,9 °C 53 % 84 % 1006,9 hPa 0,0 l/m² 5,5 km/h (2 Bft) S-SO 157 ° 0 min 0 W/m² 5,4 °C 7,9 °C 9,7 km/h (2 Bft)
08.01.2023 06:03 21,4 °C 7,9 °C 53 % 84 % 1007,0 hPa 0,0 l/m² 6,5 km/h (2 Bft) S-SO 149 ° 0 min 0 W/m² 5,4 °C 7,8 °C 8,0 km/h (2 Bft)
08.01.2023 06:05 21,4 °C 7,9 °C 53 % 85 % 1006,8 hPa 0,0 l/m² 6,8 km/h (2 Bft) S 171 ° 0 min 0 W/m² 5,5 °C 7,6 °C 11,3 km/h (2 Bft)
08.01.2023 06:07 21,4 °C 7,9 °C 53 % 85 % 1006,8 hPa 0,0 l/m² 7,7 km/h (2 Bft) S-SO 163 ° 0 min 0 W/m² 5,5 °C 6,9 °C 11,3 km/h (2 Bft)
08.01.2023 06:08 21,4 °C 7,9 °C 53 % 85 % 1006,8 hPa 0,0 l/m² 6,6 km/h (2 Bft) S-SO 163 ° 0 min 0 W/m² 5,5 °C 7,8 °C 8,0 km/h (2 Bft)
08.01.2023 06:10 21,4 °C 8,0 °C 53 % 85 % 1006,9 hPa 0,0 l/m² 5,9 km/h (2 Bft) S-SO 164 ° 0 min 0 W/m² 5,6 °C 8,0 °C 8,0 km/h (2 Bft)
08.01.2023 06:11 21,4 °C 8,0 °C 53 % 85 % 1006,9 hPa 0,0 l/m² 9,1 km/h (2 Bft) S-SO 161 ° 0 min 0 W/m² 5,6 °C 6,0 °C 11,3 km/h (2 Bft)
08.01.2023 06:13 21,4 °C 8,0 °C 53 % 85 % 1006,8 hPa 0,0 l/m² 7,4 km/h (2 Bft) SO 145 ° 0 min 0 W/m² 5,6 °C 7,2 °C 9,7 km/h (2 Bft)
08.01.2023 06:14 21,4 °C 8,0 °C 53 % 85 % 1006,9 hPa 0,0 l/m² 8,6 km/h (2 Bft) S-SO 155 ° 0 min 0 W/m² 5,6 °C 6,3 °C 9,7 km/h (2 Bft)
08.01.2023 06:16 21,4 °C 8,1 °C 53 % 84 % 1006,9 hPa 0,0 l/m² 8,1 km/h (2 Bft) S-SO 158 ° 0 min 0 W/m² 5,6 °C 6,8 °C 9,7 km/h (2 Bft)
08.01.2023 06:18 21,4 °C 8,1 °C 53 % 84 % 1006,9 hPa 0,0 l/m² 7,8 km/h (2 Bft) S-SO 161 ° 0 min 0 W/m² 5,6 °C 7,0 °C 9,7 km/h (2 Bft)
08.01.2023 06:20 21,4 °C 8,1 °C 53 % 84 % 1006,9 hPa 0,0 l/m² 5,8 km/h (2 Bft) S-SO 158 ° 0 min 0 W/m² 5,6 °C 8,1 °C 8,0 km/h (2 Bft)
08.01.2023 06:21 21,4 °C 8,1 °C 53 % 84 % 1006,7 hPa 0,0 l/m² 7,5 km/h (2 Bft) S-SO 162 ° 0 min 0 W/m² 5,6 °C 7,2 °C 9,7 km/h (2 Bft)
08.01.2023 06:23 21,4 °C 8,1 °C 53 % 84 % 1006,7 hPa 0,0 l/m² 5,6 km/h (2 Bft) S-SO 150 ° 0 min 0 W/m² 5,6 °C 8,1 °C 8,0 km/h (2 Bft)
08.01.2023 06:24 21,4 °C 8,1 °C 53 % 84 % 1006,7 hPa 0,0 l/m² 4,0 km/h (1 Bft) S-SO 150 ° 0 min 0 W/m² 5,6 °C 8,1 °C 4,8 km/h (1 Bft)
08.01.2023 06:26 21,4 °C 8,1 °C 53 % 84 % 1006,5 hPa 0,0 l/m² 4,0 km/h (1 Bft) O-SO 121 ° 0 min 0 W/m² 5,6 °C 8,1 °C 4,8 km/h (1 Bft)
08.01.2023 06:28 21,4 °C 8,1 °C 53 % 84 % 1006,5 hPa 0,0 l/m² 3,3 km/h (1 Bft) O-SO 121 ° 0 min 0 W/m² 5,6 °C 8,1 °C 4,8 km/h (1 Bft)
08.01.2023 06:29 21,4 °C 8,1 °C 53 % 84 % 1006,7 hPa 0,0 l/m² 3,3 km/h (1 Bft) O-SO 121 ° 0 min 0 W/m² 5,6 °C 8,1 °C 4,8 km/h (1 Bft)
08.01.2023 06:31 21,4 °C 8,1 °C 53 % 84 % 1006,6 hPa 0,0 l/m² 5,2 km/h (1 Bft) S-SO 153 ° 0 min 0 W/m² 5,6 °C 8,1 °C 8,0 km/h (2 Bft)
08.01.2023 06:32 21,4 °C 8,1 °C 53 % 84 % 1006,6 hPa 0,0 l/m² 6,6 km/h (2 Bft) S-SO 148 ° 0 min 0 W/m² 5,6 °C 8,0 °C 8,0 km/h (2 Bft)
08.01.2023 06:33 21,4 °C 8,1 °C 53 % 84 % 1006,6 hPa 0,0 l/m² 8,6 km/h (2 Bft) S-SO 157 ° 0 min 0 W/m² 5,6 °C 6,4 °C 11,3 km/h (2 Bft)
08.01.2023 06:35 21,4 °C 8,1 °C 53 % 84 % 1006,6 hPa 0,0 l/m² 8,9 km/h (2 Bft) S-SO 157 ° 0 min 0 W/m² 5,6 °C 6,2 °C 11,3 km/h (2 Bft)
08.01.2023 06:37 21,4 °C 8,1 °C 53 % 84 % 1006,7 hPa 0,0 l/m² 8,6 km/h (2 Bft) S-SO 154 ° 0 min 0 W/m² 5,6 °C 6,4 °C 14,5 km/h (3 Bft)
08.01.2023 06:39 21,4 °C 8,1 °C 53 % 85 % 1006,5 hPa 0,0 l/m² 9,4 km/h (2 Bft) S 173 ° 0 min 0 W/m² 5,7 °C 5,9 °C 14,5 km/h (3 Bft)
08.01.2023 06:41 21,4 °C 8,1 °C 53 % 85 % 1006,5 hPa 0,0 l/m² 9,4 km/h (2 Bft) S 172 ° 0 min 0 W/m² 5,7 °C 5,9 °C 16,1 km/h (3 Bft)
08.01.2023 06:42 21,4 °C 8,1 °C 53 % 85 % 1006,6 hPa 0,0 l/m² 9,1 km/h (2 Bft) S 171 ° 0 min 0 W/m² 5,7 °C 6,1 °C 14,5 km/h (3 Bft)
08.01.2023 06:43 21,4 °C 8,1 °C 53 % 85 % 1006,6 hPa 0,0 l/m² 9,6 km/h (2 Bft) S-SO 165 ° 0 min 0 W/m² 5,7 °C 5,8 °C 12,9 km/h (3 Bft)
08.01.2023 06:45 21,4 °C 8,1 °C 53 % 85 % 1006,5 hPa 0,0 l/m² 10,6 km/h (2 Bft) S-SO 159 ° 0 min 0 W/m² 5,7 °C 5,1 °C 16,1 km/h (3 Bft)
08.01.2023 06:46 21,4 °C 8,1 °C 53 % 85 % 1006,5 hPa 0,0 l/m² 9,0 km/h (2 Bft) S 173 ° 0 min 0 W/m² 5,7 °C 6,1 °C 14,5 km/h (3 Bft)
08.01.2023 06:47 21,4 °C 8,1 °C 53 % 85 % 1006,5 hPa 0,0 l/m² 8,6 km/h (2 Bft) S-SO 164 ° 0 min 0 W/m² 5,7 °C 6,4 °C 9,7 km/h (2 Bft)
08.01.2023 06:48 21,4 °C 8,1 °C 53 % 85 % 1006,5 hPa 0,0 l/m² 6,9 km/h (2 Bft) S-SO 163 ° 0 min 0 W/m² 5,7 °C 7,7 °C 9,7 km/h (2 Bft)
08.01.2023 06:50 21,4 °C 8,1 °C 53 % 85 % 1006,5 hPa 0,0 l/m² 7,7 km/h (2 Bft) S 181 ° 0 min 0 W/m² 5,7 °C 7,1 °C 11,3 km/h (2 Bft)
08.01.2023 06:51 21,4 °C 8,1 °C 53 % 85 % 1006,5 hPa 0,0 l/m² 8,4 km/h (2 Bft) S-SO 165 ° 0 min 0 W/m² 5,7 °C 6,6 °C 12,9 km/h (3 Bft)
08.01.2023 06:53 21,4 °C 8,1 °C 53 % 85 % 1006,5 hPa 0,0 l/m² 5,6 km/h (2 Bft) S 182 ° 0 min 0 W/m² 5,7 °C 8,1 °C 8,0 km/h (2 Bft)
08.01.2023 06:54 21,4 °C 8,1 °C 53 % 85 % 1006,5 hPa 0,0 l/m² 10,9 km/h (2 Bft) S 182 ° 0 min 0 W/m² 5,7 °C 4,9 °C 14,5 km/h (3 Bft)
08.01.2023 06:56 21,4 °C 8,2 °C 53 % 85 % 1006,5 hPa 0,0 l/m² 12,0 km/h (2 Bft) S-SO 160 ° 0 min 0 W/m² 5,8 °C 4,4 °C 17,7 km/h (3 Bft)
08.01.2023 06:58 21,4 °C 8,2 °C 53 % 85 % 1006,5 hPa 0,0 l/m² 12,3 km/h (2 Bft) S 188 ° 0 min 0 W/m² 5,8 °C 4,3 °C 17,7 km/h (3 Bft)
08.01.2023 07:00 21,4 °C 8,2 °C 53 % 85 % 1006,6 hPa 0,0 l/m² 11,8 km/h (2 Bft) S 183 ° 0 min 0 W/m² 5,8 °C 4,6 °C 17,7 km/h (3 Bft)
08.01.2023 07:01 21,4 °C 8,2 °C 53 % 85 % 1006,6 hPa 0,0 l/m² 13,3 km/h (3 Bft) S 183 ° 0 min 0 W/m² 5,8 °C 3,8 °C 17,7 km/h (3 Bft)
08.01.2023 07:03 21,4 °C 8,3 °C 53 % 85 % 1006,6 hPa 0,0 l/m² 12,9 km/h (3 Bft) S 174 ° 0 min 0 W/m² 5,9 °C 4,1 °C 19,3 km/h (3 Bft)
08.01.2023 07:04 21,4 °C 8,3 °C 53 % 85 % 1006,5 hPa 0,0 l/m² 10,1 km/h (2 Bft) S 177 ° 0 min 0 W/m² 5,9 °C 5,7 °C 14,5 km/h (3 Bft)
08.01.2023 07:06 21,4 °C 8,3 °C 53 % 85 % 1006,6 hPa 0,0 l/m² 10,0 km/h (2 Bft) S 191 ° 0 min 0 W/m² 5,9 °C 5,7 °C 12,9 km/h (3 Bft)
08.01.2023 07:08 21,4 °C 8,3 °C 53 % 85 % 1006,6 hPa 0,0 l/m² 10,8 km/h (2 Bft) S 190 ° 0 min 0 W/m² 5,9 °C 5,2 °C 14,5 km/h (3 Bft)
08.01.2023 07:10 21,4 °C 8,3 °C 53 % 85 % 1006,6 hPa 0,0 l/m² 10,0 km/h (2 Bft) S 184 ° 0 min 0 W/m² 5,9 °C 5,7 °C 16,1 km/h (3 Bft)
08.01.2023 07:11 21,4 °C 8,3 °C 53 % 85 % 1006,6 hPa 0,0 l/m² 11,1 km/h (2 Bft) S 184 ° 0 min 0 W/m² 5,9 °C 5,1 °C 14,5 km/h (3 Bft)
08.01.2023 07:13 21,4 °C 8,3 °C 53 % 85 % 1006,6 hPa 0,0 l/m² 10,3 km/h (2 Bft) S 174 ° 0 min 0 W/m² 5,9 °C 5,5 °C 12,9 km/h (3 Bft)
08.01.2023 07:14 21,4 °C 8,3 °C 53 % 85 % 1006,7 hPa 0,0 l/m² 10,3 km/h (2 Bft) S 173 ° 0 min 0 W/m² 5,9 °C 5,5 °C 14,5 km/h (3 Bft)
08.01.2023 07:16 21,4 °C 8,3 °C 53 % 85 % 1006,7 hPa 0,0 l/m² 11,2 km/h (2 Bft) S 182 ° 0 min 0 W/m² 5,9 °C 5,0 °C 14,5 km/h (3 Bft)
08.01.2023 07:18 21,4 °C 8,3 °C 53 % 85 % 1006,7 hPa 0,0 l/m² 10,7 km/h (2 Bft) S-SO 165 ° 0 min 0 W/m² 5,9 °C 5,3 °C 16,1 km/h (3 Bft)
08.01.2023 07:20 21,4 °C 8,3 °C 53 % 85 % 1006,8 hPa 0,0 l/m² 10,9 km/h (2 Bft) S 186 ° 0 min 0 W/m² 5,9 °C 5,2 °C 14,5 km/h (3 Bft)
08.01.2023 07:21 21,4 °C 8,3 °C 53 % 85 % 1006,8 hPa 0,0 l/m² 11,5 km/h (2 Bft) S 179 ° 0 min 0 W/m² 5,9 °C 4,8 °C 14,5 km/h (3 Bft)
08.01.2023 07:23 21,4 °C 8,3 °C 53 % 85 % 1006,8 hPa 0,0 l/m² 10,5 km/h (2 Bft) S 184 ° 0 min 0 W/m² 5,9 °C 5,4 °C 14,5 km/h (3 Bft)
08.01.2023 07:24 21,4 °C 8,3 °C 53 % 85 % 1006,7 hPa 0,0 l/m² 10,1 km/h (2 Bft) S 188 ° 0 min 0 W/m² 5,9 °C 5,7 °C 12,9 km/h (3 Bft)
08.01.2023 07:26 21,4 °C 8,3 °C 53 % 85 % 1006,7 hPa 0,0 l/m² 8,2 km/h (2 Bft) S 184 ° 0 min 0 W/m² 5,9 °C 6,9 °C 11,3 km/h (2 Bft)
08.01.2023 07:28 21,4 °C 8,4 °C 53 % 85 % 1006,7 hPa 0,0 l/m² 6,6 km/h (2 Bft) S 190 ° 0 min 0 W/m² 6,0 °C 8,3 °C 11,3 km/h (2 Bft)
08.01.2023 07:30 21,4 °C 8,4 °C 53 % 85 % 1006,7 hPa 0,0 l/m² 4,8 km/h (1 Bft) S 190 ° 0 min 0 W/m² 6,0 °C 8,4 °C 6,4 km/h (2 Bft)
08.01.2023 07:31 21,4 °C 8,4 °C 53 % 85 % 1006,7 hPa 0,0 l/m² 4,9 km/h (1 Bft) S 190 ° 0 min 0 W/m² 6,0 °C 8,4 °C 6,4 km/h (2 Bft)
08.01.2023 07:33 21,4 °C 8,4 °C 53 % 85 % 1006,7 hPa 0,0 l/m² 2,6 km/h (1 Bft) S 190 ° 0 min 0 W/m² 6,0 °C 8,4 °C 4,8 km/h (1 Bft)
08.01.2023 07:35 21,4 °C 8,4 °C 53 % 85 % 1006,6 hPa 0,0 l/m² 1,5 km/h (1 Bft) S 190 ° 0 min 0 W/m² 6,0 °C 8,4 °C 3,2 km/h (1 Bft)
08.01.2023 07:37 21,4 °C 8,5 °C 53 % 85 % 1006,6 hPa 0,0 l/m² 1,9 km/h (1 Bft) S 190 ° 0 min 0 W/m² 6,1 °C 8,5 °C 3,2 km/h (1 Bft)
08.01.2023 07:38 21,4 °C 8,4 °C 53 % 85 % 1006,6 hPa 0,0 l/m² 1,0 km/h (0 Bft) S 190 ° 0 min 0 W/m² 6,0 °C 8,4 °C 1,6 km/h (1 Bft)
08.01.2023 07:40 21,4 °C 8,5 °C 53 % 85 % 1006,7 hPa 0,0 l/m² 2,7 km/h (1 Bft) S 181 ° 0 min 0 W/m² 6,1 °C 8,5 °C 4,8 km/h (1 Bft)
08.01.2023 07:41 21,4 °C 8,4 °C 53 % 85 % 1006,7 hPa 0,0 l/m² 4,4 km/h (1 Bft) S-SO 166 ° 0 min 0 W/m² 6,0 °C 8,4 °C 6,4 km/h (2 Bft)
08.01.2023 07:43 21,4 °C 8,5 °C 53 % 85 % 1006,7 hPa 0,0 l/m² 2,5 km/h (1 Bft) S-SO 166 ° 0 min 0 W/m² 6,1 °C 8,5 °C 4,8 km/h (1 Bft)
08.01.2023 07:44 21,4 °C 8,4 °C 53 % 85 % 1006,7 hPa 0,0 l/m² 5,3 km/h (1 Bft) S-SO 166 ° 0 min 0 W/m² 6,0 °C 8,4 °C 8,0 km/h (2 Bft)
08.01.2023 07:46 21,4 °C 8,5 °C 53 % 85 % 1006,7 hPa 0,0 l/m² 5,7 km/h (2 Bft) S-SO 165 ° 0 min 0 W/m² 6,1 °C 8,5 °C 8,0 km/h (2 Bft)
08.01.2023 07:48 21,4 °C 8,5 °C 53 % 85 % 1006,7 hPa 0,0 l/m² 5,8 km/h (2 Bft) S-SO 163 ° 0 min 0 W/m² 6,1 °C 8,5 °C 9,7 km/h (2 Bft)
08.01.2023 07:50 21,4 °C 8,5 °C 53 % 85 % 1006,8 hPa 0,0 l/m² 7,6 km/h (2 Bft) S 172 ° 0 min 0 W/m² 6,1 °C 7,6 °C 9,7 km/h (2 Bft)
08.01.2023 07:51 21,4 °C 8,5 °C 53 % 85 % 1006,8 hPa 0,0 l/m² 7,0 km/h (2 Bft) S 176 ° 0 min 0 W/m² 6,1 °C 8,0 °C 8,0 km/h (2 Bft)
08.01.2023 07:53 21,4 °C 8,5 °C 53 % 85 % 1006,8 hPa 0,0 l/m² 6,4 km/h (2 Bft) S 180 ° 0 min 0 W/m² 6,1 °C 8,5 °C 9,7 km/h (2 Bft)
08.01.2023 07:54 21,4 °C 8,5 °C 53 % 85 % 1006,7 hPa 0,0 l/m² 8,0 km/h (2 Bft) S 173 ° 0 min 0 W/m² 6,1 °C 7,3 °C 9,7 km/h (2 Bft)
08.01.2023 07:56 21,4 °C 8,5 °C 53 % 85 % 1006,7 hPa 0,0 l/m² 7,6 km/h (2 Bft) S-SO 165 ° 0 min 0 W/m² 6,1 °C 7,6 °C 9,7 km/h (2 Bft)
08.01.2023 07:58 21,4 °C 8,5 °C 53 % 85 % 1006,8 hPa 0,0 l/m² 7,3 km/h (2 Bft) S 169 ° 0 min 0 W/m² 6,1 °C 7,8 °C 9,7 km/h (2 Bft)
08.01.2023 08:00 21,4 °C 8,5 °C 53 % 85 % 1006,8 hPa 0,0 l/m² 9,7 km/h (2 Bft) S 175 ° 0 min 0 W/m² 6,1 °C 6,1 °C 12,9 km/h (3 Bft)
08.01.2023 08:01 21,4 °C 8,6 °C 53 % 85 % 1006,8 hPa 0,0 l/m² 7,4 km/h (2 Bft) S 176 ° 0 min 0 W/m² 6,2 °C 7,8 °C 11,3 km/h (2 Bft)
08.01.2023 08:03 21,4 °C 8,5 °C 53 % 85 % 1006,7 hPa 0,0 l/m² 7,2 km/h (2 Bft) S-SO 168 ° 0 min 0 W/m² 6,1 °C 7,9 °C 12,9 km/h (3 Bft)
08.01.2023 08:04 21,4 °C 8,6 °C 53 % 85 % 1006,7 hPa 0,0 l/m² 5,8 km/h (2 Bft) S-SO 168 ° 0 min 0 W/m² 6,2 °C 8,6 °C 8,0 km/h (2 Bft)
08.01.2023 08:06 21,4 °C 8,5 °C 53 % 85 % 1006,7 hPa 0,0 l/m² 5,3 km/h (1 Bft) S 178 ° 0 min 0 W/m² 6,1 °C 8,5 °C 8,0 km/h (2 Bft)
08.01.2023 08:08 21,4 °C 8,5 °C 53 % 85 % 1006,6 hPa 0,0 l/m² 4,3 km/h (1 Bft) S 169 ° 0 min 0 W/m² 6,1 °C 8,5 °C 8,0 km/h (2 Bft)
08.01.2023 08:10 21,4 °C 8,6 °C 53 % 85 % 1006,6 hPa 0,0 l/m² 5,2 km/h (1 Bft) S 169 ° 0 min 0 W/m² 6,2 °C 8,6 °C 8,0 km/h (2 Bft)
08.01.2023 08:11 21,4 °C 8,6 °C 53 % 85 % 1006,7 hPa 0,0 l/m² 7,4 km/h (2 Bft) S 170 ° 0 min 0 W/m² 6,2 °C 7,8 °C 9,7 km/h (2 Bft)
08.01.2023 08:13 21,4 °C 8,6 °C 53 % 85 % 1006,7 hPa 0,0 l/m² 8,8 km/h (2 Bft) S 182 ° 0 min 0 W/m² 6,2 °C 6,8 °C 12,9 km/h (3 Bft)
08.01.2023 08:14 21,4 °C 8,6 °C 53 % 85 % 1006,8 hPa 0,0 l/m² 9,2 km/h (2 Bft) S 178 ° 0 min 0 W/m² 6,2 °C 6,6 °C 12,9 km/h (3 Bft)
08.01.2023 08:16 21,4 °C 8,6 °C 53 % 85 % 1006,8 hPa 0,0 l/m² 9,6 km/h (2 Bft) S 188 ° 0 min 0 W/m² 6,2 °C 6,3 °C 17,7 km/h (3 Bft)
08.01.2023 08:18 21,3 °C 8,6 °C 53 % 85 % 1006,7 hPa 0,0 l/m² 9,5 km/h (2 Bft) S 190 ° 0 min 0 W/m² 6,2 °C 6,4 °C 12,9 km/h (3 Bft)
08.01.2023 08:20 21,3 °C 8,6 °C 53 % 85 % 1006,7 hPa 0,0 l/m² 9,1 km/h (2 Bft) S 175 ° 0 min 0 W/m² 6,2 °C 6,6 °C 14,5 km/h (3 Bft)
08.01.2023 08:21 21,4 °C 8,6 °C 53 % 85 % 1006,6 hPa 0,0 l/m² 6,4 km/h (2 Bft) S 173 ° 0 min 0 W/m² 6,2 °C 8,6 °C 9,7 km/h (2 Bft)
08.01.2023 08:22 21,3 °C 8,6 °C 53 % 85 % 1006,6 hPa 0,0 l/m² 8,6 km/h (2 Bft) S 171 ° 0 min 0 W/m² 6,2 °C 7,0 °C 9,7 km/h (2 Bft)
08.01.2023 08:23 21,3 °C 8,6 °C 53 % 85 % 1006,6 hPa 0,0 l/m² 7,8 km/h (2 Bft) S-SW 192 ° 0 min 0 W/m² 6,2 °C 7,5 °C 11,3 km/h (2 Bft)
08.01.2023 08:24 21,3 °C 8,6 °C 53 % 85 % 1006,6 hPa 0,0 l/m² 8,2 km/h (2 Bft) S-SO 164 ° 0 min 0 W/m² 6,2 °C 7,2 °C 11,3 km/h (2 Bft)
08.01.2023 08:26 21,3 °C 8,6 °C 53 % 85 % 1006,5 hPa 0,0 l/m² 8,2 km/h (2 Bft) S-SO 168 ° 0 min 0 W/m² 6,2 °C 7,2 °C 11,3 km/h (2 Bft)
08.01.2023 08:28 21,3 °C 8,6 °C 53 % 85 % 1006,5 hPa 0,0 l/m² 7,3 km/h (2 Bft) S-SO 148 ° 0 min 0 W/m² 6,2 °C 7,9 °C 9,7 km/h (2 Bft)
08.01.2023 08:30 21,3 °C 8,6 °C 53 % 85 % 1006,4 hPa 0,0 l/m² 9,4 km/h (2 Bft) S 177 ° 0 min 0 W/m² 6,2 °C 6,4 °C 14,5 km/h (3 Bft)
08.01.2023 08:31 21,3 °C 8,6 °C 53 % 85 % 1006,4 hPa 0,0 l/m² 8,7 km/h (2 Bft) S-SO 156 ° 0 min 0 W/m² 6,2 °C 6,9 °C 11,3 km/h (2 Bft)
08.01.2023 08:32 21,3 °C 8,7 °C 53 % 85 % 1006,4 hPa 0,0 l/m² 9,6 km/h (2 Bft) S 169 ° 0 min 0 W/m² 6,3 °C 6,4 °C 12,9 km/h (3 Bft)
08.01.2023 08:33 21,3 °C 8,6 °C 53 % 85 % 1006,4 hPa 0,0 l/m² 8,1 km/h (2 Bft) S 169 ° 0 min 0 W/m² 6,2 °C 7,3 °C 9,7 km/h (2 Bft)
08.01.2023 08:34 21,3 °C 8,6 °C 53 % 85 % 1006,3 hPa 0,0 l/m² 7,9 km/h (2 Bft) SO 144 ° 0 min 5 W/m² 6,2 °C 7,5 °C 11,3 km/h (2 Bft)
08.01.2023 08:36 21,3 °C 8,6 °C 53 % 85 % 1006,5 hPa 0,0 l/m² 9,2 km/h (2 Bft) S-SO 161 ° 0 min 5 W/m² 6,2 °C 6,6 °C 12,9 km/h (3 Bft)
08.01.2023 08:38 21,3 °C 8,6 °C 53 % 85 % 1006,2 hPa 0,0 l/m² 9,2 km/h (2 Bft) S-SO 147 ° 0 min 5 W/m² 6,2 °C 6,6 °C 14,5 km/h (3 Bft)
08.01.2023 08:40 21,3 °C 8,6 °C 53 % 85 % 1006,1 hPa 0,0 l/m² 9,1 km/h (2 Bft) SO 146 ° 0 min 7 W/m² 6,2 °C 6,6 °C 14,5 km/h (3 Bft)
08.01.2023 08:41 21,3 °C 8,6 °C 53 % 85 % 1006,3 hPa 0,0 l/m² 9,8 km/h (2 Bft) S-SO 158 ° 0 min 7 W/m² 6,2 °C 6,2 °C 12,9 km/h (3 Bft)
08.01.2023 08:42 21,3 °C 8,6 °C 53 % 85 % 1006,3 hPa 0,0 l/m² 9,3 km/h (2 Bft) S-SO 156 ° 0 min 9 W/m² 6,2 °C 6,5 °C 12,9 km/h (3 Bft)
08.01.2023 08:44 21,3 °C 8,6 °C 53 % 85 % 1006,3 hPa 0,0 l/m² 10,5 km/h (2 Bft) S-SO 157 ° 0 min 9 W/m² 6,2 °C 5,7 °C 14,5 km/h (3 Bft)
08.01.2023 08:46 21,3 °C 8,6 °C 53 % 85 % 1006,5 hPa 0,0 l/m² 13,1 km/h (3 Bft) S-SO 154 ° 0 min 9 W/m² 6,2 °C 4,3 °C 17,7 km/h (3 Bft)
08.01.2023 08:48 21,3 °C 8,6 °C 53 % 85 % 1006,5 hPa 0,0 l/m² 12,7 km/h (3 Bft) S-SO 161 ° 0 min 7 W/m² 6,2 °C 4,5 °C 19,3 km/h (3 Bft)
08.01.2023 08:50 21,3 °C 8,6 °C 53 % 85 % 1006,4 hPa 0,0 l/m² 11,7 km/h (2 Bft) S 171 ° 0 min 7 W/m² 6,2 °C 5,1 °C 17,7 km/h (3 Bft)
08.01.2023 08:51 21,3 °C 8,6 °C 52 % 85 % 1006,4 hPa 0,0 l/m² 12,2 km/h (2 Bft) S-SO 160 ° 0 min 7 W/m² 6,2 °C 4,8 °C 14,5 km/h (3 Bft)
08.01.2023 08:52 21,3 °C 8,6 °C 52 % 85 % 1006,4 hPa 0,0 l/m² 9,1 km/h (2 Bft) S-SO 155 ° 0 min 7 W/m² 6,2 °C 6,6 °C 14,5 km/h (3 Bft)
08.01.2023 08:54 21,3 °C 8,6 °C 52 % 85 % 1006,3 hPa 0,0 l/m² 12,8 km/h (3 Bft) S-SO 150 ° 0 min 7 W/m² 6,2 °C 4,5 °C 16,1 km/h (3 Bft)
08.01.2023 08:55 21,3 °C 8,6 °C 52 % 85 % 1006,2 hPa 0,0 l/m² 10,0 km/h (2 Bft) S-SO 164 ° 0 min 7 W/m² 6,2 °C 6,0 °C 12,9 km/h (3 Bft)
08.01.2023 08:57 21,3 °C 8,6 °C 52 % 85 % 1006,3 hPa 0,0 l/m² 11,9 km/h (2 Bft) S-SO 153 ° 0 min 11 W/m² 6,2 °C 5,0 °C 17,7 km/h (3 Bft)
08.01.2023 08:59 21,3 °C 8,6 °C 52 % 85 % 1006,3 hPa 0,0 l/m² 10,4 km/h (2 Bft) S-SO 167 ° 0 min 12 W/m² 6,2 °C 5,8 °C 14,5 km/h (3 Bft)
08.01.2023 09:00 21,3 °C 8,6 °C 52 % 85 % 1006,4 hPa 0,0 l/m² 12,5 km/h (2 Bft) S 180 ° 0 min 14 W/m² 6,2 °C 4,6 °C 17,7 km/h (3 Bft)
08.01.2023 09:02 21,3 °C 8,6 °C 52 % 85 % 1006,4 hPa 0,0 l/m² 12,0 km/h (2 Bft) S 175 ° 0 min 14 W/m² 6,2 °C 4,9 °C 19,3 km/h (3 Bft)
08.01.2023 09:04 21,3 °C 8,6 °C 52 % 85 % 1006,5 hPa 0,0 l/m² 10,3 km/h (2 Bft) S-SO 161 ° 0 min 14 W/m² 6,2 °C 5,9 °C 16,1 km/h (3 Bft)
08.01.2023 09:06 21,3 °C 8,6 °C 52 % 85 % 1006,6 hPa 0,0 l/m² 11,5 km/h (2 Bft) S 173 ° 0 min 12 W/m² 6,2 °C 5,2 °C 17,7 km/h (3 Bft)
08.01.2023 09:08 21,3 °C 8,6 °C 52 % 85 % 1006,7 hPa 0,0 l/m² 12,1 km/h (2 Bft) S 175 ° 0 min 12 W/m² 6,2 °C 4,8 °C 16,1 km/h (3 Bft)
08.01.2023 09:10 21,3 °C 8,6 °C 52 % 85 % 1006,6 hPa 0,0 l/m² 12,4 km/h (2 Bft) S 178 ° 0 min 11 W/m² 6,2 °C 4,7 °C 16,1 km/h (3 Bft)
08.01.2023 09:11 21,3 °C 8,6 °C 52 % 85 % 1006,6 hPa 0,0 l/m² 11,9 km/h (2 Bft) S-SO 166 ° 0 min 11 W/m² 6,2 °C 5,0 °C 14,5 km/h (3 Bft)
08.01.2023 09:12 21,3 °C 8,6 °C 52 % 85 % 1006,6 hPa 0,0 l/m² 11,5 km/h (2 Bft) S 173 ° 0 min 11 W/m² 6,2 °C 5,2 °C 16,1 km/h (3 Bft)
08.01.2023 09:15 21,3 °C 8,6 °C 52 % 85 % 1006,9 hPa 0,0 l/m² 10,4 km/h (2 Bft) S 170 ° 0 min 11 W/m² 6,2 °C 5,8 °C 16,1 km/h (3 Bft)
08.01.2023 09:17 21,3 °C 8,6 °C 52 % 86 % 1006,7 hPa 0,0 l/m² 10,3 km/h (2 Bft) S-SO 164 ° 0 min 18 W/m² 6,4 °C 5,9 °C 16,1 km/h (3 Bft)
08.01.2023 09:19 21,4 °C 8,5 °C 52 % 86 % 1006,7 hPa 0,0 l/m² 10,1 km/h (2 Bft) S 172 ° 0 min 23 W/m² 6,3 °C 5,9 °C 12,9 km/h (3 Bft)
08.01.2023 09:20 21,4 °C 8,5 °C 53 % 86 % 1006,7 hPa 0,0 l/m² 9,3 km/h (2 Bft) S 173 ° 0 min 25 W/m² 6,3 °C 6,4 °C 12,9 km/h (3 Bft)
08.01.2023 09:22 21,3 °C 8,5 °C 53 % 86 % 1006,7 hPa 0,0 l/m² 8,7 km/h (2 Bft) S 173 ° 0 min 23 W/m² 6,3 °C 6,8 °C 14,5 km/h (3 Bft)
08.01.2023 09:24 21,4 °C 8,4 °C 53 % 86 % 1006,7 hPa 0,0 l/m² 9,2 km/h (2 Bft) S 188 ° 0 min 21 W/m² 6,2 °C 6,3 °C 12,9 km/h (3 Bft)
08.01.2023 09:26 21,4 °C 8,4 °C 54 % 86 % 1006,8 hPa 0,0 l/m² 12,1 km/h (2 Bft) S 182 ° 0 min 19 W/m² 6,2 °C 4,6 °C 16,1 km/h (3 Bft)
08.01.2023 09:28 21,4 °C 8,4 °C 54 % 86 % 1006,8 hPa 0,0 l/m² 10,8 km/h (2 Bft) S 180 ° 0 min 19 W/m² 6,2 °C 5,3 °C 14,5 km/h (3 Bft)
08.01.2023 09:30 21,4 °C 8,4 °C 54 % 86 % 1006,7 hPa 0,0 l/m² 11,5 km/h (2 Bft) S-SW 198 ° 0 min 18 W/m² 6,2 °C 4,9 °C 14,5 km/h (3 Bft)
08.01.2023 09:31 21,4 °C 8,5 °C 54 % 86 % 1006,7 hPa 0,0 l/m² 10,5 km/h (2 Bft) S-SW 192 ° 0 min 18 W/m² 6,3 °C 5,6 °C 14,5 km/h (3 Bft)
08.01.2023 09:32 21,4 °C 8,5 °C 54 % 86 % 1006,7 hPa 0,0 l/m² 10,8 km/h (2 Bft) S-SW 195 ° 0 min 16 W/m² 6,3 °C 5,5 °C 12,9 km/h (3 Bft)
08.01.2023 09:35 21,4 °C 8,6 °C 54 % 86 % 1006,6 hPa 0,0 l/m² 10,7 km/h (2 Bft) S-SW 200 ° 0 min 16 W/m² 6,4 °C 5,6 °C 16,1 km/h (3 Bft)
08.01.2023 09:37 21,5 °C 8,6 °C 55 % 87 % 1006,6 hPa 0,0 l/m² 10,9 km/h (2 Bft) S 190 ° 0 min 16 W/m² 6,6 °C 5,5 °C 16,1 km/h (3 Bft)
08.01.2023 09:39 21,5 °C 8,5 °C 54 % 87 % 1006,6 hPa 0,0 l/m² 11,8 km/h (2 Bft) S-SW 203 ° 0 min 16 W/m² 6,5 °C 4,9 °C 19,3 km/h (3 Bft)
08.01.2023 09:40 21,5 °C 8,6 °C 54 % 87 % 1006,5 hPa 0,0 l/m² 9,8 km/h (2 Bft) S 188 ° 0 min 18 W/m² 6,6 °C 6,2 °C 12,9 km/h (3 Bft)
08.01.2023 09:42 21,5 °C 8,6 °C 55 % 87 % 1006,5 hPa 0,0 l/m² 10,8 km/h (2 Bft) S-SW 203 ° 0 min 18 W/m² 6,6 °C 5,6 °C 14,5 km/h (3 Bft)
08.01.2023 09:44 21,5 °C 8,6 °C 55 % 87 % 1006,5 hPa 0,0 l/m² 9,4 km/h (2 Bft) S 188 ° 0 min 19 W/m² 6,6 °C 6,4 °C 12,9 km/h (3 Bft)
08.01.2023 09:46 21,6 °C 8,6 °C 55 % 87 % 1006,4 hPa 0,0 l/m² 10,9 km/h (2 Bft) S-SW 203 ° 0 min 19 W/m² 6,6 °C 5,5 °C 16,1 km/h (3 Bft)
08.01.2023 09:48 21,6 °C 8,6 °C 55 % 87 % 1006,3 hPa 0,0 l/m² 10,4 km/h (2 Bft) S-SW 194 ° 0 min 23 W/m² 6,6 °C 5,8 °C 14,5 km/h (3 Bft)
08.01.2023 09:50 21,6 °C 8,6 °C 55 % 87 % 1006,3 hPa 0,0 l/m² 8,4 km/h (2 Bft) S 186 ° 0 min 26 W/m² 6,6 °C 7,1 °C 14,5 km/h (3 Bft)
08.01.2023 09:51 21,6 °C 8,6 °C 55 % 87 % 1006,3 hPa 0,0 l/m² 11,7 km/h (2 Bft) S 178 ° 0 min 28 W/m² 6,6 °C 5,1 °C 16,1 km/h (3 Bft)
08.01.2023 09:52 21,6 °C 8,6 °C 55 % 87 % 1006,3 hPa 0,0 l/m² 8,5 km/h (2 Bft) S 174 ° 0 min 30 W/m² 6,6 °C 7,0 °C 11,3 km/h (2 Bft)
08.01.2023 09:55 21,6 °C 8,6 °C 55 % 87 % 1006,3 hPa 0,0 l/m² 9,4 km/h (2 Bft) S-SO 161 ° 0 min 35 W/m² 6,6 °C 6,4 °C 14,5 km/h (3 Bft)
08.01.2023 09:57 21,6 °C 8,6 °C 55 % 87 % 1006,2 hPa 0,0 l/m² 11,2 km/h (2 Bft) S 179 ° 0 min 39 W/m² 6,6 °C 5,3 °C 16,1 km/h (3 Bft)
08.01.2023 09:59 21,6 °C 8,6 °C 55 % 87 % 1006,3 hPa 0,0 l/m² 9,5 km/h (2 Bft) S-SO 167 ° 0 min 40 W/m² 6,6 °C 6,4 °C 14,5 km/h (3 Bft)
08.01.2023 10:00 21,6 °C 8,6 °C 55 % 87 % 1006,3 hPa 0,0 l/m² 8,0 km/h (2 Bft) S 174 ° 0 min 42 W/m² 6,6 °C 7,4 °C 9,7 km/h (2 Bft)
08.01.2023 10:02 21,6 °C 8,6 °C 54 % 87 % 1006,3 hPa 0,0 l/m² 7,5 km/h (2 Bft) S 187 ° 0 min 44 W/m² 6,6 °C 7,8 °C 11,3 km/h (2 Bft)
08.01.2023 10:04 21,6 °C 8,6 °C 52 % 87 % 1006,4 hPa 0,0 l/m² 9,4 km/h (2 Bft) S 175 ° 0 min 47 W/m² 6,6 °C 6,4 °C 14,5 km/h (3 Bft)
08.01.2023 10:06 21,6 °C 8,6 °C 52 % 87 % 1006,3 hPa 0,0 l/m² 11,0 km/h (2 Bft) S 182 ° 2 min 53 W/m² 6,6 °C 5,5 °C 14,5 km/h (3 Bft)
08.01.2023 10:08 21,5 °C 8,6 °C 52 % 87 % 1006,2 hPa 0,0 l/m² 10,6 km/h (2 Bft) S 175 ° 2 min 56 W/m² 6,6 °C 5,7 °C 16,1 km/h (3 Bft)
08.01.2023 10:10 21,5 °C 8,6 °C 52 % 87 % 1006,3 hPa 0,0 l/m² 8,1 km/h (2 Bft) S-SO 160 ° 2 min 60 W/m² 6,6 °C 7,3 °C 12,9 km/h (3 Bft)
08.01.2023 10:11 21,5 °C 8,6 °C 53 % 87 % 1006,4 hPa 0,0 l/m² 8,3 km/h (2 Bft) S-SO 156 ° 1 min 62 W/m² 6,6 °C 7,2 °C 11,3 km/h (2 Bft)
08.01.2023 10:12 21,5 °C 8,6 °C 53 % 87 % 1006,4 hPa 0,0 l/m² 10,3 km/h (2 Bft) S 172 ° 1 min 63 W/m² 6,6 °C 5,9 °C 14,5 km/h (3 Bft)
08.01.2023 10:15 21,5 °C 8,6 °C 53 % 87 % 1006,4 hPa 0,0 l/m² 9,4 km/h (2 Bft) S-SO 156 ° 3 min 63 W/m² 6,6 °C 6,4 °C 14,5 km/h (3 Bft)
08.01.2023 10:17 21,5 °C 8,6 °C 53 % 87 % 1006,4 hPa 0,0 l/m² 9,1 km/h (2 Bft) S-SO 162 ° 2 min 62 W/m² 6,6 °C 6,6 °C 12,9 km/h (3 Bft)
08.01.2023 10:19 21,5 °C 8,6 °C 53 % 87 % 1006,3 hPa 0,0 l/m² 11,3 km/h (2 Bft) S 175 ° 2 min 67 W/m² 6,6 °C 5,3 °C 16,1 km/h (3 Bft)
08.01.2023 10:20 21,5 °C 8,6 °C 53 % 87 % 1006,3 hPa 0,0 l/m² 11,8 km/h (2 Bft) S 169 ° 1 min 67 W/m² 6,6 °C 5,0 °C 20,9 km/h (4 Bft)
08.01.2023 10:21 21,5 °C 8,7 °C 53 % 87 % 1006,3 hPa 0,0 l/m² 10,1 km/h (2 Bft) S 174 ° 1 min 67 W/m² 6,7 °C 6,1 °C 12,9 km/h (3 Bft)
08.01.2023 10:22 21,5 °C 8,7 °C 53 % 87 % 1006,3 hPa 0,0 l/m² 8,4 km/h (2 Bft) S 169 ° 1 min 67 W/m² 6,7 °C 7,2 °C 11,3 km/h (2 Bft)
08.01.2023 10:24 21,5 °C 8,7 °C 52 % 87 % 1006,3 hPa 0,0 l/m² 10,4 km/h (2 Bft) S 169 ° 2 min 63 W/m² 6,7 °C 5,9 °C 16,1 km/h (3 Bft)
08.01.2023 10:26 21,5 °C 8,6 °C 52 % 87 % 1006,4 hPa 0,0 l/m² 10,5 km/h (2 Bft) S 178 ° 2 min 60 W/m² 6,6 °C 5,7 °C 17,7 km/h (3 Bft)
08.01.2023 10:28 21,5 °C 8,6 °C 52 % 87 % 1006,4 hPa 0,0 l/m² 12,1 km/h (2 Bft) S-SO 158 ° 2 min 60 W/m² 6,6 °C 4,8 °C 16,1 km/h (3 Bft)
08.01.2023 10:30 21,4 °C 8,6 °C 52 % 87 % 1006,4 hPa 0,0 l/m² 10,5 km/h (2 Bft) S 184 ° 2 min 56 W/m² 6,6 °C 5,7 °C 16,1 km/h (3 Bft)
08.01.2023 10:31 21,5 °C 8,6 °C 52 % 87 % 1006,4 hPa 0,0 l/m² 9,1 km/h (2 Bft) S 187 ° 1 min 56 W/m² 6,6 °C 6,6 °C 11,3 km/h (2 Bft)
08.01.2023 10:32 21,5 °C 8,6 °C 52 % 87 % 1006,4 hPa 0,0 l/m² 9,3 km/h (2 Bft) S 184 ° 1 min 56 W/m² 6,6 °C 6,5 °C 11,3 km/h (2 Bft)
08.01.2023 10:33 21,4 °C 8,7 °C 52 % 87 % 1006,3 hPa 0,0 l/m² 8,2 km/h (2 Bft) S 186 ° 1 min 54 W/m² 6,7 °C 7,3 °C 12,9 km/h (3 Bft)
08.01.2023 10:35 21,5 °C 8,7 °C 52 % 87 % 1006,4 hPa 0,0 l/m² 9,3 km/h (2 Bft) S 182 ° 0 min 49 W/m² 6,7 °C 6,6 °C 16,1 km/h (3 Bft)
08.01.2023 10:37 21,5 °C 8,6 °C 52 % 87 % 1006,4 hPa 0,0 l/m² 9,8 km/h (2 Bft) S 169 ° 0 min 46 W/m² 6,6 °C 6,2 °C 16,1 km/h (3 Bft)
08.01.2023 10:39 21,4 °C 8,6 °C 52 % 87 % 1006,4 hPa 0,0 l/m² 10,3 km/h (2 Bft) S 173 ° 0 min 46 W/m² 6,6 °C 5,9 °C 16,1 km/h (3 Bft)
08.01.2023 10:40 21,4 °C 8,7 °C 52 % 87 % 1006,4 hPa 0,0 l/m² 9,4 km/h (2 Bft) S 184 ° 0 min 44 W/m² 6,7 °C 6,5 °C 14,5 km/h (3 Bft)
08.01.2023 10:42 21,4 °C 8,7 °C 52 % 87 % 1006,5 hPa 0,0 l/m² 9,9 km/h (2 Bft) S 175 ° 0 min 39 W/m² 6,7 °C 6,2 °C 14,5 km/h (3 Bft)
08.01.2023 10:44 21,4 °C 8,7 °C 52 % 87 % 1006,5 hPa 0,0 l/m² 13,6 km/h (3 Bft) S 182 ° 0 min 30 W/m² 6,7 °C 4,2 °C 17,7 km/h (3 Bft)
08.01.2023 10:46 21,4 °C 8,7 °C 52 % 87 % 1006,5 hPa 0,0 l/m² 11,9 km/h (2 Bft) S-SW 199 ° 0 min 30 W/m² 6,7 °C 5,1 °C 16,1 km/h (3 Bft)
08.01.2023 10:48 21,4 °C 8,7 °C 52 % 87 % 1006,4 hPa 0,0 l/m² 12,0 km/h (2 Bft) S 178 ° 0 min 37 W/m² 6,7 °C 5,0 °C 14,5 km/h (3 Bft)
08.01.2023 10:50 21,4 °C 8,7 °C 52 % 87 % 1006,4 hPa 0,0 l/m² 10,0 km/h (2 Bft) S 180 ° 0 min 40 W/m² 6,7 °C 6,2 °C 14,5 km/h (3 Bft)
08.01.2023 10:51 21,4 °C 8,7 °C 52 % 87 % 1006,4 hPa 0,0 l/m² 13,0 km/h (3 Bft) S 188 ° 0 min 42 W/m² 6,7 °C 4,5 °C 20,9 km/h (4 Bft)
08.01.2023 10:52 21,4 °C 8,7 °C 52 % 87 % 1006,4 hPa 0,0 l/m² 11,4 km/h (2 Bft) S-SW 193 ° 0 min 44 W/m² 6,7 °C 5,3 °C 16,1 km/h (3 Bft)
08.01.2023 10:53 21,4 °C 8,7 °C 52 % 87 % 1006,5 hPa 0,0 l/m² 11,6 km/h (2 Bft) S-SW 198 ° 0 min 46 W/m² 6,7 °C 5,2 °C 16,1 km/h (3 Bft)
08.01.2023 10:55 21,4 °C 8,7 °C 52 % 86 % 1006,4 hPa 0,0 l/m² 13,0 km/h (3 Bft) S 174 ° 0 min 44 W/m² 6,5 °C 4,5 °C 17,7 km/h (3 Bft)
08.01.2023 10:57 21,4 °C 8,8 °C 52 % 86 % 1006,3 hPa 0,0 l/m² 13,1 km/h (3 Bft) S-SW 203 ° 0 min 44 W/m² 6,6 °C 4,6 °C 17,7 km/h (3 Bft)
08.01.2023 10:59 21,4 °C 8,8 °C 52 % 86 % 1006,4 hPa 0,0 l/m² 11,7 km/h (2 Bft) S 188 ° 0 min 47 W/m² 6,6 °C 5,3 °C 16,1 km/h (3 Bft)
08.01.2023 11:00 21,4 °C 8,7 °C 52 % 86 % 1006,3 hPa 0,0 l/m² 10,3 km/h (2 Bft) S 178 ° 0 min 46 W/m² 6,5 °C 6,0 °C 12,9 km/h (3 Bft)
08.01.2023 11:01 21,4 °C 8,8 °C 52 % 86 % 1006,3 hPa 0,0 l/m² 10,3 km/h (2 Bft) S 175 ° 0 min 46 W/m² 6,6 °C 6,1 °C 16,1 km/h (3 Bft)
08.01.2023 11:02 21,4 °C 8,8 °C 52 % 86 % 1006,3 hPa 0,0 l/m² 15,3 km/h (3 Bft) S 191 ° 0 min 49 W/m² 6,6 °C 3,5 °C 20,9 km/h (4 Bft)
08.01.2023 11:04 21,4 °C 8,8 °C 52 % 86 % 1006,2 hPa 0,0 l/m² 12,4 km/h (2 Bft) S 189 ° 2 min 62 W/m² 6,6 °C 4,9 °C 19,3 km/h (3 Bft)
08.01.2023 11:06 21,4 °C 8,8 °C 52 % 86 % 1006,2 hPa 0,0 l/m² 10,8 km/h (2 Bft) S-SW 192 ° 2 min 84 W/m² 6,6 °C 5,8 °C 16,1 km/h (3 Bft)
08.01.2023 11:08 21,4 °C 8,8 °C 52 % 86 % 1006,2 hPa 0,0 l/m² 10,4 km/h (2 Bft) S 186 ° 2 min 90 W/m² 6,6 °C 6,0 °C 12,9 km/h (3 Bft)
08.01.2023 11:10 21,4 °C 8,8 °C 53 % 86 % 1006,1 hPa 0,0 l/m² 12,1 km/h (2 Bft) S 170 ° 2 min 86 W/m² 6,6 °C 5,1 °C 17,7 km/h (3 Bft)
08.01.2023 11:11 21,4 °C 8,8 °C 53 % 86 % 1006,2 hPa 0,0 l/m² 12,3 km/h (2 Bft) S 175 ° 1 min 81 W/m² 6,6 °C 5,0 °C 17,7 km/h (3 Bft)
08.01.2023 11:12 21,4 °C 8,8 °C 53 % 86 % 1006,2 hPa 0,0 l/m² 11,7 km/h (2 Bft) S-SO 164 ° 1 min 77 W/m² 6,6 °C 5,3 °C 16,1 km/h (3 Bft)
08.01.2023 11:13 21,4 °C 8,9 °C 54 % 86 % 1006,2 hPa 0,0 l/m² 15,1 km/h (3 Bft) S 189 ° 1 min 72 W/m² 6,7 °C 3,8 °C 20,9 km/h (4 Bft)
08.01.2023 11:15 21,5 °C 8,9 °C 54 % 86 % 1006,2 hPa 0,0 l/m² 14,9 km/h (3 Bft) S 173 ° 2 min 67 W/m² 6,7 °C 3,8 °C 20,9 km/h (4 Bft)
08.01.2023 11:17 21,4 °C 8,9 °C 55 % 85 % 1006,2 hPa 0,0 l/m² 15,3 km/h (3 Bft) S-SO 161 ° 0 min 51 W/m² 6,5 °C 3,7 °C 19,3 km/h (3 Bft)
08.01.2023 11:19 21,4 °C 8,9 °C 54 % 85 % 1006,2 hPa 0,0 l/m² 13,7 km/h (3 Bft) S 184 ° 0 min 51 W/m² 6,5 °C 4,4 °C 19,3 km/h (3 Bft)
08.01.2023 11:21 21,4 °C 8,9 °C 54 % 85 % 1006,2 hPa 0,0 l/m² 14,3 km/h (3 Bft) S-SO 167 ° 0 min 49 W/m² 6,5 °C 4,1 °C 19,3 km/h (3 Bft)
08.01.2023 11:22 21,4 °C 9,0 °C 53 % 85 % 1006,2 hPa 0,0 l/m² 12,5 km/h (2 Bft) S 175 ° 0 min 47 W/m² 6,6 °C 5,1 °C 19,3 km/h (3 Bft)
08.01.2023 11:23 21,4 °C 9,0 °C 53 % 85 % 1006,2 hPa 0,0 l/m² 12,9 km/h (3 Bft) S 178 ° 0 min 47 W/m² 6,6 °C 4,9 °C 17,7 km/h (3 Bft)
08.01.2023 11:24 21,4 °C 8,9 °C 53 % 85 % 1006,2 hPa 0,0 l/m² 12,4 km/h (2 Bft) S 179 ° 0 min 49 W/m² 6,5 °C 5,0 °C 17,7 km/h (3 Bft)
08.01.2023 11:26 21,4 °C 9,0 °C 53 % 85 % 1006,2 hPa 0,0 l/m² 16,2 km/h (3 Bft) S 184 ° 0 min 49 W/m² 6,6 °C 3,4 °C 20,9 km/h (4 Bft)
08.01.2023 11:28 21,4 °C 9,0 °C 52 % 85 % 1006,1 hPa 0,0 l/m² 11,9 km/h (2 Bft) S-SO 160 ° 2 min 56 W/m² 6,6 °C 5,4 °C 16,1 km/h (3 Bft)
08.01.2023 11:30 21,3 °C 9,0 °C 52 % 85 % 1006,1 hPa 0,0 l/m² 11,9 km/h (2 Bft) S 184 ° 2 min 62 W/m² 6,6 °C 5,4 °C 22,5 km/h (4 Bft)
08.01.2023 11:31 21,3 °C 9,0 °C 52 % 85 % 1006,1 hPa 0,0 l/m² 12,0 km/h (2 Bft) S 189 ° 1 min 63 W/m² 6,6 °C 5,4 °C 16,1 km/h (3 Bft)
08.01.2023 11:32 21,3 °C 9,1 °C 52 % 85 % 1006,1 hPa 0,0 l/m² 14,1 km/h (3 Bft) S 174 ° 1 min 69 W/m² 6,7 °C 4,4 °C 17,7 km/h (3 Bft)
08.01.2023 11:33 21,3 °C 9,1 °C 52 % 85 % 1006,1 hPa 0,0 l/m² 12,6 km/h (3 Bft) S 174 ° 1 min 70 W/m² 6,7 °C 5,2 °C 19,3 km/h (3 Bft)
08.01.2023 11:35 21,3 °C 9,1 °C 52 % 85 % 1006,1 hPa 0,0 l/m² 13,3 km/h (3 Bft) S-SW 192 ° 2 min 69 W/m² 6,7 °C 4,8 °C 19,3 km/h (3 Bft)
08.01.2023 11:37 21,3 °C 9,1 °C 51 % 85 % 1006,0 hPa 0,0 l/m² 13,1 km/h (3 Bft) S-SO 166 ° 2 min 70 W/m² 6,7 °C 4,9 °C 17,7 km/h (3 Bft)
08.01.2023 11:39 21,3 °C 9,1 °C 51 % 85 % 1006,1 hPa 0,0 l/m² 12,5 km/h (2 Bft) S 173 ° 2 min 76 W/m² 6,7 °C 5,2 °C 17,7 km/h (3 Bft)
08.01.2023 11:41 21,3 °C 9,2 °C 51 % 84 % 1006,0 hPa 0,0 l/m² 12,6 km/h (3 Bft) S 184 ° 2 min 74 W/m² 6,6 °C 5,3 °C 19,3 km/h (3 Bft)
08.01.2023 11:42 21,3 °C 9,1 °C 51 % 84 % 1006,1 hPa 0,0 l/m² 12,2 km/h (2 Bft) S-SO 162 ° 1 min 70 W/m² 6,5 °C 5,4 °C 19,3 km/h (3 Bft)
08.01.2023 11:43 21,3 °C 9,2 °C 51 % 85 % 1006,1 hPa 0,0 l/m² 15,9 km/h (3 Bft) S 188 ° 1 min 69 W/m² 6,8 °C 3,8 °C 24,1 km/h (4 Bft)
08.01.2023 11:44 21,3 °C 9,2 °C 51 % 84 % 1006,0 hPa 0,0 l/m² 11,6 km/h (2 Bft) S 182 ° 1 min 67 W/m² 6,6 °C 5,8 °C 16,1 km/h (3 Bft)
08.01.2023 11:46 21,2 °C 9,2 °C 51 % 84 % 1006,1 hPa 0,0 l/m² 11,5 km/h (2 Bft) S 184 ° 2 min 58 W/m² 6,6 °C 5,9 °C 19,3 km/h (3 Bft)
08.01.2023 11:48 21,2 °C 9,2 °C 50 % 84 % 1006,0 hPa 0,0 l/m² 13,7 km/h (3 Bft) S 186 ° 2 min 53 W/m² 6,6 °C 4,8 °C 17,7 km/h (3 Bft)
08.01.2023 11:50 21,2 °C 9,2 °C 50 % 84 % 1006,0 hPa 0,0 l/m² 13,1 km/h (3 Bft) S 182 ° 0 min 51 W/m² 6,6 °C 5,0 °C 16,1 km/h (3 Bft)
08.01.2023 11:51 21,2 °C 9,2 °C 50 % 84 % 1006,0 hPa 0,0 l/m² 13,6 km/h (3 Bft) S 179 ° 0 min 51 W/m² 6,6 °C 4,8 °C 19,3 km/h (3 Bft)
08.01.2023 11:52 21,2 °C 9,2 °C 50 % 84 % 1006,0 hPa 0,0 l/m² 16,0 km/h (3 Bft) S-SW 197 ° 1 min 53 W/m² 6,6 °C 3,7 °C 19,3 km/h (3 Bft)
08.01.2023 11:53 21,2 °C 9,2 °C 50 % 84 % 1006,0 hPa 0,0 l/m² 13,0 km/h (3 Bft) S 175 ° 1 min 54 W/m² 6,6 °C 5,1 °C 16,1 km/h (3 Bft)
08.01.2023 11:55 21,2 °C 9,2 °C 50 % 84 % 1006,0 hPa 0,0 l/m² 14,1 km/h (3 Bft) S 175 ° 2 min 56 W/m² 6,6 °C 4,6 °C 17,7 km/h (3 Bft)
08.01.2023 11:57 21,2 °C 9,2 °C 49 % 83 % 1005,9 hPa 0,0 l/m² 14,0 km/h (3 Bft) S 182 ° 2 min 62 W/m² 6,5 °C 4,6 °C 19,3 km/h (3 Bft)
08.01.2023 11:59 21,2 °C 9,2 °C 49 % 84 % 1006,0 hPa 0,0 l/m² 11,6 km/h (2 Bft) S 184 ° 2 min 63 W/m² 6,6 °C 5,8 °C 19,3 km/h (3 Bft)
08.01.2023 12:01 21,1 °C 9,2 °C 49 % 84 % 1005,8 hPa 0,0 l/m² 12,5 km/h (2 Bft) S-SO 167 ° 2 min 74 W/m² 6,6 °C 5,3 °C 19,3 km/h (3 Bft)
08.01.2023 12:02 21,1 °C 9,2 °C 49 % 84 % 1005,8 hPa 0,0 l/m² 10,2 km/h (2 Bft) SO 144 ° 1 min 83 W/m² 6,6 °C 6,6 °C 12,9 km/h (3 Bft)
08.01.2023 12:03 21,1 °C 9,2 °C 49 % 84 % 1005,8 hPa 0,0 l/m² 10,3 km/h (2 Bft) S 191 ° 1 min 90 W/m² 6,6 °C 6,5 °C 12,9 km/h (3 Bft)
08.01.2023 12:04 21,1 °C 9,2 °C 49 % 84 % 1005,7 hPa 0,0 l/m² 12,6 km/h (3 Bft) S-SO 150 ° 1 min 93 W/m² 6,6 °C 5,3 °C 16,1 km/h (3 Bft)
08.01.2023 12:06 21,1 °C 9,2 °C 49 % 84 % 1005,8 hPa 0,0 l/m² 15,1 km/h (3 Bft) S 182 ° 2 min 95 W/m² 6,6 °C 4,1 °C 22,5 km/h (4 Bft)
08.01.2023 12:08 21,1 °C 9,2 °C 49 % 83 % 1005,7 hPa 0,0 l/m² 17,7 km/h (3 Bft) S 183 ° 2 min 90 W/m² 6,5 °C 3,1 °C 25,7 km/h (4 Bft)
08.01.2023 12:10 21,1 °C 9,2 °C 49 % 83 % 1005,6 hPa 0,0 l/m² 17,5 km/h (3 Bft) S 179 ° 2 min 77 W/m² 6,5 °C 3,1 °C 22,5 km/h (4 Bft)
08.01.2023 12:11 21,1 °C 9,2 °C 48 % 83 % 1005,6 hPa 0,0 l/m² 15,3 km/h (3 Bft) S-SW 199 ° 1 min 74 W/m² 6,5 °C 4,0 °C 19,3 km/h (3 Bft)
08.01.2023 12:12 21,1 °C 9,2 °C 48 % 83 % 1005,6 hPa 0,0 l/m² 16,8 km/h (3 Bft) S 178 ° 1 min 69 W/m² 6,5 °C 3,4 °C 20,9 km/h (4 Bft)
08.01.2023 12:13 21,1 °C 9,2 °C 48 % 83 % 1005,7 hPa 0,0 l/m² 18,5 km/h (3 Bft) S 188 ° 1 min 63 W/m² 6,5 °C 2,8 °C 25,7 km/h (4 Bft)
08.01.2023 12:15 21,1 °C 9,2 °C 48 % 83 % 1005,8 hPa 0,0 l/m² 16,3 km/h (3 Bft) S 169 ° 2 min 53 W/m² 6,5 °C 3,6 °C 24,1 km/h (4 Bft)
08.01.2023 12:17 21,1 °C 9,2 °C 48 % 83 % 1005,8 hPa 0,0 l/m² 16,5 km/h (3 Bft) S 182 ° 0 min 49 W/m² 6,5 °C 3,5 °C 24,1 km/h (4 Bft)
08.01.2023 12:19 21,0 °C 9,2 °C 47 % 82 % 1005,8 hPa 0,0 l/m² 16,8 km/h (3 Bft) S 181 ° 0 min 47 W/m² 6,3 °C 3,4 °C 20,9 km/h (4 Bft)
08.01.2023 12:21 20,9 °C 9,2 °C 47 % 83 % 1005,6 hPa 0,0 l/m² 14,4 km/h (3 Bft) S 181 ° 0 min 44 W/m² 6,5 °C 4,4 °C 19,3 km/h (3 Bft)
08.01.2023 12:22 20,9 °C 9,2 °C 47 % 82 % 1005,7 hPa 0,0 l/m² 13,2 km/h (3 Bft) S-SO 165 ° 0 min 44 W/m² 6,3 °C 5,0 °C 16,1 km/h (3 Bft)
08.01.2023 12:23 20,9 °C 9,2 °C 47 % 82 % 1005,7 hPa 0,0 l/m² 12,3 km/h (2 Bft) S 173 ° 0 min 40 W/m² 6,3 °C 5,4 °C 14,5 km/h (3 Bft)
08.01.2023 12:25 20,9 °C 9,2 °C 47 % 83 % 1005,6 hPa 0,0 l/m² 11,0 km/h (2 Bft) S-SW 196 ° 0 min 33 W/m² 6,5 °C 6,1 °C 16,1 km/h (3 Bft)
08.01.2023 12:27 20,9 °C 9,2 °C 47 % 83 % 1005,6 hPa 0,0 l/m² 12,3 km/h (2 Bft) S 191 ° 0 min 32 W/m² 6,5 °C 5,4 °C 17,7 km/h (3 Bft)
08.01.2023 12:29 20,8 °C 9,1 °C 48 % 83 % 1005,6 hPa 0,0 l/m² 13,9 km/h (3 Bft) S-SO 168 ° 0 min 33 W/m² 6,4 °C 4,5 °C 19,3 km/h (3 Bft)
08.01.2023 12:31 20,9 °C 9,1 °C 48 % 83 % 1005,5 hPa 0,0 l/m² 13,6 km/h (3 Bft) S 186 ° 0 min 35 W/m² 6,4 °C 4,7 °C 17,7 km/h (3 Bft)
08.01.2023 12:32 20,9 °C 9,1 °C 48 % 83 % 1005,6 hPa 0,0 l/m² 13,5 km/h (3 Bft) S 184 ° 0 min 32 W/m² 6,4 °C 4,7 °C 16,1 km/h (3 Bft)
08.01.2023 12:33 20,9 °C 9,1 °C 48 % 83 % 1005,6 hPa 0,0 l/m² 13,2 km/h (3 Bft) S 185 ° 0 min 30 W/m² 6,4 °C 4,9 °C 16,1 km/h (3 Bft)
08.01.2023 12:35 20,9 °C 9,1 °C 48 % 83 % 1005,6 hPa 0,0 l/m² 13,8 km/h (3 Bft) S 185 ° 0 min 33 W/m² 6,4 °C 4,6 °C 17,7 km/h (3 Bft)
08.01.2023 12:37 20,9 °C 9,1 °C 48 % 83 % 1005,6 hPa 0,0 l/m² 13,8 km/h (3 Bft) S 186 ° 0 min 39 W/m² 6,4 °C 4,6 °C 22,5 km/h (4 Bft)
08.01.2023 12:39 20,9 °C 9,1 °C 48 % 83 % 1005,5 hPa 0,0 l/m² 14,1 km/h (3 Bft) S 188 ° 0 min 42 W/m² 6,4 °C 4,4 °C 17,7 km/h (3 Bft)
08.01.2023 12:41 20,9 °C 9,1 °C 48 % 83 % 1005,3 hPa 0,0 l/m² 12,7 km/h (3 Bft) S 184 ° 0 min 47 W/m² 6,4 °C 5,1 °C 16,1 km/h (3 Bft)
08.01.2023 12:42 20,9 °C 9,1 °C 48 % 83 % 1005,2 hPa 0,0 l/m² 13,1 km/h (3 Bft) S-SW 195 ° 0 min 49 W/m² 6,4 °C 4,9 °C 19,3 km/h (3 Bft)
08.01.2023 12:43 20,9 °C 9,1 °C 48 % 83 % 1005,2 hPa 0,0 l/m² 13,6 km/h (3 Bft) S 188 ° 0 min 51 W/m² 6,4 °C 4,7 °C 16,1 km/h (3 Bft)
08.01.2023 12:45 20,9 °C 9,1 °C 49 % 83 % 1005,2 hPa 0,0 l/m² 15,6 km/h (3 Bft) S 179 ° 2 min 53 W/m² 6,4 °C 3,8 °C 19,3 km/h (3 Bft)
08.01.2023 12:47 20,9 °C 9,1 °C 49 % 83 % 1005,1 hPa 0,0 l/m² 17,9 km/h (3 Bft) S 172 ° 2 min 58 W/m² 6,4 °C 2,9 °C 22,5 km/h (4 Bft)
08.01.2023 12:49 20,9 °C 9,1 °C 49 % 83 % 1005,0 hPa 0,0 l/m² 15,7 km/h (3 Bft) S 176 ° 2 min 65 W/m² 6,4 °C 3,7 °C 19,3 km/h (3 Bft)
08.01.2023 12:51 20,9 °C 9,1 °C 49 % 84 % 1004,9 hPa 0,0 l/m² 15,5 km/h (3 Bft) S 175 ° 2 min 77 W/m² 6,5 °C 3,8 °C 24,1 km/h (4 Bft)
08.01.2023 12:52 21,0 °C 9,1 °C 50 % 84 % 1004,8 hPa 0,0 l/m² 20,5 km/h (4 Bft) S 187 ° 1 min 84 W/m² 6,5 °C 2,0 °C 27,4 km/h (5 Bft)
08.01.2023 12:53 21,0 °C 9,1 °C 50 % 84 % 1004,8 hPa 0,0 l/m² 15,5 km/h (3 Bft) S 170 ° 1 min 90 W/m² 6,5 °C 3,8 °C 19,3 km/h (3 Bft)
08.01.2023 12:55 21,0 °C 9,1 °C 50 % 84 % 1004,8 hPa 0,0 l/m² 16,4 km/h (3 Bft) S-SW 192 ° 2 min 100 W/m² 6,5 °C 3,5 °C 25,7 km/h (4 Bft)
08.01.2023 12:57 21,1 °C 9,1 °C 50 % 84 % 1004,9 hPa 0,0 l/m² 16,5 km/h (3 Bft) S 185 ° 2 min 109 W/m² 6,5 °C 3,4 °C 22,5 km/h (4 Bft)
08.01.2023 12:59 21,1 °C 9,1 °C 50 % 85 % 1004,8 hPa 0,0 l/m² 16,0 km/h (3 Bft) S-SW 203 ° 2 min 107 W/m² 6,7 °C 3,6 °C 20,9 km/h (4 Bft)
08.01.2023 13:01 21,1 °C 9,1 °C 51 % 85 % 1004,8 hPa 0,0 l/m² 16,9 km/h (3 Bft) S 191 ° 2 min 98 W/m² 6,7 °C 3,3 °C 24,1 km/h (4 Bft)
08.01.2023 13:02 21,1 °C 9,1 °C 51 % 85 % 1004,7 hPa 0,0 l/m² 16,0 km/h (3 Bft) S 178 ° 1 min 97 W/m² 6,7 °C 3,6 °C 22,5 km/h (4 Bft)
08.01.2023 13:03 21,1 °C 9,1 °C 51 % 85 % 1004,7 hPa 0,0 l/m² 17,8 km/h (3 Bft) S 185 ° 1 min 97 W/m² 6,7 °C 2,9 °C 20,9 km/h (4 Bft)
08.01.2023 13:05 21,1 °C 9,1 °C 51 % 85 % 1004,8 hPa 0,0 l/m² 18,3 km/h (3 Bft) S 181 ° 2 min 100 W/m² 6,7 °C 2,7 °C 22,5 km/h (4 Bft)
08.01.2023 13:07 21,1 °C 9,1 °C 51 % 85 % 1004,7 hPa 0,0 l/m² 16,1 km/h (3 Bft) S 178 ° 2 min 105 W/m² 6,7 °C 3,6 °C 22,5 km/h (4 Bft)
08.01.2023 13:09 21,1 °C 9,1 °C 51 % 85 % 1004,7 hPa 0,0 l/m² 16,8 km/h (3 Bft) S 191 ° 2 min 107 W/m² 6,7 °C 3,3 °C 20,9 km/h (4 Bft)
08.01.2023 13:11 21,1 °C 9,1 °C 51 % 84 % 1004,8 hPa 0,0 l/m² 17,1 km/h (3 Bft) S 179 ° 2 min 105 W/m² 6,5 °C 3,2 °C 22,5 km/h (4 Bft)
08.01.2023 13:12 21,1 °C 9,2 °C 51 % 84 % 1004,8 hPa 0,0 l/m² 11,6 km/h (2 Bft) S 178 ° 1 min 104 W/m² 6,6 °C 5,8 °C 14,5 km/h (3 Bft)
08.01.2023 13:13 21,1 °C 9,1 °C 51 % 84 % 1004,8 hPa 0,0 l/m² 12,5 km/h (2 Bft) S-SW 193 ° 1 min 102 W/m² 6,5 °C 5,2 °C 17,7 km/h (3 Bft)
08.01.2023 13:15 21,1 °C 9,1 °C 51 % 84 % 1004,9 hPa 0,0 l/m² 14,2 km/h (3 Bft) S 184 ° 2 min 91 W/m² 6,5 °C 4,4 °C 19,3 km/h (3 Bft)
08.01.2023 13:17 21,1 °C 9,2 °C 51 % 84 % 1004,9 hPa 0,0 l/m² 12,8 km/h (3 Bft) S 184 ° 2 min 81 W/m² 6,6 °C 5,2 °C 17,7 km/h (3 Bft)
08.01.2023 13:19 21,1 °C 9,2 °C 51 % 84 % 1005,0 hPa 0,0 l/m² 12,6 km/h (3 Bft) S 184 ° 2 min 69 W/m² 6,6 °C 5,3 °C 17,7 km/h (3 Bft)
08.01.2023 13:21 21,1 °C 9,2 °C 51 % 84 % 1005,0 hPa 0,0 l/m² 10,1 km/h (2 Bft) S 182 ° 2 min 62 W/m² 6,6 °C 6,7 °C 14,5 km/h (3 Bft)
08.01.2023 13:22 21,1 °C 9,2 °C 51 % 84 % 1005,0 hPa 0,0 l/m² 10,0 km/h (2 Bft) S 182 ° 1 min 62 W/m² 6,6 °C 6,7 °C 12,9 km/h (3 Bft)
08.01.2023 13:23 21,1 °C 9,2 °C 51 % 84 % 1005,0 hPa 0,0 l/m² 12,5 km/h (2 Bft) S 174 ° 1 min 60 W/m² 6,6 °C 5,3 °C 17,7 km/h (3 Bft)
08.01.2023 13:25 21,1 °C 9,2 °C 51 % 84 % 1004,9 hPa 0,0 l/m² 12,3 km/h (2 Bft) S 173 ° 2 min 58 W/m² 6,6 °C 5,4 °C 16,1 km/h (3 Bft)
08.01.2023 13:26 21,1 °C 9,2 °C 51 % 84 % 1004,9 hPa 0,0 l/m² 11,0 km/h (2 Bft) S 171 ° 1 min 56 W/m² 6,6 °C 6,1 °C 14,5 km/h (3 Bft)
08.01.2023 13:27 21,1 °C 9,2 °C 51 % 84 % 1004,8 hPa 0,0 l/m² 11,9 km/h (2 Bft) S 175 ° 1 min 56 W/m² 6,6 °C 5,6 °C 14,5 km/h (3 Bft)
08.01.2023 13:28 21,1 °C 9,2 °C 51 % 84 % 1004,8 hPa 0,0 l/m² 10,1 km/h (2 Bft) S-SO 167 ° 1 min 56 W/m² 6,6 °C 6,7 °C 14,5 km/h (3 Bft)
08.01.2023 13:30 21,1 °C 9,2 °C 51 % 84 % 1004,8 hPa 0,0 l/m² 10,2 km/h (2 Bft) S 186 ° 2 min 54 W/m² 6,6 °C 6,6 °C 14,5 km/h (3 Bft)
08.01.2023 13:32 21,1 °C 9,2 °C 51 % 84 % 1004,9 hPa 0,0 l/m² 12,4 km/h (2 Bft) S 180 ° 2 min 54 W/m² 6,6 °C 5,4 °C 19,3 km/h (3 Bft)
08.01.2023 13:33 21,1 °C 9,1 °C 51 % 84 % 1004,8 hPa 0,0 l/m² 11,6 km/h (2 Bft) S 183 ° 1 min 54 W/m² 6,5 °C 5,7 °C 16,1 km/h (3 Bft)
08.01.2023 13:34 21,1 °C 9,2 °C 51 % 84 % 1004,8 hPa 0,0 l/m² 9,1 km/h (2 Bft) S 180 ° 1 min 54 W/m² 6,6 °C 7,3 °C 12,9 km/h (3 Bft)
08.01.2023 13:36 21,1 °C 9,2 °C 51 % 85 % 1004,7 hPa 0,0 l/m² 8,0 km/h (2 Bft) S-SO 166 ° 2 min 54 W/m² 6,8 °C 8,0 °C 14,5 km/h (3 Bft)
08.01.2023 13:38 21,1 °C 9,1 °C 51 % 85 % 1004,8 hPa 0,0 l/m² 11,2 km/h (2 Bft) S 171 ° 2 min 54 W/m² 6,7 °C 5,9 °C 17,7 km/h (3 Bft)
08.01.2023 13:40 21,1 °C 9,2 °C 51 % 85 % 1004,8 hPa 0,0 l/m² 13,8 km/h (3 Bft) S 178 ° 0 min 51 W/m² 6,8 °C 4,7 °C 20,9 km/h (4 Bft)
08.01.2023 13:42 21,1 °C 9,2 °C 51 % 85 % 1004,7 hPa 0,0 l/m² 13,0 km/h (3 Bft) S 179 ° 0 min 49 W/m² 6,8 °C 5,1 °C 19,3 km/h (3 Bft)
08.01.2023 13:43 21,1 °C 9,1 °C 51 % 85 % 1004,7 hPa 0,0 l/m² 10,8 km/h (2 Bft) S-SO 162 ° 0 min 47 W/m² 6,7 °C 6,1 °C 14,5 km/h (3 Bft)
08.01.2023 13:44 21,1 °C 9,1 °C 51 % 85 % 1004,7 hPa 0,0 l/m² 10,1 km/h (2 Bft) S 174 ° 0 min 47 W/m² 6,7 °C 6,5 °C 16,1 km/h (3 Bft)
08.01.2023 13:46 21,1 °C 9,2 °C 51 % 85 % 1004,7 hPa 0,0 l/m² 11,4 km/h (2 Bft) S 190 ° 0 min 46 W/m² 6,8 °C 5,9 °C 17,7 km/h (3 Bft)
08.01.2023 13:48 21,1 °C 9,1 °C 51 % 85 % 1004,6 hPa 0,0 l/m² 9,8 km/h (2 Bft) S-SO 153 ° 0 min 46 W/m² 6,7 °C 6,7 °C 14,5 km/h (3 Bft)
08.01.2023 13:50 21,1 °C 9,1 °C 51 % 85 % 1004,6 hPa 0,0 l/m² 11,3 km/h (2 Bft) S 182 ° 0 min 44 W/m² 6,7 °C 5,9 °C 16,1 km/h (3 Bft)
08.01.2023 13:52 21,1 °C 9,1 °C 51 % 85 % 1004,6 hPa 0,0 l/m² 12,9 km/h (3 Bft) S 173 ° 0 min 42 W/m² 6,7 °C 5,0 °C 17,7 km/h (3 Bft)
08.01.2023 13:53 21,1 °C 9,2 °C 51 % 85 % 1004,5 hPa 0,0 l/m² 10,5 km/h (2 Bft) S 186 ° 0 min 42 W/m² 6,8 °C 6,4 °C 14,5 km/h (3 Bft)
08.01.2023 13:54 21,1 °C 9,1 °C 51 % 85 % 1004,5 hPa 0,0 l/m² 11,4 km/h (2 Bft) S 180 ° 0 min 42 W/m² 6,7 °C 5,8 °C 14,5 km/h (3 Bft)
08.01.2023 13:56 21,1 °C 9,1 °C 51 % 85 % 1004,5 hPa 0,0 l/m² 11,7 km/h (2 Bft) S 170 ° 0 min 42 W/m² 6,7 °C 5,6 °C 19,3 km/h (3 Bft)
08.01.2023 13:58 21,2 °C 9,2 °C 51 % 85 % 1004,4 hPa 0,0 l/m² 12,2 km/h (2 Bft) S-SO 167 ° 0 min 42 W/m² 6,8 °C 5,5 °C 16,1 km/h (3 Bft)
08.01.2023 14:00 21,1 °C 9,2 °C 51 % 85 % 1004,5 hPa 0,0 l/m² 11,4 km/h (2 Bft) S 178 ° 0 min 42 W/m² 6,8 °C 5,9 °C 16,1 km/h (3 Bft)
08.01.2023 14:02 21,1 °C 9,2 °C 51 % 85 % 1004,4 hPa 0,0 l/m² 9,5 km/h (2 Bft) S 178 ° 0 min 42 W/m² 6,8 °C 7,0 °C 12,9 km/h (3 Bft)
08.01.2023 14:03 21,1 °C 9,2 °C 51 % 85 % 1004,4 hPa 0,0 l/m² 12,3 km/h (2 Bft) S 178 ° 0 min 44 W/m² 6,8 °C 5,4 °C 17,7 km/h (3 Bft)
08.01.2023 14:04 21,1 °C 9,1 °C 51 % 85 % 1004,4 hPa 0,0 l/m² 13,3 km/h (3 Bft) S 178 ° 0 min 44 W/m² 6,7 °C 4,8 °C 20,9 km/h (4 Bft)
08.01.2023 14:06 21,1 °C 9,1 °C 51 % 85 % 1004,3 hPa 0,0 l/m² 15,8 km/h (3 Bft) S 179 ° 0 min 44 W/m² 6,7 °C 3,7 °C 20,9 km/h (4 Bft)
08.01.2023 14:08 21,1 °C 9,2 °C 51 % 85 % 1004,3 hPa 0,0 l/m² 14,0 km/h (3 Bft) S 176 ° 0 min 44 W/m² 6,8 °C 4,6 °C 22,5 km/h (4 Bft)
08.01.2023 14:10 21,2 °C 9,2 °C 51 % 85 % 1004,2 hPa 0,0 l/m² 15,0 km/h (3 Bft) S 180 ° 0 min 44 W/m² 6,8 °C 4,2 °C 24,1 km/h (4 Bft)
08.01.2023 14:12 21,1 °C 9,2 °C 51 % 85 % 1004,2 hPa 0,0 l/m² 12,1 km/h (2 Bft) S 175 ° 0 min 44 W/m² 6,8 °C 5,5 °C 17,7 km/h (3 Bft)
08.01.2023 14:13 21,2 °C 9,2 °C 51 % 85 % 1004,2 hPa 0,0 l/m² 14,2 km/h (3 Bft) S 180 ° 0 min 46 W/m² 6,8 °C 4,5 °C 17,7 km/h (3 Bft)
08.01.2023 14:14 21,2 °C 9,2 °C 51 % 85 % 1004,2 hPa 0,0 l/m² 12,5 km/h (2 Bft) S 180 ° 0 min 47 W/m² 6,8 °C 5,3 °C 14,5 km/h (3 Bft)
08.01.2023 14:16 21,2 °C 9,1 °C 51 % 85 % 1004,1 hPa 0,0 l/m² 13,0 km/h (3 Bft) S 175 ° 0 min 49 W/m² 6,7 °C 5,0 °C 19,3 km/h (3 Bft)
08.01.2023 14:18 21,2 °C 9,1 °C 51 % 85 % 1004,2 hPa 0,0 l/m² 14,3 km/h (3 Bft) S-SO 162 ° 0 min 49 W/m² 6,7 °C 4,4 °C 19,3 km/h (3 Bft)
08.01.2023 14:20 21,1 °C 9,2 °C 51 % 85 % 1004,1 hPa 0,0 l/m² 13,9 km/h (3 Bft) S 183 ° 0 min 51 W/m² 6,8 °C 4,7 °C 17,7 km/h (3 Bft)
08.01.2023 14:22 21,1 °C 9,2 °C 51 % 85 % 1004,1 hPa 0,0 l/m² 13,4 km/h (3 Bft) S-SO 167 ° 2 min 53 W/m² 6,8 °C 4,9 °C 20,9 km/h (4 Bft)
08.01.2023 14:23 21,1 °C 9,2 °C 51 % 85 % 1004,0 hPa 0,0 l/m² 14,7 km/h (3 Bft) S-SW 193 ° 1 min 54 W/m² 6,8 °C 4,3 °C 20,9 km/h (4 Bft)
08.01.2023 14:24 21,1 °C 9,2 °C 51 % 85 % 1004,0 hPa 0,0 l/m² 12,8 km/h (3 Bft) S 177 ° 1 min 54 W/m² 6,8 °C 5,2 °C 16,1 km/h (3 Bft)
08.01.2023 14:26 21,2 °C 9,2 °C 51 % 85 % 1004,0 hPa 0,0 l/m² 15,1 km/h (3 Bft) S 177 ° 2 min 56 W/m² 6,8 °C 4,1 °C 22,5 km/h (4 Bft)
08.01.2023 14:28 21,1 °C 9,2 °C 51 % 85 % 1004,1 hPa 0,0 l/m² 13,7 km/h (3 Bft) S 188 ° 2 min 58 W/m² 6,8 °C 4,8 °C 19,3 km/h (3 Bft)
08.01.2023 14:30 21,2 °C 9,2 °C 51 % 85 % 1004,1 hPa 0,0 l/m² 15,2 km/h (3 Bft) S-SO 167 ° 2 min 56 W/m² 6,8 °C 4,1 °C 19,3 km/h (3 Bft)
08.01.2023 14:32 21,1 °C 9,2 °C 51 % 85 % 1004,1 hPa 0,0 l/m² 15,1 km/h (3 Bft) S 182 ° 2 min 54 W/m² 6,8 °C 4,1 °C 19,3 km/h (3 Bft)
08.01.2023 14:33 21,1 °C 9,2 °C 51 % 85 % 1004,0 hPa 0,0 l/m² 12,5 km/h (2 Bft) S 184 ° 1 min 54 W/m² 6,8 °C 5,3 °C 16,1 km/h (3 Bft)
08.01.2023 14:34 21,1 °C 9,2 °C 51 % 85 % 1004,0 hPa 0,0 l/m² 10,5 km/h (2 Bft) S 176 ° 1 min 54 W/m² 6,8 °C 6,4 °C 12,9 km/h (3 Bft)
08.01.2023 14:36 21,2 °C 9,2 °C 51 % 85 % 1004,0 hPa 0,0 l/m² 12,4 km/h (2 Bft) S 173 ° 2 min 54 W/m² 6,8 °C 5,4 °C 17,7 km/h (3 Bft)
08.01.2023 14:38 21,2 °C 9,2 °C 51 % 85 % 1004,0 hPa 0,0 l/m² 11,5 km/h (2 Bft) S 173 ° 2 min 54 W/m² 6,8 °C 5,9 °C 16,1 km/h (3 Bft)
08.01.2023 14:40 21,2 °C 9,2 °C 51 % 85 % 1003,9 hPa 0,0 l/m² 10,6 km/h (2 Bft) S 179 ° 2 min 53 W/m² 6,8 °C 6,4 °C 14,5 km/h (3 Bft)
08.01.2023 14:42 21,1 °C 9,2 °C 51 % 85 % 1004,0 hPa 0,0 l/m² 12,1 km/h (2 Bft) S 180 ° 0 min 51 W/m² 6,8 °C 5,5 °C 14,5 km/h (3 Bft)
08.01.2023 14:43 21,1 °C 9,2 °C 51 % 85 % 1004,0 hPa 0,0 l/m² 12,4 km/h (2 Bft) S 177 ° 0 min 49 W/m² 6,8 °C 5,4 °C 14,5 km/h (3 Bft)
08.01.2023 14:44 21,1 °C 9,2 °C 51 % 85 % 1004,0 hPa 0,0 l/m² 13,9 km/h (3 Bft) S 184 ° 0 min 49 W/m² 6,8 °C 4,7 °C 16,1 km/h (3 Bft)
08.01.2023 14:46 21,2 °C 9,2 °C 51 % 85 % 1003,9 hPa 0,0 l/m² 12,5 km/h (2 Bft) S-SW 197 ° 0 min 47 W/m² 6,8 °C 5,3 °C 17,7 km/h (3 Bft)
08.01.2023 14:48 21,1 °C 9,2 °C 51 % 85 % 1003,9 hPa 0,0 l/m² 13,6 km/h (3 Bft) S-SW 192 ° 0 min 46 W/m² 6,8 °C 4,8 °C 22,5 km/h (4 Bft)
08.01.2023 14:50 21,2 °C 9,1 °C 51 % 85 % 1004,0 hPa 0,0 l/m² 15,2 km/h (3 Bft) S 184 ° 0 min 44 W/m² 6,7 °C 4,0 °C 19,3 km/h (3 Bft)
08.01.2023 14:52 21,1 °C 9,2 °C 51 % 85 % 1004,0 hPa 0,0 l/m² 12,3 km/h (2 Bft) S 184 ° 0 min 40 W/m² 6,8 °C 5,4 °C 17,7 km/h (3 Bft)
08.01.2023 14:53 21,1 °C 9,2 °C 51 % 85 % 1003,9 hPa 0,0 l/m² 14,1 km/h (3 Bft) S-SW 192 ° 0 min 39 W/m² 6,8 °C 4,6 °C 17,7 km/h (3 Bft)
08.01.2023 14:54 21,1 °C 9,1 °C 51 % 85 % 1003,9 hPa 0,0 l/m² 13,7 km/h (3 Bft) S 187 ° 0 min 39 W/m² 6,7 °C 4,6 °C 17,7 km/h (3 Bft)
08.01.2023 14:56 21,1 °C 9,1 °C 51 % 85 % 1003,9 hPa 0,0 l/m² 14,1 km/h (3 Bft) S 180 ° 0 min 39 W/m² 6,7 °C 4,4 °C 20,9 km/h (4 Bft)
08.01.2023 14:58 21,2 °C 9,1 °C 51 % 85 % 1004,0 hPa 0,0 l/m² 14,6 km/h (3 Bft) S 190 ° 0 min 37 W/m² 6,7 °C 4,2 °C 22,5 km/h (4 Bft)
08.01.2023 15:00 21,1 °C 9,1 °C 51 % 85 % 1004,0 hPa 0,0 l/m² 14,1 km/h (3 Bft) S 188 ° 0 min 37 W/m² 6,7 °C 4,4 °C 17,7 km/h (3 Bft)
08.01.2023 15:02 21,1 °C 9,1 °C 51 % 85 % 1004,0 hPa 0,0 l/m² 14,9 km/h (3 Bft) S 184 ° 0 min 37 W/m² 6,7 °C 4,1 °C 20,9 km/h (4 Bft)
08.01.2023 15:03 21,1 °C 9,1 °C 51 % 85 % 1004,1 hPa 0,0 l/m² 13,5 km/h (3 Bft) S 188 ° 0 min 39 W/m² 6,7 °C 4,7 °C 17,7 km/h (3 Bft)
08.01.2023 15:04 21,1 °C 9,1 °C 51 % 85 % 1004,1 hPa 0,0 l/m² 13,9 km/h (3 Bft) S 185 ° 0 min 39 W/m² 6,7 °C 4,5 °C 17,7 km/h (3 Bft)
08.01.2023 15:06 21,1 °C 9,1 °C 51 % 85 % 1004,0 hPa 0,0 l/m² 15,3 km/h (3 Bft) S 185 ° 0 min 40 W/m² 6,7 °C 3,9 °C 19,3 km/h (3 Bft)
08.01.2023 15:08 21,1 °C 9,1 °C 51 % 85 % 1004,1 hPa 0,0 l/m² 12,1 km/h (2 Bft) S 181 ° 0 min 42 W/m² 6,7 °C 5,4 °C 17,7 km/h (3 Bft)
08.01.2023 15:10 21,1 °C 9,0 °C 51 % 85 % 1004,0 hPa 0,0 l/m² 12,8 km/h (3 Bft) S 182 ° 0 min 42 W/m² 6,6 °C 5,0 °C 17,7 km/h (3 Bft)
08.01.2023 15:12 21,1 °C 9,1 °C 51 % 85 % 1004,1 hPa 0,0 l/m² 11,8 km/h (2 Bft) S 186 ° 0 min 44 W/m² 6,7 °C 5,6 °C 14,5 km/h (3 Bft)
08.01.2023 15:13 21,1 °C 9,0 °C 51 % 85 % 1004,2 hPa 0,0 l/m² 12,0 km/h (2 Bft) S 183 ° 0 min 47 W/m² 6,6 °C 5,4 °C 16,1 km/h (3 Bft)
08.01.2023 15:14 21,1 °C 9,0 °C 51 % 85 % 1004,2 hPa 0,0 l/m² 12,6 km/h (3 Bft) S 186 ° 0 min 51 W/m² 6,6 °C 5,1 °C 16,1 km/h (3 Bft)
08.01.2023 15:16 21,1 °C 9,0 °C 51 % 85 % 1004,1 hPa 0,0 l/m² 12,0 km/h (2 Bft) S-SW 195 ° 2 min 53 W/m² 6,6 °C 5,4 °C 16,1 km/h (3 Bft)
08.01.2023 15:18 21,1 °C 9,1 °C 51 % 85 % 1004,2 hPa 0,0 l/m² 11,4 km/h (2 Bft) S 185 ° 0 min 49 W/m² 6,7 °C 5,8 °C 16,1 km/h (3 Bft)
08.01.2023 15:20 21,1 °C 9,1 °C 51 % 85 % 1004,2 hPa 0,0 l/m² 10,2 km/h (2 Bft) S 184 ° 2 min 54 W/m² 6,7 °C 6,5 °C 14,5 km/h (3 Bft)
08.01.2023 15:22 21,1 °C 9,1 °C 51 % 85 % 1004,1 hPa 0,0 l/m² 11,4 km/h (2 Bft) S 175 ° 2 min 77 W/m² 6,7 °C 5,8 °C 14,5 km/h (3 Bft)
08.01.2023 15:23 21,1 °C 9,1 °C 50 % 85 % 1004,2 hPa 0,0 l/m² 9,2 km/h (2 Bft) S 174 ° 1 min 86 W/m² 6,7 °C 7,1 °C 12,9 km/h (3 Bft)
08.01.2023 15:24 21,1 °C 9,1 °C 50 % 85 % 1004,2 hPa 0,0 l/m² 7,8 km/h (2 Bft) S 178 ° 1 min 86 W/m² 6,7 °C 8,1 °C 9,7 km/h (2 Bft)
08.01.2023 15:26 21,1 °C 9,1 °C 50 % 86 % 1004,2 hPa 0,0 l/m² 9,7 km/h (2 Bft) S-SO 167 ° 2 min 100 W/m² 6,9 °C 6,8 °C 12,9 km/h (3 Bft)
08.01.2023 15:28 21,1 °C 9,2 °C 50 % 86 % 1004,2 hPa 0,0 l/m² 11,0 km/h (2 Bft) S 176 ° 2 min 123 W/m² 7,0 °C 6,1 °C 16,1 km/h (3 Bft)
08.01.2023 15:30 21,1 °C 9,2 °C 51 % 86 % 1004,2 hPa 0,0 l/m² 12,4 km/h (2 Bft) S-SO 165 ° 2 min 125 W/m² 7,0 °C 5,4 °C 17,7 km/h (3 Bft)
08.01.2023 15:32 21,1 °C 9,3 °C 51 % 85 % 1004,1 hPa 0,0 l/m² 13,2 km/h (3 Bft) S-SO 167 ° 2 min 118 W/m² 6,9 °C 5,1 °C 17,7 km/h (3 Bft)
08.01.2023 15:33 21,1 °C 9,3 °C 51 % 85 % 1004,2 hPa 0,0 l/m² 12,3 km/h (2 Bft) S 178 ° 1 min 114 W/m² 6,9 °C 5,6 °C 19,3 km/h (3 Bft)
08.01.2023 15:34 21,1 °C 9,3 °C 51 % 85 % 1004,2 hPa 0,0 l/m² 13,2 km/h (3 Bft) S 177 ° 1 min 111 W/m² 6,9 °C 5,1 °C 17,7 km/h (3 Bft)
08.01.2023 15:36 21,1 °C 9,3 °C 51 % 85 % 1004,2 hPa 0,0 l/m² 11,2 km/h (2 Bft) S-SO 162 ° 2 min 102 W/m² 6,9 °C 6,1 °C 16,1 km/h (3 Bft)
08.01.2023 15:38 21,1 °C 9,4 °C 51 % 85 % 1004,2 hPa 0,0 l/m² 10,2 km/h (2 Bft) S-SO 153 ° 2 min 90 W/m² 7,0 °C 6,8 °C 14,5 km/h (3 Bft)
08.01.2023 15:40 21,1 °C 9,4 °C 51 % 85 % 1004,2 hPa 0,0 l/m² 11,5 km/h (2 Bft) S-SO 163 ° 2 min 58 W/m² 7,0 °C 6,1 °C 17,7 km/h (3 Bft)
08.01.2023 15:42 21,1 °C 9,4 °C 52 % 85 % 1004,2 hPa 0,0 l/m² 12,5 km/h (2 Bft) S-SO 155 ° 0 min 37 W/m² 7,0 °C 5,6 °C 16,1 km/h (3 Bft)
08.01.2023 15:43 21,2 °C 9,4 °C 52 % 84 % 1004,3 hPa 0,0 l/m² 13,3 km/h (3 Bft) S-SO 155 ° 0 min 30 W/m² 6,8 °C 5,2 °C 17,7 km/h (3 Bft)
08.01.2023 15:45 21,1 °C 9,4 °C 52 % 84 % 1004,3 hPa 0,0 l/m² 11,2 km/h (2 Bft) S-SO 161 ° 0 min 21 W/m² 6,8 °C 6,2 °C 16,1 km/h (3 Bft)
08.01.2023 15:47 21,2 °C 9,4 °C 52 % 84 % 1004,4 hPa 0,0 l/m² 11,4 km/h (2 Bft) S-SO 164 ° 0 min 12 W/m² 6,8 °C 6,1 °C 17,7 km/h (3 Bft)
08.01.2023 15:49 21,2 °C 9,4 °C 52 % 84 % 1004,4 hPa 0,0 l/m² 14,1 km/h (3 Bft) S-SO 151 ° 0 min 11 W/m² 6,8 °C 4,8 °C 20,9 km/h (4 Bft)
08.01.2023 15:51 21,2 °C 9,4 °C 52 % 84 % 1004,3 hPa 0,0 l/m² 13,1 km/h (3 Bft) S-SO 157 ° 0 min 11 W/m² 6,8 °C 5,3 °C 17,7 km/h (3 Bft)
08.01.2023 15:52 21,2 °C 9,4 °C 52 % 84 % 1004,3 hPa 0,0 l/m² 13,1 km/h (3 Bft) S-SO 157 ° 0 min 11 W/m² 6,8 °C 5,3 °C 19,3 km/h (3 Bft)
08.01.2023 15:53 21,2 °C 9,4 °C 52 % 84 % 1004,3 hPa 0,0 l/m² 12,2 km/h (2 Bft) S-SO 150 ° 0 min 11 W/m² 6,8 °C 5,7 °C 14,5 km/h (3 Bft)
08.01.2023 15:55 21,2 °C 9,4 °C 52 % 84 % 1004,3 hPa 0,0 l/m² 11,9 km/h (2 Bft) S-SO 156 ° 0 min 11 W/m² 6,8 °C 5,9 °C 17,7 km/h (3 Bft)
08.01.2023 15:57 21,2 °C 9,3 °C 52 % 84 % 1004,1 hPa 0,0 l/m² 10,4 km/h (2 Bft) S-SO 150 ° 0 min 11 W/m² 6,7 °C 6,6 °C 14,5 km/h (3 Bft)
08.01.2023 15:59 21,2 °C 9,3 °C 52 % 84 % 1004,1 hPa 0,0 l/m² 12,3 km/h (2 Bft) SO 146 ° 0 min 9 W/m² 6,7 °C 5,6 °C 16,1 km/h (3 Bft)
08.01.2023 16:01 21,2 °C 9,3 °C 52 % 84 % 1004,1 hPa 0,0 l/m² 9,6 km/h (2 Bft) SO 141 ° 0 min 9 W/m² 6,7 °C 7,1 °C 14,5 km/h (3 Bft)
08.01.2023 16:02 21,3 °C 9,3 °C 52 % 84 % 1004,1 hPa 0,0 l/m² 11,7 km/h (2 Bft) SO 139 ° 0 min 9 W/m² 6,7 °C 5,9 °C 14,5 km/h (3 Bft)
08.01.2023 16:03 21,3 °C 9,3 °C 52 % 84 % 1004,1 hPa 0,0 l/m² 9,8 km/h (2 Bft) SO 146 ° 0 min 9 W/m² 6,7 °C 6,9 °C 14,5 km/h (3 Bft)
08.01.2023 16:05 21,3 °C 9,2 °C 52 % 84 % 1004,1 hPa 0,0 l/m² 12,1 km/h (2 Bft) SO 144 ° 0 min 7 W/m² 6,6 °C 5,5 °C 16,1 km/h (3 Bft)
08.01.2023 16:07 21,3 °C 9,2 °C 52 % 84 % 1004,1 hPa 0,0 l/m² 11,8 km/h (2 Bft) SO 126 ° 0 min 7 W/m² 6,6 °C 5,7 °C 16,1 km/h (3 Bft)
08.01.2023 16:09 21,3 °C 9,2 °C 52 % 84 % 1004,2 hPa 0,0 l/m² 8,6 km/h (2 Bft) S-SO 163 ° 0 min 5 W/m² 6,6 °C 7,6 °C 12,9 km/h (3 Bft)
08.01.2023 16:11 21,3 °C 9,2 °C 51 % 84 % 1004,2 hPa 0,0 l/m² 9,9 km/h (2 Bft) SO 133 ° 0 min 0 W/m² 6,6 °C 6,8 °C 12,9 km/h (3 Bft)
08.01.2023 16:12 21,3 °C 9,2 °C 51 % 84 % 1004,2 hPa 0,0 l/m² 6,5 km/h (2 Bft) SO 140 ° 0 min 0 W/m² 6,6 °C 9,2 °C 8,0 km/h (2 Bft)
08.01.2023 16:13 21,3 °C 9,2 °C 51 % 84 % 1004,2 hPa 0,0 l/m² 6,7 km/h (2 Bft) S-SO 151 ° 0 min 0 W/m² 6,6 °C 9,0 °C 8,0 km/h (2 Bft)
08.01.2023 16:15 21,3 °C 9,2 °C 51 % 84 % 1004,2 hPa 0,0 l/m² 8,2 km/h (2 Bft) SO 132 ° 0 min 0 W/m² 6,6 °C 7,9 °C 11,3 km/h (2 Bft)
08.01.2023 16:17 21,3 °C 9,2 °C 51 % 84 % 1004,1 hPa 0,0 l/m² 7,3 km/h (2 Bft) SO 146 ° 0 min 0 W/m² 6,6 °C 8,5 °C 9,7 km/h (2 Bft)
08.01.2023 16:19 21,3 °C 9,2 °C 51 % 84 % 1004,2 hPa 0,0 l/m² 4,5 km/h (1 Bft) SO 144 ° 0 min 0 W/m² 6,6 °C 9,2 °C 6,4 km/h (2 Bft)
08.01.2023 16:21 21,3 °C 9,1 °C 51 % 84 % 1004,2 hPa 0,0 l/m² 4,7 km/h (1 Bft) S-SO 147 ° 0 min 0 W/m² 6,5 °C 9,1 °C 6,4 km/h (2 Bft)
08.01.2023 16:22 21,3 °C 9,1 °C 51 % 84 % 1004,2 hPa 0,0 l/m² 6,0 km/h (2 Bft) SO 140 ° 0 min 0 W/m² 6,5 °C 9,1 °C 8,0 km/h (2 Bft)
08.01.2023 16:23 21,3 °C 9,1 °C 51 % 84 % 1004,2 hPa 0,0 l/m² 6,2 km/h (2 Bft) SO 142 ° 0 min 0 W/m² 6,5 °C 9,1 °C 8,0 km/h (2 Bft)
08.01.2023 16:25 21,3 °C 9,1 °C 51 % 84 % 1004,2 hPa 0,0 l/m² 6,5 km/h (2 Bft) SO 146 ° 0 min 0 W/m² 6,5 °C 9,1 °C 8,0 km/h (2 Bft)
08.01.2023 16:27 21,3 °C 9,1 °C 51 % 84 % 1004,1 hPa 0,0 l/m² 6,4 km/h (2 Bft) SO 143 ° 0 min 0 W/m² 6,5 °C 9,1 °C 9,7 km/h (2 Bft)
08.01.2023 16:29 21,3 °C 9,1 °C 51 % 83 % 1004,1 hPa 0,0 l/m² 6,6 km/h (2 Bft) SO 133 ° 0 min 0 W/m² 6,4 °C 9,0 °C 11,3 km/h (2 Bft)
08.01.2023 16:31 21,3 °C 9,1 °C 52 % 83 % 1004,1 hPa 0,0 l/m² 6,6 km/h (2 Bft) SO 141 ° 0 min 0 W/m² 6,4 °C 9,0 °C 11,3 km/h (2 Bft)
08.01.2023 16:32 21,3 °C 9,1 °C 52 % 84 % 1004,1 hPa 0,0 l/m² 7,0 km/h (2 Bft) O-SO 121 ° 0 min 0 W/m² 6,5 °C 8,7 °C 9,7 km/h (2 Bft)
08.01.2023 16:33 21,3 °C 9,1 °C 52 % 83 % 1004,1 hPa 0,0 l/m² 5,5 km/h (2 Bft) SO 135 ° 0 min 0 W/m² 6,4 °C 9,1 °C 11,3 km/h (2 Bft)
08.01.2023 16:35 21,3 °C 9,1 °C 52 % 83 % 1004,1 hPa 0,0 l/m² 5,6 km/h (2 Bft) SO 134 ° 0 min 0 W/m² 6,4 °C 9,1 °C 8,0 km/h (2 Bft)
08.01.2023 16:36 21,3 °C 9,1 °C 52 % 83 % 1004,1 hPa 0,0 l/m² 3,6 km/h (1 Bft) SO 132 ° 0 min 0 W/m² 6,4 °C 9,1 °C 6,4 km/h (2 Bft)
08.01.2023 16:37 21,3 °C 9,1 °C 52 % 83 % 1004,1 hPa 0,0 l/m² 6,9 km/h (2 Bft) O-SO 117 ° 0 min 0 W/m² 6,4 °C 8,7 °C 9,7 km/h (2 Bft)
08.01.2023 16:38 21,3 °C 9,1 °C 52 % 83 % 1004,1 hPa 0,0 l/m² 7,0 km/h (2 Bft) SO 125 ° 0 min 0 W/m² 6,4 °C 8,7 °C 11,3 km/h (2 Bft)
08.01.2023 16:40 21,3 °C 9,1 °C 52 % 83 % 1004,1 hPa 0,0 l/m² 7,6 km/h (2 Bft) SO 124 ° 0 min 0 W/m² 6,4 °C 8,2 °C 11,3 km/h (2 Bft)
08.01.2023 16:42 21,3 °C 9,1 °C 52 % 83 % 1004,1 hPa 0,0 l/m² 6,4 km/h (2 Bft) SO 128 ° 0 min 0 W/m² 6,4 °C 9,1 °C 9,7 km/h (2 Bft)
08.01.2023 16:43 21,3 °C 9,1 °C 52 % 83 % 1004,0 hPa 0,0 l/m² 5,7 km/h (2 Bft) SO 137 ° 0 min 0 W/m² 6,4 °C 9,1 °C 8,0 km/h (2 Bft)
08.01.2023 16:44 21,3 °C 9,1 °C 52 % 83 % 1004,0 hPa 0,0 l/m² 5,9 km/h (2 Bft) SO 132 ° 0 min 0 W/m² 6,4 °C 9,1 °C 6,4 km/h (2 Bft)
08.01.2023 16:46 21,4 °C 9,1 °C 52 % 83 % 1004,0 hPa 0,0 l/m² 5,6 km/h (2 Bft) SO 124 ° 0 min 0 W/m² 6,4 °C 9,1 °C 8,0 km/h (2 Bft)
08.01.2023 16:48 21,4 °C 9,1 °C 52 % 83 % 1004,1 hPa 0,0 l/m² 7,4 km/h (2 Bft) SO 128 ° 0 min 0 W/m² 6,4 °C 8,3 °C 11,3 km/h (2 Bft)
08.01.2023 16:50 21,4 °C 9,0 °C 52 % 83 % 1004,1 hPa 0,0 l/m² 4,8 km/h (1 Bft) O-SO 123 ° 0 min 0 W/m² 6,3 °C 9,0 °C 6,4 km/h (2 Bft)
08.01.2023 16:52 21,4 °C 9,1 °C 52 % 83 % 1004,0 hPa 0,0 l/m² 5,1 km/h (1 Bft) SO 126 ° 0 min 0 W/m² 6,4 °C 9,1 °C 6,4 km/h (2 Bft)
08.01.2023 16:53 21,4 °C 9,0 °C 52 % 83 % 1003,9 hPa 0,0 l/m² 5,3 km/h (1 Bft) O-SO 114 ° 0 min 0 W/m² 6,3 °C 9,0 °C 9,7 km/h (2 Bft)
08.01.2023 16:54 21,4 °C 9,0 °C 52 % 83 % 1003,9 hPa 0,0 l/m² 4,0 km/h (1 Bft) O-SO 106 ° 0 min 0 W/m² 6,3 °C 9,0 °C 4,8 km/h (1 Bft)
08.01.2023 16:56 21,4 °C 8,9 °C 52 % 83 % 1003,9 hPa 0,0 l/m² 5,2 km/h (1 Bft) SO 128 ° 0 min 0 W/m² 6,2 °C 8,9 °C 6,4 km/h (2 Bft)
08.01.2023 16:58 21,4 °C 8,9 °C 52 % 83 % 1003,9 hPa 0,0 l/m² 4,8 km/h (1 Bft) O-SO 123 ° 0 min 0 W/m² 6,2 °C 8,9 °C 9,7 km/h (2 Bft)
08.01.2023 17:00 21,4 °C 8,9 °C 52 % 83 % 1003,9 hPa 0,0 l/m² 6,0 km/h (2 Bft) O-SO 106 ° 0 min 0 W/m² 6,2 °C 8,9 °C 8,0 km/h (2 Bft)
08.01.2023 17:02 21,4 °C 8,8 °C 52 % 83 % 1003,9 hPa 0,0 l/m² 6,3 km/h (2 Bft) O-SO 109 ° 0 min 0 W/m² 6,1 °C 8,8 °C 9,7 km/h (2 Bft)
08.01.2023 17:03 21,4 °C 8,8 °C 52 % 83 % 1003,9 hPa 0,0 l/m² 6,4 km/h (2 Bft) O-SO 112 ° 0 min 0 W/m² 6,1 °C 8,8 °C 9,7 km/h (2 Bft)
08.01.2023 17:04 21,4 °C 8,8 °C 52 % 83 % 1003,9 hPa 0,0 l/m² 5,2 km/h (1 Bft) O-SO 115 ° 0 min 0 W/m² 6,1 °C 8,8 °C 6,4 km/h (2 Bft)
08.01.2023 17:06 21,4 °C 8,8 °C 52 % 83 % 1003,9 hPa 0,0 l/m² 4,9 km/h (1 Bft) O-SO 115 ° 0 min 0 W/m² 6,1 °C 8,8 °C 6,4 km/h (2 Bft)
08.01.2023 17:08 21,4 °C 8,8 °C 52 % 83 % 1003,8 hPa 0,0 l/m² 5,0 km/h (1 Bft) O-SO 114 ° 0 min 0 W/m² 6,1 °C 8,8 °C 6,4 km/h (2 Bft)
08.01.2023 17:10 21,4 °C 8,7 °C 53 % 83 % 1003,9 hPa 0,0 l/m² 6,6 km/h (2 Bft) O-SO 108 ° 0 min 0 W/m² 6,0 °C 8,6 °C 9,7 km/h (2 Bft)
08.01.2023 17:12 21,4 °C 8,6 °C 53 % 83 % 1003,9 hPa 0,0 l/m² 5,8 km/h (2 Bft) O-SO 108 ° 0 min 0 W/m² 5,9 °C 8,6 °C 6,4 km/h (2 Bft)
08.01.2023 17:14 21,4 °C 8,6 °C 53 % 83 % 1003,9 hPa 0,0 l/m² 4,5 km/h (1 Bft) O-SO 109 ° 0 min 0 W/m² 5,9 °C 8,6 °C 6,4 km/h (2 Bft)
08.01.2023 17:16 21,4 °C 8,6 °C 53 % 83 % 1003,9 hPa 0,0 l/m² 4,0 km/h (1 Bft) O-SO 111 ° 0 min 0 W/m² 5,9 °C 8,6 °C 6,4 km/h (2 Bft)
08.01.2023 17:18 21,4 °C 8,6 °C 53 % 83 % 1003,9 hPa 0,0 l/m² 4,1 km/h (1 Bft) O-SO 111 ° 0 min 0 W/m² 5,9 °C 8,6 °C 4,8 km/h (1 Bft)
08.01.2023 17:20 21,4 °C 8,5 °C 53 % 83 % 1004,0 hPa 0,0 l/m² 4,0 km/h (1 Bft) O-SO 111 ° 0 min 0 W/m² 5,8 °C 8,5 °C 6,4 km/h (2 Bft)
08.01.2023 17:22 21,4 °C 8,5 °C 53 % 83 % 1003,9 hPa 0,0 l/m² 4,2 km/h (1 Bft) O-SO 111 ° 0 min 0 W/m² 5,8 °C 8,5 °C 6,4 km/h (2 Bft)
08.01.2023 17:23 21,4 °C 8,4 °C 53 % 83 % 1003,9 hPa 0,0 l/m² 4,6 km/h (1 Bft) O-SO 112 ° 0 min 0 W/m² 5,7 °C 8,4 °C 6,4 km/h (2 Bft)
08.01.2023 17:24 21,4 °C 8,4 °C 53 % 83 % 1003,9 hPa 0,0 l/m² 6,0 km/h (2 Bft) SO 125 ° 0 min 0 W/m² 5,7 °C 8,4 °C 6,4 km/h (2 Bft)
08.01.2023 17:26 21,4 °C 8,4 °C 53 % 83 % 1003,9 hPa 0,0 l/m² 4,7 km/h (1 Bft) O-SO 121 ° 0 min 0 W/m² 5,7 °C 8,4 °C 6,4 km/h (2 Bft)
08.01.2023 17:28 21,4 °C 8,4 °C 53 % 83 % 1003,8 hPa 0,0 l/m² 6,5 km/h (2 Bft) O-SO 110 ° 0 min 0 W/m² 5,7 °C 8,3 °C 9,7 km/h (2 Bft)
08.01.2023 17:30 21,4 °C 8,3 °C 53 % 84 % 1003,8 hPa 0,0 l/m² 6,2 km/h (2 Bft) O-SO 110 ° 0 min 0 W/m² 5,8 °C 8,3 °C 9,7 km/h (2 Bft)
08.01.2023 17:32 21,4 °C 8,3 °C 53 % 84 % 1003,8 hPa 0,0 l/m² 6,6 km/h (2 Bft) O-SO 116 ° 0 min 0 W/m² 5,8 °C 8,2 °C 9,7 km/h (2 Bft)
08.01.2023 17:34 21,4 °C 8,3 °C 53 % 84 % 1003,9 hPa 0,0 l/m² 6,6 km/h (2 Bft) O-SO 119 ° 0 min 0 W/m² 5,8 °C 8,2 °C 11,3 km/h (2 Bft)
08.01.2023 17:36 21,4 °C 8,3 °C 53 % 84 % 1003,9 hPa 0,0 l/m² 5,4 km/h (2 Bft) O-SO 119 ° 0 min 0 W/m² 5,8 °C 8,3 °C 8,0 km/h (2 Bft)
08.01.2023 17:38 21,4 °C 8,3 °C 53 % 84 % 1003,8 hPa 0,0 l/m² 6,4 km/h (2 Bft) O-SO 120 ° 0 min 0 W/m² 5,8 °C 8,3 °C 11,3 km/h (2 Bft)
08.01.2023 17:40 21,4 °C 8,3 °C 53 % 84 % 1003,8 hPa 0,0 l/m² 5,5 km/h (2 Bft) O-SO 109 ° 0 min 0 W/m² 5,8 °C 8,3 °C 6,4 km/h (2 Bft)
08.01.2023 17:42 21,4 °C 8,3 °C 54 % 84 % 1003,9 hPa 0,0 l/m² 5,3 km/h (1 Bft) O-SO 113 ° 0 min 0 W/m² 5,8 °C 8,3 °C 6,4 km/h (2 Bft)
08.01.2023 17:43 21,4 °C 8,3 °C 54 % 84 % 1003,8 hPa 0,0 l/m² 5,0 km/h (1 Bft) O-SO 115 ° 0 min 0 W/m² 5,8 °C 8,3 °C 6,4 km/h (2 Bft)
08.01.2023 17:44 21,4 °C 8,3 °C 54 % 84 % 1003,8 hPa 0,0 l/m² 6,4 km/h (2 Bft) O-SO 104 ° 0 min 0 W/m² 5,8 °C 8,3 °C 9,7 km/h (2 Bft)
08.01.2023 17:46 21,4 °C 8,3 °C 54 % 84 % 1003,8 hPa 0,0 l/m² 5,0 km/h (1 Bft) O-SO 109 ° 0 min 0 W/m² 5,8 °C 8,3 °C 9,7 km/h (2 Bft)
08.01.2023 17:48 21,4 °C 8,3 °C 54 % 84 % 1003,8 hPa 0,0 l/m² 5,9 km/h (2 Bft) O 101 ° 0 min 0 W/m² 5,8 °C 8,3 °C 9,7 km/h (2 Bft)
08.01.2023 17:50 21,4 °C 8,3 °C 54 % 85 % 1003,8 hPa 0,0 l/m² 6,9 km/h (2 Bft) O-SO 103 ° 0 min 0 W/m² 5,9 °C 7,9 °C 9,7 km/h (2 Bft)
08.01.2023 17:52 21,4 °C 8,3 °C 54 % 85 % 1003,8 hPa 0,0 l/m² 6,5 km/h (2 Bft) O-SO 102 ° 0 min 0 W/m² 5,9 °C 8,2 °C 9,7 km/h (2 Bft)
08.01.2023 17:53 21,4 °C 8,3 °C 54 % 85 % 1003,6 hPa 0,0 l/m² 8,1 km/h (2 Bft) O 90 ° 0 min 0 W/m² 5,9 °C 7,0 °C 9,7 km/h (2 Bft)
08.01.2023 17:54 21,4 °C 8,2 °C 54 % 85 % 1003,6 hPa 0,0 l/m² 7,2 km/h (2 Bft) O 94 ° 0 min 0 W/m² 5,8 °C 7,6 °C 9,7 km/h (2 Bft)
08.01.2023 17:56 21,4 °C 8,2 °C 54 % 85 % 1003,6 hPa 0,0 l/m² 6,7 km/h (2 Bft) O 101 ° 0 min 0 W/m² 5,8 °C 8,0 °C 9,7 km/h (2 Bft)
08.01.2023 17:58 21,4 °C 8,2 °C 54 % 85 % 1003,5 hPa 0,0 l/m² 5,7 km/h (2 Bft) O-SO 108 ° 0 min 0 W/m² 5,8 °C 8,2 °C 9,7 km/h (2 Bft)
08.01.2023 18:00 21,4 °C 8,2 °C 54 % 85 % 1003,3 hPa 0,0 l/m² 7,1 km/h (2 Bft) O-SO 113 ° 0 min 0 W/m² 5,8 °C 7,7 °C 11,3 km/h (2 Bft)
08.01.2023 18:02 21,4 °C 8,2 °C 54 % 84 % 1003,3 hPa 0,0 l/m² 5,2 km/h (1 Bft) O-SO 113 ° 0 min 0 W/m² 5,7 °C 8,2 °C 9,7 km/h (2 Bft)
08.01.2023 18:03 21,4 °C 8,1 °C 54 % 84 % 1003,3 hPa 0,0 l/m² 5,8 km/h (2 Bft) O-SO 115 ° 0 min 0 W/m² 5,6 °C 8,1 °C 6,4 km/h (2 Bft)
08.01.2023 18:04 21,4 °C 8,1 °C 54 % 84 % 1003,3 hPa 0,0 l/m² 6,2 km/h (2 Bft) O-SO 115 ° 0 min 0 W/m² 5,6 °C 8,1 °C 6,4 km/h (2 Bft)
08.01.2023 18:06 21,4 °C 8,0 °C 54 % 84 % 1003,3 hPa 0,0 l/m² 5,3 km/h (1 Bft) O-SO 109 ° 0 min 0 W/m² 5,5 °C 8,0 °C 11,3 km/h (2 Bft)
08.01.2023 18:08 21,4 °C 7,9 °C 54 % 84 % 1003,3 hPa 0,0 l/m² 7,0 km/h (2 Bft) SO 136 ° 0 min 0 W/m² 5,4 °C 7,4 °C 11,3 km/h (2 Bft)
08.01.2023 18:10 21,4 °C 7,9 °C 54 % 84 % 1003,2 hPa 0,0 l/m² 6,3 km/h (2 Bft) O-SO 108 ° 0 min 0 W/m² 5,4 °C 7,9 °C 11,3 km/h (2 Bft)
08.01.2023 18:12 21,4 °C 7,8 °C 54 % 85 % 1003,4 hPa 0,0 l/m² 5,9 km/h (2 Bft) O-SO 107 ° 0 min 0 W/m² 5,4 °C 7,8 °C 9,7 km/h (2 Bft)
08.01.2023 18:13 21,4 °C 7,8 °C 54 % 85 % 1003,5 hPa 0,0 l/m² 6,4 km/h (2 Bft) SO 128 ° 0 min 0 W/m² 5,4 °C 7,8 °C 9,7 km/h (2 Bft)
08.01.2023 18:14 21,4 °C 7,8 °C 54 % 85 % 1003,4 hPa 0,0 l/m² 4,6 km/h (1 Bft) SO 127 ° 0 min 0 W/m² 5,4 °C 7,8 °C 6,4 km/h (2 Bft)
08.01.2023 18:16 21,4 °C 7,8 °C 54 % 85 % 1003,4 hPa 0,0 l/m² 5,3 km/h (1 Bft) SO 130 ° 0 min 0 W/m² 5,4 °C 7,8 °C 11,3 km/h (2 Bft)
08.01.2023 18:18 21,4 °C 7,8 °C 54 % 85 % 1003,4 hPa 0,0 l/m² 7,1 km/h (2 Bft) SO 134 ° 0 min 0 W/m² 5,4 °C 7,2 °C 11,3 km/h (2 Bft)
08.01.2023 18:20 21,3 °C 7,7 °C 54 % 85 % 1003,4 hPa 0,0 l/m² 5,5 km/h (2 Bft) O-SO 115 ° 0 min 0 W/m² 5,3 °C 7,7 °C 8,0 km/h (2 Bft)
08.01.2023 18:22 21,4 °C 7,7 °C 54 % 85 % 1003,2 hPa 0,0 l/m² 6,8 km/h (2 Bft) O-SO 114 ° 0 min 0 W/m² 5,3 °C 7,4 °C 9,7 km/h (2 Bft)
08.01.2023 18:23 21,4 °C 7,7 °C 54 % 85 % 1003,2 hPa 0,0 l/m² 6,4 km/h (2 Bft) O-SO 114 ° 0 min 0 W/m² 5,3 °C 7,7 °C 9,7 km/h (2 Bft)
08.01.2023 18:24 21,4 °C 7,7 °C 54 % 85 % 1003,2 hPa 0,0 l/m² 5,2 km/h (1 Bft) SO 125 ° 0 min 0 W/m² 5,3 °C 7,7 °C 6,4 km/h (2 Bft)
08.01.2023 18:26 21,4 °C 7,7 °C 54 % 85 % 1003,1 hPa 0,0 l/m² 7,0 km/h (2 Bft) O-SO 115 ° 0 min 0 W/m² 5,3 °C 7,2 °C 11,3 km/h (2 Bft)
08.01.2023 18:28 21,4 °C 7,7 °C 55 % 86 % 1003,1 hPa 0,0 l/m² 6,9 km/h (2 Bft) O-SO 109 ° 0 min 0 W/m² 5,5 °C 7,3 °C 11,3 km/h (2 Bft)
08.01.2023 18:30 21,4 °C 7,7 °C 55 % 86 % 1003,0 hPa 0,0 l/m² 7,9 km/h (2 Bft) O-SO 103 ° 0 min 0 W/m² 5,5 °C 6,5 °C 11,3 km/h (2 Bft)
08.01.2023 18:32 21,4 °C 7,7 °C 55 % 86 % 1003,1 hPa 0,0 l/m² 6,7 km/h (2 Bft) O-SO 114 ° 0 min 0 W/m² 5,5 °C 7,5 °C 11,3 km/h (2 Bft)
08.01.2023 18:33 21,4 °C 7,7 °C 55 % 86 % 1003,2 hPa 0,0 l/m² 5,1 km/h (1 Bft) O-SO 122 ° 0 min 0 W/m² 5,5 °C 7,7 °C 8,0 km/h (2 Bft)
08.01.2023 18:34 21,4 °C 7,7 °C 55 % 86 % 1003,2 hPa 0,0 l/m² 6,0 km/h (2 Bft) O-SO 109 ° 0 min 0 W/m² 5,5 °C 7,7 °C 6,4 km/h (2 Bft)
08.01.2023 18:36 21,4 °C 7,6 °C 55 % 86 % 1003,2 hPa 0,0 l/m² 4,9 km/h (1 Bft) O 100 ° 0 min 0 W/m² 5,4 °C 7,6 °C 6,4 km/h (2 Bft)
08.01.2023 18:38 21,4 °C 7,6 °C 55 % 85 % 1003,1 hPa 0,0 l/m² 5,5 km/h (2 Bft) O 100 ° 0 min 0 W/m² 5,2 °C 7,6 °C 6,4 km/h (2 Bft)
08.01.2023 18:40 21,4 °C 7,6 °C 55 % 86 % 1003,2 hPa 0,0 l/m² 6,3 km/h (2 Bft) O 85 ° 0 min 0 W/m² 5,4 °C 7,6 °C 9,7 km/h (2 Bft)
08.01.2023 18:42 21,4 °C 7,6 °C 55 % 86 % 1003,2 hPa 0,0 l/m² 6,1 km/h (2 Bft) O 82 ° 0 min 0 W/m² 5,4 °C 7,6 °C 9,7 km/h (2 Bft)
08.01.2023 18:43 21,4 °C 7,6 °C 55 % 86 % 1003,2 hPa 0,0 l/m² 6,7 km/h (2 Bft) O 91 ° 0 min 0 W/m² 5,4 °C 7,4 °C 9,7 km/h (2 Bft)
08.01.2023 18:45 21,4 °C 7,6 °C 55 % 86 % 1003,2 hPa 0,0 l/m² 7,4 km/h (2 Bft) O 91 ° 0 min 0 W/m² 5,4 °C 6,8 °C 11,3 km/h (2 Bft)
08.01.2023 18:47 21,4 °C 7,6 °C 55 % 86 % 1003,1 hPa 0,0 l/m² 6,9 km/h (2 Bft) O 84 ° 0 min 0 W/m² 5,4 °C 7,2 °C 11,3 km/h (2 Bft)
08.01.2023 18:49 21,4 °C 7,6 °C 55 % 86 % 1003,1 hPa 0,0 l/m² 6,0 km/h (2 Bft) O-NO 77 ° 0 min 0 W/m² 5,4 °C 7,6 °C 8,0 km/h (2 Bft)
08.01.2023 18:51 21,4 °C 7,7 °C 55 % 86 % 1003,0 hPa 0,0 l/m² 4,9 km/h (1 Bft) O 82 ° 0 min 0 W/m² 5,5 °C 7,7 °C 6,4 km/h (2 Bft)
08.01.2023 18:52 21,4 °C 7,6 °C 55 % 86 % 1003,0 hPa 0,0 l/m² 5,5 km/h (2 Bft) O 83 ° 0 min 0 W/m² 5,4 °C 7,6 °C 6,4 km/h (2 Bft)
08.01.2023 18:53 21,4 °C 7,7 °C 55 % 86 % 1003,0 hPa 0,0 l/m² 6,8 km/h (2 Bft) O 82 ° 0 min 0 W/m² 5,5 °C 7,4 °C 8,0 km/h (2 Bft)
08.01.2023 18:55 21,4 °C 7,7 °C 55 % 86 % 1002,9 hPa 0,0 l/m² 7,4 km/h (2 Bft) O-NO 75 ° 0 min 0 W/m² 5,5 °C 6,9 °C 11,3 km/h (2 Bft)
08.01.2023 18:57 21,4 °C 7,7 °C 55 % 86 % 1002,9 hPa 0,0 l/m² 6,2 km/h (2 Bft) O 85 ° 0 min 0 W/m² 5,5 °C 7,7 °C 8,0 km/h (2 Bft)
08.01.2023 18:59 21,4 °C 7,7 °C 55 % 86 % 1002,9 hPa 0,0 l/m² 6,0 km/h (2 Bft) O 84 ° 0 min 0 W/m² 5,5 °C 7,7 °C 8,0 km/h (2 Bft)
08.01.2023 19:01 21,4 °C 7,7 °C 55 % 86 % 1002,9 hPa 0,0 l/m² 6,2 km/h (2 Bft) O-NO 72 ° 0 min 0 W/m² 5,5 °C 7,7 °C 8,0 km/h (2 Bft)
08.01.2023 19:02 21,4 °C 7,7 °C 56 % 86 % 1002,9 hPa 0,0 l/m² 4,1 km/h (1 Bft) O-NO 72 ° 0 min 0 W/m² 5,5 °C 7,7 °C 4,8 km/h (1 Bft)
08.01.2023 19:03 21,4 °C 7,7 °C 56 % 86 % 1002,9 hPa 0,0 l/m² 5,6 km/h (2 Bft) O 86 ° 0 min 0 W/m² 5,5 °C 7,7 °C 6,4 km/h (2 Bft)
08.01.2023 19:05 21,4 °C 7,7 °C 56 % 86 % 1003,0 hPa 0,0 l/m² 6,9 km/h (2 Bft) O 94 ° 0 min 0 W/m² 5,5 °C 7,3 °C 9,7 km/h (2 Bft)
08.01.2023 19:07 21,4 °C 7,7 °C 56 % 86 % 1003,0 hPa 0,0 l/m² 3,8 km/h (1 Bft) O 94 ° 0 min 0 W/m² 5,5 °C 7,7 °C 6,4 km/h (2 Bft)
08.01.2023 19:09 21,4 °C 7,7 °C 56 % 86 % 1003,0 hPa 0,0 l/m² 3,3 km/h (1 Bft) O 94 ° 0 min 0 W/m² 5,5 °C 7,7 °C 6,4 km/h (2 Bft)
08.01.2023 19:12 21,4 °C 7,7 °C 56 % 86 % 1003,0 hPa 0,0 l/m² 2,2 km/h (1 Bft) O 94 ° 0 min 0 W/m² 5,5 °C 7,7 °C 4,8 km/h (1 Bft)
08.01.2023 19:15 21,4 °C 7,7 °C 56 % 87 % 1003,0 hPa 0,0 l/m² 2,8 km/h (1 Bft) O 96 ° 0 min 0 W/m² 5,7 °C 7,7 °C 9,7 km/h (2 Bft)
08.01.2023 19:17 21,4 °C 7,7 °C 56 % 87 % 1003,0 hPa 0,0 l/m² 5,7 km/h (2 Bft) O-SO 117 ° 0 min 0 W/m² 5,7 °C 7,7 °C 9,7 km/h (2 Bft)
08.01.2023 19:19 21,4 °C 7,7 °C 56 % 87 % 1002,9 hPa 0,0 l/m² 5,7 km/h (2 Bft) SO 130 ° 0 min 0 W/m² 5,7 °C 7,7 °C 8,0 km/h (2 Bft)
08.01.2023 19:22 21,4 °C 7,8 °C 56 % 87 % 1002,8 hPa 0,0 l/m² 6,9 km/h (2 Bft) O-SO 109 ° 0 min 0 W/m² 5,8 °C 7,4 °C 16,1 km/h (3 Bft)
08.01.2023 19:23 21,4 °C 7,8 °C 56 % 87 % 1002,9 hPa 0,0 l/m² 3,3 km/h (1 Bft) O-SO 109 ° 0 min 0 W/m² 5,8 °C 7,8 °C 4,8 km/h (1 Bft)
08.01.2023 19:24 21,4 °C 7,8 °C 56 % 86 % 1002,9 hPa 0,0 l/m² 2,3 km/h (1 Bft) O-SO 109 ° 0 min 0 W/m² 5,6 °C 7,8 °C 3,2 km/h (1 Bft)
08.01.2023 19:26 21,4 °C 7,9 °C 56 % 87 % 1002,9 hPa 0,0 l/m² 4,0 km/h (1 Bft) O-SO 121 ° 0 min 0 W/m² 5,9 °C 7,9 °C 8,0 km/h (2 Bft)
08.01.2023 19:28 21,4 °C 7,9 °C 56 % 86 % 1002,9 hPa 0,0 l/m² 7,9 km/h (2 Bft) O-SO 123 ° 0 min 0 W/m² 5,7 °C 6,7 °C 12,9 km/h (3 Bft)
08.01.2023 19:30 21,4 °C 7,9 °C 56 % 86 % 1002,8 hPa 0,0 l/m² 4,2 km/h (1 Bft) SO 137 ° 0 min 0 W/m² 5,7 °C 7,9 °C 8,0 km/h (2 Bft)
08.01.2023 19:32 21,4 °C 7,9 °C 56 % 86 % 1002,8 hPa 0,0 l/m² 5,5 km/h (2 Bft) SO 138 ° 0 min 0 W/m² 5,7 °C 7,9 °C 8,0 km/h (2 Bft)
08.01.2023 19:33 21,4 °C 8,0 °C 56 % 86 % 1002,9 hPa 0,0 l/m² 7,7 km/h (2 Bft) SO 140 ° 0 min 0 W/m² 5,8 °C 7,0 °C 11,3 km/h (2 Bft)
08.01.2023 19:34 21,4 °C 7,9 °C 56 % 86 % 1002,9 hPa 0,0 l/m² 4,8 km/h (1 Bft) SO 141 ° 0 min 0 W/m² 5,7 °C 7,9 °C 8,0 km/h (2 Bft)
08.01.2023 19:36 21,5 °C 8,0 °C 56 % 86 % 1002,8 hPa 0,0 l/m² 6,1 km/h (2 Bft) S-SO 148 ° 0 min 0 W/m² 5,8 °C 8,0 °C 11,3 km/h (2 Bft)
08.01.2023 19:38 21,4 °C 8,0 °C 55 % 86 % 1002,8 hPa 0,0 l/m² 5,0 km/h (1 Bft) O-SO 121 ° 0 min 0 W/m² 5,8 °C 8,0 °C 9,7 km/h (2 Bft)
08.01.2023 19:40 21,4 °C 8,0 °C 55 % 86 % 1002,7 hPa 0,0 l/m² 4,2 km/h (1 Bft) O-SO 123 ° 0 min 0 W/m² 5,8 °C 8,0 °C 8,0 km/h (2 Bft)
08.01.2023 19:42 21,4 °C 8,0 °C 55 % 86 % 1002,7 hPa 0,0 l/m² 3,7 km/h (1 Bft) SO 128 ° 0 min 0 W/m² 5,8 °C 8,0 °C 4,8 km/h (1 Bft)
08.01.2023 19:43 21,4 °C 8,0 °C 55 % 86 % 1002,7 hPa 0,0 l/m² 1,7 km/h (1 Bft) SO 124 ° 0 min 0 W/m² 5,8 °C 8,0 °C 6,4 km/h (2 Bft)
08.01.2023 19:44 21,4 °C 8,0 °C 55 % 86 % 1002,7 hPa 0,0 l/m² 4,1 km/h (1 Bft) SO 124 ° 0 min 0 W/m² 5,8 °C 8,0 °C 4,8 km/h (1 Bft)
08.01.2023 19:46 21,4 °C 8,0 °C 55 % 85 % 1002,8 hPa 0,0 l/m² 5,1 km/h (1 Bft) SO 144 ° 0 min 0 W/m² 5,6 °C 8,0 °C 8,0 km/h (2 Bft)
08.01.2023 19:48 21,4 °C 8,0 °C 55 % 85 % 1002,7 hPa 0,0 l/m² 4,1 km/h (1 Bft) O-SO 122 ° 0 min 0 W/m² 5,6 °C 8,0 °C 6,4 km/h (2 Bft)
08.01.2023 19:50 21,4 °C 8,0 °C 55 % 85 % 1002,7 hPa 0,0 l/m² 4,2 km/h (1 Bft) O-SO 115 ° 0 min 0 W/m² 5,6 °C 8,0 °C 9,7 km/h (2 Bft)
08.01.2023 19:52 21,4 °C 8,0 °C 55 % 85 % 1002,8 hPa 0,0 l/m² 4,9 km/h (1 Bft) SO 124 ° 0 min 0 W/m² 5,6 °C 8,0 °C 9,7 km/h (2 Bft)
08.01.2023 19:53 21,4 °C 8,0 °C 55 % 85 % 1002,7 hPa 0,0 l/m² 7,7 km/h (2 Bft) O-SO 123 ° 0 min 0 W/m² 5,6 °C 7,0 °C 11,3 km/h (2 Bft)
08.01.2023 19:54 21,4 °C 8,0 °C 55 % 85 % 1002,7 hPa 0,0 l/m² 5,7 km/h (2 Bft) O-SO 109 ° 0 min 0 W/m² 5,6 °C 8,0 °C 8,0 km/h (2 Bft)
08.01.2023 19:56 21,4 °C 8,0 °C 55 % 85 % 1002,7 hPa 0,0 l/m² 4,2 km/h (1 Bft) SO 127 ° 0 min 0 W/m² 5,6 °C 8,0 °C 8,0 km/h (2 Bft)
08.01.2023 19:58 21,4 °C 8,0 °C 55 % 85 % 1002,6 hPa 0,0 l/m² 6,6 km/h (2 Bft) O-SO 107 ° 0 min 0 W/m² 5,6 °C 7,9 °C 12,9 km/h (3 Bft)
08.01.2023 20:00 21,4 °C 8,1 °C 55 % 85 % 1002,5 hPa 0,0 l/m² 8,3 km/h (2 Bft) S-SO 150 ° 0 min 0 W/m² 5,7 °C 6,6 °C 12,9 km/h (3 Bft)
08.01.2023 20:02 21,4 °C 8,1 °C 55 % 85 % 1002,6 hPa 0,0 l/m² 6,2 km/h (2 Bft) O-SO 118 ° 0 min 0 W/m² 5,7 °C 8,1 °C 11,3 km/h (2 Bft)
08.01.2023 20:03 21,4 °C 8,1 °C 55 % 85 % 1002,5 hPa 0,0 l/m² 7,1 km/h (2 Bft) SO 128 ° 0 min 0 W/m² 5,7 °C 7,6 °C 12,9 km/h (3 Bft)
08.01.2023 20:04 21,4 °C 8,1 °C 55 % 85 % 1002,5 hPa 0,0 l/m² 4,8 km/h (1 Bft) SO 128 ° 0 min 0 W/m² 5,7 °C 8,1 °C 6,4 km/h (2 Bft)
08.01.2023 20:06 21,4 °C 8,1 °C 55 % 85 % 1002,6 hPa 0,0 l/m² 4,8 km/h (1 Bft) SO 130 ° 0 min 0 W/m² 5,7 °C 8,1 °C 6,4 km/h (2 Bft)
08.01.2023 20:08 21,4 °C 8,1 °C 55 % 85 % 1002,5 hPa 0,0 l/m² 6,4 km/h (2 Bft) O-SO 113 ° 0 min 0 W/m² 5,7 °C 8,1 °C 12,9 km/h (3 Bft)
08.01.2023 20:10 21,4 °C 8,1 °C 55 % 85 % 1002,5 hPa 0,0 l/m² 9,3 km/h (2 Bft) SO 128 ° 0 min 0 W/m² 5,7 °C 5,9 °C 14,5 km/h (3 Bft)
08.01.2023 20:12 21,4 °C 8,1 °C 55 % 85 % 1002,4 hPa 0,0 l/m² 9,4 km/h (2 Bft) SO 126 ° 0 min 0 W/m² 5,7 °C 5,9 °C 16,1 km/h (3 Bft)
08.01.2023 20:13 21,4 °C 8,2 °C 55 % 85 % 1002,3 hPa 0,0 l/m² 5,2 km/h (1 Bft) SO 124 ° 0 min 0 W/m² 5,8 °C 8,2 °C 8,0 km/h (2 Bft)
08.01.2023 20:14 21,4 °C 8,2 °C 55 % 85 % 1002,3 hPa 0,0 l/m² 6,7 km/h (2 Bft) SO 142 ° 0 min 0 W/m² 5,8 °C 8,0 °C 12,9 km/h (3 Bft)
08.01.2023 20:16 21,4 °C 8,2 °C 55 % 85 % 1002,3 hPa 0,0 l/m² 8,9 km/h (2 Bft) SO 136 ° 0 min 0 W/m² 5,8 °C 6,3 °C 14,5 km/h (3 Bft)
08.01.2023 20:18 21,4 °C 8,2 °C 55 % 85 % 1002,3 hPa 0,0 l/m² 8,4 km/h (2 Bft) SO 125 ° 0 min 0 W/m² 5,8 °C 6,7 °C 12,9 km/h (3 Bft)
08.01.2023 20:20 21,4 °C 8,2 °C 55 % 85 % 1002,2 hPa 0,0 l/m² 7,9 km/h (2 Bft) SO 134 ° 0 min 0 W/m² 5,8 °C 7,0 °C 16,1 km/h (3 Bft)
08.01.2023 20:22 21,4 °C 8,2 °C 55 % 85 % 1002,2 hPa 0,0 l/m² 8,9 km/h (2 Bft) SO 135 ° 0 min 0 W/m² 5,8 °C 6,3 °C 14,5 km/h (3 Bft)
08.01.2023 20:23 21,4 °C 8,2 °C 55 % 85 % 1002,1 hPa 0,0 l/m² 6,1 km/h (2 Bft) O-SO 115 ° 0 min 0 W/m² 5,8 °C 8,2 °C 11,3 km/h (2 Bft)
08.01.2023 20:24 21,4 °C 8,2 °C 55 % 85 % 1002,1 hPa 0,0 l/m² 6,2 km/h (2 Bft) SO 126 ° 0 min 0 W/m² 5,8 °C 8,2 °C 8,0 km/h (2 Bft)
08.01.2023 20:26 21,4 °C 8,2 °C 55 % 85 % 1002,1 hPa 0,0 l/m² 7,9 km/h (2 Bft) O-SO 102 ° 0 min 0 W/m² 5,8 °C 7,0 °C 11,3 km/h (2 Bft)
08.01.2023 20:28 21,4 °C 8,2 °C 55 % 85 % 1002,2 hPa 0,0 l/m² 6,5 km/h (2 Bft) O-SO 109 ° 0 min 0 W/m² 5,8 °C 8,1 °C 11,3 km/h (2 Bft)
08.01.2023 20:30 21,4 °C 8,1 °C 55 % 85 % 1002,1 hPa 0,0 l/m² 8,1 km/h (2 Bft) O 94 ° 0 min 0 W/m² 5,7 °C 6,8 °C 12,9 km/h (3 Bft)
08.01.2023 20:32 21,4 °C 8,1 °C 55 % 85 % 1002,2 hPa 0,0 l/m² 9,1 km/h (2 Bft) O-SO 117 ° 0 min 0 W/m² 5,7 °C 6,1 °C 11,3 km/h (2 Bft)
08.01.2023 20:33 21,5 °C 8,1 °C 55 % 85 % 1002,2 hPa 0,0 l/m² 6,4 km/h (2 Bft) O-SO 105 ° 0 min 0 W/m² 5,7 °C 8,1 °C 9,7 km/h (2 Bft)
08.01.2023 20:34 21,5 °C 8,1 °C 55 % 85 % 1002,2 hPa 0,0 l/m² 6,9 km/h (2 Bft) O-SO 114 ° 0 min 0 W/m² 5,7 °C 7,7 °C 11,3 km/h (2 Bft)
08.01.2023 20:36 21,5 °C 8,1 °C 55 % 85 % 1002,3 hPa 0,0 l/m² 6,3 km/h (2 Bft) O-SO 114 ° 0 min 0 W/m² 5,7 °C 8,1 °C 11,3 km/h (2 Bft)
08.01.2023 20:38 21,6 °C 8,0 °C 55 % 85 % 1002,2 hPa 0,0 l/m² 6,5 km/h (2 Bft) O-SO 118 ° 0 min 0 W/m² 5,6 °C 7,9 °C 11,3 km/h (2 Bft)
08.01.2023 20:40 21,6 °C 8,0 °C 55 % 85 % 1002,2 hPa 0,0 l/m² 8,2 km/h (2 Bft) SO 126 ° 0 min 0 W/m² 5,6 °C 6,6 °C 11,3 km/h (2 Bft)
08.01.2023 20:42 21,6 °C 8,0 °C 55 % 85 % 1002,2 hPa 0,0 l/m² 8,5 km/h (2 Bft) O-SO 108 ° 0 min 0 W/m² 5,6 °C 6,4 °C 12,9 km/h (3 Bft)
08.01.2023 20:43 21,6 °C 8,0 °C 55 % 85 % 1002,2 hPa 0,0 l/m² 10,7 km/h (2 Bft) O-SO 107 ° 0 min 0 W/m² 5,6 °C 5,0 °C 16,1 km/h (3 Bft)
08.01.2023 20:44 21,6 °C 7,9 °C 55 % 85 % 1002,2 hPa 0,0 l/m² 12,5 km/h (2 Bft) SO 127 ° 0 min 0 W/m² 5,5 °C 3,8 °C 14,5 km/h (3 Bft)
08.01.2023 20:46 21,6 °C 7,9 °C 55 % 85 % 1002,2 hPa 0,0 l/m² 8,5 km/h (2 Bft) O-SO 108 ° 0 min 0 W/m² 5,5 °C 6,3 °C 14,5 km/h (3 Bft)
08.01.2023 20:48 21,6 °C 7,9 °C 55 % 85 % 1002,1 hPa 0,0 l/m² 7,0 km/h (2 Bft) O-SO 121 ° 0 min 0 W/m² 5,5 °C 7,4 °C 11,3 km/h (2 Bft)
08.01.2023 20:50 21,6 °C 7,9 °C 55 % 85 % 1002,2 hPa 0,0 l/m² 7,7 km/h (2 Bft) O-SO 121 ° 0 min 0 W/m² 5,5 °C 6,9 °C 11,3 km/h (2 Bft)
08.01.2023 20:52 21,6 °C 7,8 °C 55 % 85 % 1002,1 hPa 0,0 l/m² 9,4 km/h (2 Bft) O 94 ° 0 min 0 W/m² 5,4 °C 5,6 °C 12,9 km/h (3 Bft)
08.01.2023 20:53 21,6 °C 7,8 °C 55 % 85 % 1002,2 hPa 0,0 l/m² 9,7 km/h (2 Bft) O-SO 105 ° 0 min 0 W/m² 5,4 °C 5,4 °C 12,9 km/h (3 Bft)
08.01.2023 20:54 21,6 °C 7,8 °C 55 % 85 % 1002,2 hPa 0,0 l/m² 7,9 km/h (2 Bft) O 94 ° 0 min 0 W/m² 5,4 °C 6,6 °C 9,7 km/h (2 Bft)
08.01.2023 20:56 21,7 °C 7,7 °C 55 % 85 % 1002,2 hPa 0,0 l/m² 8,1 km/h (2 Bft) O 100 ° 0 min 0 W/m² 5,3 °C 6,4 °C 11,3 km/h (2 Bft)
08.01.2023 20:58 21,7 °C 7,7 °C 55 % 85 % 1002,2 hPa 0,0 l/m² 9,0 km/h (2 Bft) O 97 ° 0 min 0 W/m² 5,3 °C 5,7 °C 11,3 km/h (2 Bft)
08.01.2023 21:00 21,7 °C 7,7 °C 55 % 85 % 1002,2 hPa 0,0 l/m² 10,5 km/h (2 Bft) O 98 ° 0 min 0 W/m² 5,3 °C 4,7 °C 12,9 km/h (3 Bft)
08.01.2023 21:02 21,7 °C 7,7 °C 55 % 85 % 1002,2 hPa 0,0 l/m² 8,5 km/h (2 Bft) O-SO 103 ° 0 min 0 W/m² 5,3 °C 6,1 °C 11,3 km/h (2 Bft)
08.01.2023 21:03 21,7 °C 7,6 °C 55 % 85 % 1002,2 hPa 0,0 l/m² 9,4 km/h (2 Bft) O 97 ° 0 min 0 W/m² 5,2 °C 5,3 °C 12,9 km/h (3 Bft)
08.01.2023 21:04 21,7 °C 7,6 °C 55 % 85 % 1002,2 hPa 0,0 l/m² 9,5 km/h (2 Bft) O-SO 102 ° 0 min 0 W/m² 5,2 °C 5,3 °C 11,3 km/h (2 Bft)
08.01.2023 21:06 21,7 °C 7,6 °C 55 % 85 % 1002,1 hPa 0,0 l/m² 8,1 km/h (2 Bft) O-SO 107 ° 0 min 0 W/m² 5,2 °C 6,3 °C 11,3 km/h (2 Bft)
08.01.2023 21:08 21,7 °C 7,5 °C 55 % 85 % 1002,1 hPa 0,0 l/m² 10,3 km/h (2 Bft) O 97 ° 0 min 0 W/m² 5,1 °C 4,6 °C 12,9 km/h (3 Bft)
08.01.2023 21:10 21,7 °C 7,4 °C 55 % 85 % 1002,2 hPa 0,0 l/m² 11,1 km/h (2 Bft) O 94 ° 0 min 0 W/m² 5,0 °C 4,0 °C 14,5 km/h (3 Bft)
08.01.2023 21:12 21,7 °C 7,4 °C 55 % 85 % 1002,1 hPa 0,0 l/m² 12,0 km/h (2 Bft) O 99 ° 0 min 0 W/m² 5,0 °C 3,5 °C 14,5 km/h (3 Bft)
08.01.2023 21:13 21,7 °C 7,3 °C 55 % 85 % 1002,0 hPa 0,0 l/m² 11,6 km/h (2 Bft) O-SO 116 ° 0 min 0 W/m² 4,9 °C 3,6 °C 14,5 km/h (3 Bft)
08.01.2023 21:14 21,7 °C 7,3 °C 55 % 85 % 1002,0 hPa 0,0 l/m² 11,6 km/h (2 Bft) O-SO 110 ° 0 min 0 W/m² 4,9 °C 3,6 °C 12,9 km/h (3 Bft)
08.01.2023 21:16 21,7 °C 7,3 °C 54 % 86 % 1002,1 hPa 0,0 l/m² 11,4 km/h (2 Bft) O-SO 107 ° 0 min 0 W/m² 5,1 °C 3,8 °C 14,5 km/h (3 Bft)
08.01.2023 21:18 21,7 °C 7,3 °C 54 % 86 % 1002,0 hPa 0,0 l/m² 9,3 km/h (2 Bft) O-SO 120 ° 0 min 0 W/m² 5,1 °C 5,1 °C 12,9 km/h (3 Bft)
08.01.2023 21:20 21,7 °C 7,2 °C 54 % 85 % 1002,0 hPa 0,0 l/m² 9,4 km/h (2 Bft) O-SO 102 ° 0 min 0 W/m² 4,9 °C 4,9 °C 12,9 km/h (3 Bft)
08.01.2023 21:22 21,7 °C 7,2 °C 54 % 85 % 1002,0 hPa 0,0 l/m² 9,8 km/h (2 Bft) O 101 ° 0 min 0 W/m² 4,9 °C 4,6 °C 11,3 km/h (2 Bft)
08.01.2023 21:23 21,7 °C 7,2 °C 54 % 86 % 1002,0 hPa 0,0 l/m² 10,6 km/h (2 Bft) O-SO 103 ° 0 min 0 W/m² 5,0 °C 4,1 °C 14,5 km/h (3 Bft)
08.01.2023 21:24 21,7 °C 7,2 °C 54 % 86 % 1002,0 hPa 0,0 l/m² 10,9 km/h (2 Bft) O-SO 111 ° 0 min 0 W/m² 5,0 °C 3,9 °C 12,9 km/h (3 Bft)
08.01.2023 21:26 21,7 °C 7,2 °C 54 % 86 % 1001,9 hPa 0,0 l/m² 11,4 km/h (2 Bft) O-SO 113 ° 0 min 0 W/m² 5,0 °C 3,6 °C 14,5 km/h (3 Bft)
08.01.2023 21:28 21,7 °C 7,1 °C 54 % 86 % 1002,0 hPa 0,0 l/m² 11,1 km/h (2 Bft) SO 124 ° 0 min 0 W/m² 4,9 °C 3,7 °C 14,5 km/h (3 Bft)
08.01.2023 21:30 21,7 °C 7,1 °C 55 % 86 % 1002,0 hPa 0,0 l/m² 12,7 km/h (3 Bft) O-SO 105 ° 0 min 0 W/m² 4,9 °C 2,8 °C 14,5 km/h (3 Bft)
08.01.2023 21:32 21,7 °C 7,1 °C 54 % 86 % 1001,9 hPa 0,0 l/m² 12,4 km/h (2 Bft) O 98 ° 0 min 0 W/m² 4,9 °C 3,0 °C 16,1 km/h (3 Bft)
08.01.2023 21:33 21,7 °C 7,1 °C 54 % 86 % 1001,8 hPa 0,0 l/m² 12,7 km/h (3 Bft) O 94 ° 0 min 0 W/m² 4,9 °C 2,8 °C 16,1 km/h (3 Bft)
08.01.2023 21:34 21,7 °C 7,1 °C 54 % 87 % 1001,8 hPa 0,0 l/m² 13,8 km/h (3 Bft) O 90 ° 0 min 0 W/m² 5,1 °C 2,2 °C 16,1 km/h (3 Bft)
08.01.2023 21:36 21,8 °C 7,1 °C 55 % 87 % 1001,9 hPa 0,0 l/m² 12,8 km/h (3 Bft) O-SO 107 ° 0 min 0 W/m² 5,1 °C 2,7 °C 16,1 km/h (3 Bft)
08.01.2023 21:38 21,7 °C 7,1 °C 54 % 87 % 1001,9 hPa 0,0 l/m² 12,5 km/h (2 Bft) O 85 ° 0 min 0 W/m² 5,1 °C 2,9 °C 16,1 km/h (3 Bft)
08.01.2023 21:40 21,7 °C 7,1 °C 55 % 87 % 1001,8 hPa 0,0 l/m² 13,7 km/h (3 Bft) O 84 ° 0 min 0 W/m² 5,1 °C 2,3 °C 16,1 km/h (3 Bft)
08.01.2023 21:42 21,7 °C 7,1 °C 54 % 87 % 1001,8 hPa 0,0 l/m² 12,9 km/h (3 Bft) O 82 ° 0 min 0 W/m² 5,1 °C 2,7 °C 17,7 km/h (3 Bft)
08.01.2023 21:43 21,8 °C 7,1 °C 55 % 87 % 1001,8 hPa 0,0 l/m² 13,0 km/h (3 Bft) O 90 ° 0 min 0 W/m² 5,1 °C 2,6 °C 14,5 km/h (3 Bft)
08.01.2023 21:45 21,8 °C 7,1 °C 55 % 87 % 1001,9 hPa 0,0 l/m² 10,4 km/h (2 Bft) O 87 ° 0 min 0 W/m² 5,1 °C 4,1 °C 14,5 km/h (3 Bft)
08.01.2023 21:47 21,8 °C 7,1 °C 55 % 87 % 1002,0 hPa 0,0 l/m² 9,9 km/h (2 Bft) O-NO 76 ° 0 min 0 W/m² 5,1 °C 4,5 °C 12,9 km/h (3 Bft)
08.01.2023 21:49 21,8 °C 7,0 °C 55 % 87 % 1001,9 hPa 0,0 l/m² 9,4 km/h (2 Bft) O 82 ° 0 min 0 W/m² 5,0 °C 4,7 °C 12,9 km/h (3 Bft)
08.01.2023 21:51 21,8 °C 6,9 °C 55 % 87 % 1001,9 hPa 0,0 l/m² 10,9 km/h (2 Bft) O-NO 72 ° 0 min 0 W/m² 4,9 °C 3,6 °C 14,5 km/h (3 Bft)
08.01.2023 21:52 21,8 °C 6,9 °C 55 % 87 % 1002,0 hPa 0,0 l/m² 10,5 km/h (2 Bft) O-NO 61 ° 0 min 0 W/m² 4,9 °C 3,8 °C 14,5 km/h (3 Bft)
08.01.2023 21:53 21,8 °C 6,9 °C 55 % 87 % 1002,0 hPa 0,0 l/m² 11,1 km/h (2 Bft) O 80 ° 0 min 0 W/m² 4,9 °C 3,5 °C 14,5 km/h (3 Bft)
08.01.2023 21:55 21,8 °C 6,9 °C 55 % 87 % 1002,0 hPa 0,0 l/m² 7,5 km/h (2 Bft) O-NO 65 ° 0 min 0 W/m² 4,9 °C 6,0 °C 11,3 km/h (2 Bft)
08.01.2023 21:57 21,8 °C 6,9 °C 55 % 87 % 1001,9 hPa 0,0 l/m² 8,2 km/h (2 Bft) O 82 ° 0 min 0 W/m² 4,9 °C 5,4 °C 12,9 km/h (3 Bft)
08.01.2023 21:59 21,8 °C 6,8 °C 55 % 87 % 1002,0 hPa 0,0 l/m² 9,1 km/h (2 Bft) O-NO 66 ° 0 min 0 W/m² 4,8 °C 4,7 °C 12,9 km/h (3 Bft)
08.01.2023 22:01 21,8 °C 6,8 °C 55 % 87 % 1002,0 hPa 0,0 l/m² 8,3 km/h (2 Bft) O-NO 78 ° 0 min 0 W/m² 4,8 °C 5,3 °C 12,9 km/h (3 Bft)
08.01.2023 22:02 21,8 °C 6,8 °C 55 % 87 % 1001,9 hPa 0,0 l/m² 8,4 km/h (2 Bft) O 85 ° 0 min 0 W/m² 4,8 °C 5,2 °C 11,3 km/h (2 Bft)
08.01.2023 22:03 21,8 °C 6,8 °C 55 % 87 % 1001,9 hPa 0,0 l/m² 7,1 km/h (2 Bft) O 96 ° 0 min 0 W/m² 4,8 °C 6,2 °C 11,3 km/h (2 Bft)
08.01.2023 22:05 21,8 °C 6,8 °C 55 % 88 % 1001,9 hPa 0,0 l/m² 7,3 km/h (2 Bft) O 96 ° 0 min 0 W/m² 5,0 °C 6,1 °C 11,3 km/h (2 Bft)
08.01.2023 22:07 21,8 °C 6,8 °C 55 % 88 % 1001,7 hPa 0,0 l/m² 7,2 km/h (2 Bft) S-SO 158 ° 0 min 0 W/m² 5,0 °C 6,1 °C 12,9 km/h (3 Bft)
08.01.2023 22:09 21,8 °C 6,7 °C 55 % 87 % 1001,7 hPa 0,0 l/m² 2,6 km/h (1 Bft) S-SO 157 ° 0 min 0 W/m² 4,7 °C 6,7 °C 4,8 km/h (1 Bft)
08.01.2023 22:11 21,8 °C 6,7 °C 55 % 88 % 1001,7 hPa 0,0 l/m² 0,6 km/h (0 Bft) S-SO 158 ° 0 min 0 W/m² 4,9 °C 6,7 °C 3,2 km/h (1 Bft)
08.01.2023 22:12 21,8 °C 6,7 °C 55 % 88 % 1001,6 hPa 0,0 l/m² 0,1 km/h (0 Bft) S-SO 157 ° 0 min 0 W/m² 4,9 °C 6,7 °C 1,6 km/h (1 Bft)
08.01.2023 22:13 21,8 °C 6,7 °C 55 % 88 % 1001,6 hPa 0,0 l/m² 0,9 km/h (0 Bft) S-SO 157 ° 0 min 0 W/m² 4,9 °C 6,7 °C 3,2 km/h (1 Bft)
08.01.2023 22:15 21,8 °C 6,7 °C 55 % 88 % 1001,7 hPa 0,0 l/m² 0,9 km/h (0 Bft) S-SO 149 ° 0 min 0 W/m² 4,9 °C 6,7 °C 4,8 km/h (1 Bft)
08.01.2023 22:17 21,8 °C 6,6 °C 55 % 88 % 1001,7 hPa 0,0 l/m² 1,5 km/h (1 Bft) SO 146 ° 0 min 0 W/m² 4,8 °C 6,6 °C 3,2 km/h (1 Bft)
08.01.2023 22:19 21,7 °C 6,6 °C 54 % 88 % 1001,6 hPa 0,0 l/m² 2,4 km/h (1 Bft) SO 146 ° 0 min 0 W/m² 4,8 °C 6,6 °C 4,8 km/h (1 Bft)
08.01.2023 22:21 21,7 °C 6,6 °C 54 % 87 % 1001,5 hPa 0,0 l/m² 2,8 km/h (1 Bft) O-SO 105 ° 0 min 0 W/m² 4,6 °C 6,6 °C 4,8 km/h (1 Bft)
08.01.2023 22:22 21,7 °C 6,6 °C 54 % 87 % 1001,5 hPa 0,0 l/m² 4,5 km/h (1 Bft) O 94 ° 0 min 0 W/m² 4,6 °C 6,6 °C 6,4 km/h (2 Bft)
08.01.2023 22:23 21,7 °C 6,6 °C 54 % 87 % 1001,5 hPa 0,0 l/m² 2,6 km/h (1 Bft) O 94 ° 0 min 0 W/m² 4,6 °C 6,6 °C 4,8 km/h (1 Bft)
08.01.2023 22:25 21,7 °C 6,5 °C 54 % 88 % 1001,5 hPa 0,0 l/m² 3,4 km/h (1 Bft) O 88 ° 0 min 0 W/m² 4,7 °C 6,5 °C 4,8 km/h (1 Bft)
08.01.2023 22:27 21,7 °C 6,5 °C 54 % 88 % 1001,4 hPa 0,0 l/m² 3,4 km/h (1 Bft) O 84 ° 0 min 0 W/m² 4,7 °C 6,5 °C 6,4 km/h (2 Bft)
08.01.2023 22:29 21,7 °C 6,4 °C 54 % 88 % 1001,4 hPa 0,0 l/m² 3,5 km/h (1 Bft) O 92 ° 0 min 0 W/m² 4,6 °C 6,4 °C 6,4 km/h (2 Bft)
08.01.2023 22:31 21,7 °C 6,4 °C 54 % 88 % 1001,3 hPa 0,0 l/m² 5,4 km/h (2 Bft) NO 53 ° 0 min 0 W/m² 4,6 °C 6,4 °C 8,0 km/h (2 Bft)
08.01.2023 22:32 21,7 °C 6,4 °C 54 % 88 % 1001,3 hPa 0,0 l/m² 4,0 km/h (1 Bft) O-NO 72 ° 0 min 0 W/m² 4,6 °C 6,4 °C 6,4 km/h (2 Bft)
08.01.2023 22:33 21,7 °C 6,4 °C 54 % 88 % 1001,3 hPa 0,0 l/m² 3,8 km/h (1 Bft) O-NO 72 ° 0 min 0 W/m² 4,6 °C 6,4 °C 4,8 km/h (1 Bft)
08.01.2023 22:35 21,7 °C 6,4 °C 54 % 88 % 1001,3 hPa 0,0 l/m² 3,7 km/h (1 Bft) O-NO 77 ° 0 min 0 W/m² 4,6 °C 6,4 °C 6,4 km/h (2 Bft)
08.01.2023 22:37 21,7 °C 6,3 °C 54 % 88 % 1001,2 hPa 0,0 l/m² 4,6 km/h (1 Bft) O-NO 70 ° 0 min 0 W/m² 4,5 °C 6,3 °C 6,4 km/h (2 Bft)
08.01.2023 22:39 21,7 °C 6,3 °C 54 % 88 % 1001,2 hPa 0,0 l/m² 4,9 km/h (1 Bft) O 88 ° 0 min 0 W/m² 4,5 °C 6,3 °C 8,0 km/h (2 Bft)
08.01.2023 22:41 21,7 °C 6,3 °C 54 % 88 % 1001,2 hPa 0,0 l/m² 5,8 km/h (2 Bft) O 85 ° 0 min 0 W/m² 4,5 °C 6,3 °C 8,0 km/h (2 Bft)
08.01.2023 22:42 21,7 °C 6,3 °C 54 % 88 % 1001,2 hPa 0,0 l/m² 5,1 km/h (1 Bft) O 89 ° 0 min 0 W/m² 4,5 °C 6,3 °C 6,4 km/h (2 Bft)
08.01.2023 22:43 21,7 °C 6,2 °C 54 % 88 % 1001,2 hPa 0,0 l/m² 5,7 km/h (2 Bft) O-SO 105 ° 0 min 0 W/m² 4,4 °C 6,2 °C 9,7 km/h (2 Bft)
08.01.2023 22:45 21,6 °C 6,2 °C 54 % 89 % 1001,2 hPa 0,0 l/m² 6,8 km/h (2 Bft) O-SO 102 ° 0 min 0 W/m² 4,5 °C 5,9 °C 11,3 km/h (2 Bft)
08.01.2023 22:46 21,6 °C 6,2 °C 54 % 89 % 1001,0 hPa 0,0 l/m² 4,4 km/h (1 Bft) O-SO 107 ° 0 min 0 W/m² 4,5 °C 6,2 °C 6,4 km/h (2 Bft)
08.01.2023 22:47 21,6 °C 6,2 °C 54 % 89 % 1001,0 hPa 0,0 l/m² 5,2 km/h (1 Bft) O-SO 105 ° 0 min 0 W/m² 4,5 °C 6,2 °C 6,4 km/h (2 Bft)
08.01.2023 22:49 21,7 °C 6,2 °C 54 % 89 % 1000,9 hPa 0,0 l/m² 5,9 km/h (2 Bft) O-SO 107 ° 0 min 0 W/m² 4,5 °C 6,2 °C 9,7 km/h (2 Bft)
08.01.2023 22:51 21,6 °C 6,2 °C 54 % 89 % 1000,9 hPa 0,0 l/m² 4,8 km/h (1 Bft) O-SO 102 ° 0 min 0 W/m² 4,5 °C 6,2 °C 9,7 km/h (2 Bft)
08.01.2023 22:52 21,6 °C 6,1 °C 54 % 89 % 1000,9 hPa 0,0 l/m² 4,8 km/h (1 Bft) O 101 ° 0 min 0 W/m² 4,4 °C 6,1 °C 6,4 km/h (2 Bft)
08.01.2023 22:53 21,6 °C 6,1 °C 54 % 89 % 1000,9 hPa 0,0 l/m² 3,4 km/h (1 Bft) O 101 ° 0 min 0 W/m² 4,4 °C 6,1 °C 4,8 km/h (1 Bft)
08.01.2023 22:55 21,6 °C 6,1 °C 54 % 89 % 1001,0 hPa 0,0 l/m² 4,3 km/h (1 Bft) O 98 ° 0 min 0 W/m² 4,4 °C 6,1 °C 6,4 km/h (2 Bft)
08.01.2023 22:57 21,6 °C 6,0 °C 54 % 89 % 1001,1 hPa 0,0 l/m² 2,3 km/h (1 Bft) O 94 ° 0 min 0 W/m² 4,3 °C 6,0 °C 6,4 km/h (2 Bft)
08.01.2023 22:59 21,6 °C 6,0 °C 54 % 89 % 1001,1 hPa 0,0 l/m² 2,8 km/h (1 Bft) O 94 ° 0 min 0 W/m² 4,3 °C 6,0 °C 4,8 km/h (1 Bft)
08.01.2023 23:01 21,6 °C 5,9 °C 54 % 88 % 1001,1 hPa 0,0 l/m² 3,0 km/h (1 Bft) O-SO 108 ° 0 min 0 W/m² 4,1 °C 5,9 °C 6,4 km/h (2 Bft)
08.01.2023 23:02 21,6 °C 5,9 °C 54 % 88 % 1001,1 hPa 0,0 l/m² 3,6 km/h (1 Bft) O-SO 109 ° 0 min 0 W/m² 4,1 °C 5,9 °C 6,4 km/h (2 Bft)
08.01.2023 23:03 21,6 °C 5,9 °C 54 % 88 % 1001,1 hPa 0,0 l/m² 1,9 km/h (1 Bft) O-SO 109 ° 0 min 0 W/m² 4,1 °C 5,9 °C 3,2 km/h (1 Bft)
08.01.2023 23:05 21,6 °C 5,9 °C 54 % 89 % 1001,2 hPa 0,0 l/m² 1,6 km/h (1 Bft) O-SO 109 ° 0 min 0 W/m² 4,2 °C 5,9 °C 4,8 km/h (1 Bft)
08.01.2023 23:07 21,6 °C 5,9 °C 54 % 89 % 1001,1 hPa 0,0 l/m² 0,6 km/h (0 Bft) O-SO 109 ° 0 min 0 W/m² 4,2 °C 5,9 °C 3,2 km/h (1 Bft)
08.01.2023 23:09 21,6 °C 5,9 °C 54 % 89 % 1001,0 hPa 0,0 l/m² 1,4 km/h (1 Bft) O-SO 109 ° 0 min 0 W/m² 4,2 °C 5,9 °C 3,2 km/h (1 Bft)
08.01.2023 23:12 21,6 °C 5,9 °C 54 % 89 % 1001,0 hPa 0,0 l/m² 1,5 km/h (1 Bft) O-SO 109 ° 0 min 0 W/m² 4,2 °C 5,9 °C 3,2 km/h (1 Bft)
08.01.2023 23:13 21,6 °C 5,9 °C 54 % 89 % 1000,9 hPa 0,0 l/m² 2,7 km/h (1 Bft) O-SO 109 ° 0 min 0 W/m² 4,2 °C 5,9 °C 3,2 km/h (1 Bft)
08.01.2023 23:14 21,6 °C 5,9 °C 54 % 89 % 1000,9 hPa 0,0 l/m² 1,9 km/h (1 Bft) O-SO 109 ° 0 min 0 W/m² 4,2 °C 5,9 °C 3,2 km/h (1 Bft)
08.01.2023 23:15 21,6 °C 5,9 °C 54 % 89 % 1000,9 hPa 0,0 l/m² 1,6 km/h (1 Bft) O-SO 112 ° 0 min 0 W/m² 4,2 °C 5,9 °C 3,2 km/h (1 Bft)
08.01.2023 23:16 21,6 °C 5,8 °C 54 % 89 % 1000,9 hPa 0,0 l/m² 1,6 km/h (1 Bft) O-SO 112 ° 0 min 0 W/m² 4,1 °C 5,8 °C 3,2 km/h (1 Bft)
08.01.2023 23:22 21,5 °C 5,8 °C 54 % 89 % 1000,9 hPa 0,0 l/m² 2,3 km/h (1 Bft) O-SO 109 ° 0 min 0 W/m² 4,1 °C 5,8 °C 3,2 km/h (1 Bft)
08.01.2023 23:23 21,5 °C 5,7 °C 54 % 89 % 1000,8 hPa 0,0 l/m² 2,7 km/h (1 Bft) O-SO 109 ° 0 min 0 W/m² 4,0 °C 5,7 °C 3,2 km/h (1 Bft)
08.01.2023 23:24 21,5 °C 5,6 °C 54 % 89 % 1000,8 hPa 0,0 l/m² 3,1 km/h (1 Bft) O-SO 109 ° 0 min 0 W/m² 3,9 °C 5,6 °C 3,2 km/h (1 Bft)
08.01.2023 23:25 21,5 °C 5,6 °C 54 % 88 % 1000,8 hPa 0,0 l/m² 3,8 km/h (1 Bft) O-SO 109 ° 0 min 0 W/m² 3,8 °C 5,6 °C 4,8 km/h (1 Bft)
08.01.2023 23:26 21,5 °C 5,4 °C 54 % 88 % 1000,8 hPa 0,0 l/m² 3,5 km/h (1 Bft) O-SO 109 ° 0 min 0 W/m² 3,6 °C 5,4 °C 4,8 km/h (1 Bft)
08.01.2023 23:28 21,4 °C 5,3 °C 54 % 88 % 1000,7 hPa 0,0 l/m² 3,2 km/h (1 Bft) O-SO 109 ° 0 min 0 W/m² 3,5 °C 5,3 °C 4,8 km/h (1 Bft)
08.01.2023 23:30 21,4 °C 5,2 °C 54 % 88 % 1000,8 hPa 0,0 l/m² 2,5 km/h (1 Bft) O-SO 109 ° 0 min 0 W/m² 3,4 °C 5,2 °C 4,8 km/h (1 Bft)
08.01.2023 23:31 21,5 °C 5,2 °C 54 % 88 % 1000,7 hPa 0,0 l/m² 2,0 km/h (1 Bft) O-SO 109 ° 0 min 0 W/m² 3,4 °C 5,2 °C 3,2 km/h (1 Bft)
08.01.2023 23:32 21,5 °C 5,2 °C 54 % 88 % 1000,7 hPa 0,0 l/m² 1,0 km/h (0 Bft) O-SO 109 ° 0 min 0 W/m² 3,4 °C 5,2 °C 1,6 km/h (1 Bft)
08.01.2023 23:34 21,4 °C 5,2 °C 54 % 88 % 1000,8 hPa 0,0 l/m² 0,9 km/h (0 Bft) O-SO 109 ° 0 min 0 W/m² 3,4 °C 5,2 °C 3,2 km/h (1 Bft)
08.01.2023 23:35 21,4 °C 5,2 °C 54 % 88 % 1000,7 hPa 0,0 l/m² 0,0 km/h (0 Bft) O-SO 109 ° 0 min 0 W/m² 3,4 °C 5,2 °C 0,0 km/h (0 Bft)
08.01.2023 23:37 21,4 °C 5,1 °C 54 % 88 % 1000,7 hPa 0,0 l/m² 0,9 km/h (0 Bft) O-SO 109 ° 0 min 0 W/m² 3,3 °C 5,1 °C 3,2 km/h (1 Bft)
08.01.2023 23:39 21,4 °C 5,1 °C 54 % 88 % 1000,6 hPa 0,0 l/m² 1,6 km/h (1 Bft) O-SO 109 ° 0 min 0 W/m² 3,3 °C 5,1 °C 3,2 km/h (1 Bft)
08.01.2023 23:40 21,4 °C 5,1 °C 54 % 88 % 1000,6 hPa 0,0 l/m² 2,0 km/h (1 Bft) O-SO 109 ° 0 min 0 W/m² 3,3 °C 5,1 °C 3,2 km/h (1 Bft)
08.01.2023 23:42 21,4 °C 5,0 °C 54 % 88 % 1000,6 hPa 0,0 l/m² 0,7 km/h (0 Bft) O-SO 109 ° 0 min 0 W/m² 3,2 °C 5,0 °C 3,2 km/h (1 Bft)
08.01.2023 23:43 21,4 °C 5,0 °C 54 % 89 % 1000,6 hPa 0,0 l/m² 1,1 km/h (1 Bft) O-SO 109 ° 0 min 0 W/m² 3,3 °C 5,0 °C 1,6 km/h (1 Bft)
08.01.2023 23:44 21,4 °C 4,9 °C 54 % 89 % 1000,6 hPa 0,0 l/m² 0,9 km/h (0 Bft) O-SO 109 ° 0 min 0 W/m² 3,2 °C 4,9 °C 4,8 km/h (1 Bft)
08.01.2023 23:46 21,4 °C 4,9 °C 54 % 89 % 1000,6 hPa 0,0 l/m² 1,5 km/h (1 Bft) O-SO 109 ° 0 min 0 W/m² 3,2 °C 4,9 °C 4,8 km/h (1 Bft)
08.01.2023 23:48 21,4 °C 4,9 °C 54 % 89 % 1000,6 hPa 0,0 l/m² 0,8 km/h (0 Bft) O-SO 109 ° 0 min 0 W/m² 3,2 °C 4,9 °C 3,2 km/h (1 Bft)
08.01.2023 23:50 21,4 °C 4,9 °C 54 % 89 % 1000,5 hPa 0,0 l/m² 1,4 km/h (1 Bft) O-SO 109 ° 0 min 0 W/m² 3,2 °C 4,9 °C 3,2 km/h (1 Bft)
08.01.2023 23:51 21,4 °C 4,8 °C 54 % 89 % 1000,5 hPa 0,0 l/m² 3,2 km/h (1 Bft) SO 124 ° 0 min 0 W/m² 3,1 °C 4,8 °C 4,8 km/h (1 Bft)
08.01.2023 23:52 21,4 °C 4,9 °C 54 % 89 % 1000,5 hPa 0,0 l/m² 2,6 km/h (1 Bft) SO 124 ° 0 min 0 W/m² 3,2 °C 4,9 °C 4,8 km/h (1 Bft)
08.01.2023 23:53 21,4 °C 4,9 °C 54 % 89 % 1000,5 hPa 0,0 l/m² 2,8 km/h (1 Bft) SO 138 ° 0 min 0 W/m² 3,2 °C 4,9 °C 4,8 km/h (1 Bft)
08.01.2023 23:54 21,4 °C 4,8 °C 54 % 89 % 1000,5 hPa 0,0 l/m² 3,5 km/h (1 Bft) SO 139 ° 0 min 0 W/m² 3,1 °C 4,8 °C 4,8 km/h (1 Bft)
08.01.2023 23:56 21,4 °C 4,8 °C 54 % 89 % 1000,5 hPa 0,0 l/m² 4,0 km/h (1 Bft) S-SO 150 ° 0 min 0 W/m² 3,1 °C 4,8 °C 6,4 km/h (2 Bft)
08.01.2023 23:58 21,4 °C 4,8 °C 54 % 90 % 1000,4 hPa 0,0 l/m² 4,2 km/h (1 Bft) S-SO 153 ° 0 min 0 W/m² 3,3 °C 4,8 °C 8,0 km/h (2 Bft)
08.01.2023 23:59 21,4 °C 4,8 °C 54 % 90 % 1000,3 hPa 0,0 l/m² 2,6 km/h (1 Bft) S-SO 153 ° 0 min 0 W/m² 3,3 °C 4,8 °C 4,8 km/h (1 Bft)
_ Min-Zeit 12:29 23:59 12:27 12:23 23:59 - 23:35 - - - - 23:56 12:52 23:35
Minimum _ 20,8 °C 4,8 °C 47 % 82 % 1000,3 hPa - 0,0 km/h (0 Bft) - - - - 3,1 °C 2,0 °C 0,0 km/h (0 Bft)
_ Max-Zeit 22:17 15:55 19:36 23:59 00:10 23:59 12:52 - - 10:15 15:30 15:42 16:19 12:52
Maximum _ 21,8 °C 9,4 °C 56 % 90 % 1009,9 hPa 0,0 l/m² 20,5 km/h
S (4 Bft)
- - 3 min 125 W/m² 7,0 °C 9,2 °C 27,4 km/h
S (5 Bft)
Durchschnitt _ 21,4 °C 7,8 °C 53 % 86 % 1005,3 hPa #0,0 l/m² 8,1 km/h (2 Bft) S - #3:07 h 15 W/m² 5,6 °C 6,1 °C 11,7 km/h (2 Bft)
© 2009 Mathias Hoßbach